Date StartTime U_cm/s V_cm/s W_cm/s Ustd_cm/s Vstd_cm/s Wstd_cm/s Uvar_(cm/s)^2 Vvar_(cm/s)^2 Wvar_(cm/s)^2 KE_(m/s)^2 TurbulentKE_(m/s)^2 HorizWindSpeed_cm/s FrictionSpeec_cm/s DragCoef SpeedOfSound_m/s SonicTemperature_C Pressure_mb 
10/01/2014  00:00:00     -101.685      111.101      -23.262       58.572       54.270       36.061     3430.639     2945.258     1300.407        1.545        0.384      150.610       32.848        0.048      339.338       12.602      861.897
10/01/2014  00:01:00      -44.882       85.824       -8.696       38.245       41.018       28.984     1462.676     1682.485      840.077        0.672        0.199       96.852       21.858        0.051      339.341       12.608      861.908
10/01/2014  00:02:00     -101.956       91.751       -9.956       53.996       63.385       32.833     2915.590     4017.662     1077.990        1.346        0.401      137.162       32.260        0.055      339.356       12.634      861.931
10/01/2014  00:03:00      -89.590      104.624      -18.204       43.149       47.142       28.412     1861.853     2222.398      807.246        1.210        0.245      137.741       23.856        0.030      339.349       12.622      861.944
10/01/2014  00:04:00      -70.329       70.749      -12.403       48.123       82.953       25.770     2315.865     6881.131      664.087        0.998        0.493       99.758       31.018        0.097      339.310       12.555      861.961
10/01/2014  00:05:00     -100.220      168.146      -21.886       64.858       79.977       33.901     4206.566     6396.290     1149.291        2.527        0.588      195.748       37.715        0.037      339.264       12.475      861.973
10/01/2014  00:06:00      -91.783       94.324      -13.184       58.064       47.971       33.953     3371.423     2301.219     1152.810        1.216        0.341      131.610       31.923        0.059      339.254       12.461      861.986
10/01/2014  00:07:00      -87.859       47.243      -13.069       51.985       37.777       26.889     2702.396     1427.127      722.996        0.749        0.243       99.756       29.398        0.087      339.187       12.349      861.995
10/01/2014  00:08:00     -107.698      114.433      -25.740       50.240       62.338       33.620     2524.007     3886.054     1130.304        1.645        0.377      157.143       39.760        0.064      339.209       12.386      861.998
10/01/2014  00:09:00     -120.604      125.343      -30.915       47.547       61.503       27.224     2260.700     3782.664      741.119        1.900        0.339      173.943       27.238        0.025      339.315       12.562      862.006
10/01/2014  00:10:00     -143.953      129.367      -24.149       52.707       57.797       29.989     2778.049     3340.517      899.326        2.253        0.351      193.541       22.027        0.013      339.297       12.532      861.998
10/01/2014  00:11:00     -117.939      115.246      -25.992       48.040       51.667       34.520     2307.836     2669.523     1191.656        1.702        0.308      164.897       35.481        0.046      339.309       12.552      861.979
10/01/2014  00:12:00     -145.221      169.744      -36.411       48.126       60.083       33.039     2316.151     3609.965     1091.596        2.912        0.351      223.388       31.496        0.020      339.289       12.518      861.975
10/01/2014  00:13:00     -157.517      175.056      -44.496       56.330       62.654       30.997     3173.019     3925.480      960.803        3.275        0.403      235.492       33.500        0.020      339.303       12.540      861.963
10/01/2014  00:14:00     -164.046      138.320      -26.485       65.145       57.813       42.659     4243.809     3342.288     1819.748        2.807        0.470      214.578       40.009        0.035      339.369       12.652      861.947
10/01/2014  00:15:00     -204.471      187.842      -52.952       43.684       46.323       32.073     1908.274     2145.795     1028.706        4.249        0.254      277.657       23.955        0.007      339.328       12.580      861.942
10/01/2014  00:16:00     -181.142      198.754      -48.294       61.127       80.664       35.467     3736.512     6506.648     1257.877        4.307        0.575      268.915       39.211        0.021      339.260       12.467      861.945
10/01/2014  00:17:00     -132.790      141.904      -38.327       46.318       55.736       29.744     2145.367     3106.499      884.728        2.269        0.307      194.345       28.678        0.022      339.192       12.354      861.938
10/01/2014  00:18:00     -124.643      169.387      -24.883       69.146       86.147       44.922     4781.186     7421.273     2018.021        2.953        0.711      210.304       49.924        0.056      339.138       12.263      861.916
10/01/2014  00:19:00     -140.715      145.220      -31.484       71.149       73.977       36.622     5062.149     5472.554     1341.152        2.688        0.594      202.212       31.868        0.025      339.193       12.355      861.906
10/01/2014  00:20:00     -104.301      160.950      -21.394       62.479       61.233       43.314     3903.563     3749.423     1876.068        2.338        0.476      191.791       38.732        0.041      339.192       12.353      861.907
10/01/2014  00:21:00     -142.523      148.645      -24.347       88.378       83.832       48.843     7810.734     7027.750     2385.643        3.011        0.861      205.933       50.580        0.060      339.196       12.362      861.897
10/01/2014  00:22:00     -117.741      178.194      -28.645       78.088      104.212       50.442     6097.710    10860.199     2544.406        3.297        0.975      213.579       51.511        0.058      339.141       12.269      861.921
10/01/2014  00:23:00     -116.984      126.571      -33.838       49.798       87.504       37.861     2479.794     7656.994     1433.479        2.121        0.579      172.353       36.819        0.046      339.135       12.259      861.930
10/01/2014  00:24:00     -106.143      171.406      -24.815       54.124       71.267       42.369     2929.415     5078.993     1795.142        2.553        0.490      201.609       39.485        0.038      339.135       12.258      861.947
10/01/2014  00:25:00     -151.097      203.357      -38.040       88.639       75.235       48.923     7856.820     5660.232     2393.483        4.077        0.796      253.346       44.603        0.031      339.207       12.377      861.949
10/01/2014  00:26:00     -124.302      132.734      -21.918       69.346       77.394       42.597     4808.846     5989.801     1814.510        2.308        0.631      181.850       40.794        0.050      339.193       12.357      861.958
10/01/2014  00:27:00      -87.484      182.217      -27.786       66.262       89.097       41.134     4390.643     7938.211     1691.990        2.782        0.701      202.130       41.470        0.042      339.256       12.461      861.958
10/01/2014  00:28:00     -116.866      206.532      -26.152       61.465       59.477       38.983     3777.941     3537.565     1519.679        3.291        0.442      237.304       35.607        0.023      339.199       12.366      861.958
10/01/2014  00:29:00      -89.251      201.456      -23.831       61.140       70.462       40.370     3738.116     4964.832     1629.752        2.972        0.517      220.341       38.099        0.030      339.156       12.295      861.963
10/01/2014  00:30:00     -145.557      153.022      -33.789       73.294       57.246       38.243     5372.082     3277.051     1462.508        2.793        0.506      211.194       33.486        0.025      339.146       12.275      861.957
10/01/2014  00:31:00      -97.466      187.597      -25.311       51.879       56.623       39.670     2691.383     3206.208     1573.692        2.640        0.374      211.405       31.270        0.022      339.113       12.221      861.952
10/01/2014  00:32:00      -93.660      198.370      -22.933       47.962       67.084       41.004     2300.362     4500.197     1681.357        2.856        0.424      219.369       39.101        0.032      339.092       12.186      861.969
10/01/2014  00:33:00      -56.972      176.181      -19.188       42.272       73.588       28.709     1786.880     5415.253      824.203        2.134        0.401      185.163       29.044        0.025      339.132       12.254      861.972
10/01/2014  00:34:00      -38.469      161.449      -16.771       41.034       46.065       26.918     1683.813     2121.946      724.573        1.618        0.227      165.968       24.064        0.021      339.063       12.139      861.966
10/01/2014  00:35:00      -20.196      148.231      -26.683       41.882       56.723       25.558     1754.124     3217.472      653.189        1.436        0.281      149.601       20.925        0.020      339.053       12.122      861.968
10/01/2014  00:36:00      -24.295      141.649      -15.666       32.153       37.489       23.796     1033.806     1405.426      566.255        1.195        0.150      143.718       21.309        0.022      339.039       12.098      861.978
10/01/2014  00:37:00      -32.717      193.372      -22.371       39.904       51.497       23.538     1592.317     2651.963      554.055        2.188        0.240      196.120       28.891        0.022      338.974       11.989      861.967
10/01/2014  00:38:00       -9.473      168.009      -21.155       33.613       37.918       19.272     1129.803     1437.807      371.404        1.585        0.147      168.276        9.783        0.003      338.933       11.921      861.949
10/01/2014  00:39:00      -41.404      198.589      -21.730       35.591       49.509       22.450     1266.685     2451.125      504.002        2.292        0.211      202.860       20.642        0.010      338.959       11.963      861.934
10/01/2014  00:40:00      -38.772      252.417      -34.637       36.563       44.197       24.036     1336.823     1953.356      577.716        3.514        0.193      255.377       16.530        0.004      338.997       12.025      861.931
10/01/2014  00:41:00      -47.919      225.150      -28.897       42.696       51.901       31.166     1822.987     2693.672      971.323        2.966        0.274      230.193       20.050        0.008      338.969       11.978      861.937
10/01/2014  00:42:00      -69.253      126.226       -8.206       44.156       57.875       32.455     1949.782     3349.507     1053.303        1.357        0.318      143.976       30.341        0.044      338.966       11.976      861.940
10/01/2014  00:43:00      -24.249      148.475      -14.928       48.575       53.989       30.311     2359.564     2914.784      918.727        1.452        0.310      150.443       27.920        0.034      338.904       11.873      861.957
10/01/2014  00:44:00      -68.474      180.729      -21.931       39.416       63.351       31.227     1553.631     4013.332      975.102        2.219        0.327      193.266       26.698        0.019      339.020       12.065      861.981
10/01/2014  00:45:00      -38.578      128.704      -13.887       60.592       46.176       25.541     3671.373     2132.179      652.333        1.235        0.323      134.362       22.613        0.028      338.988       12.014      862.011
10/01/2014  00:46:00       -3.009      127.654       -4.786       55.673       44.242       31.539     3099.476     1957.338      994.723        1.119        0.303      127.689       25.965        0.041      339.015       12.058      862.038
10/01/2014  00:47:00       -1.568      106.136       -2.073       30.879       76.346       33.097      953.492     5828.671     1095.379        0.957        0.394      106.147       41.875        0.156      338.974       11.989      862.053
10/01/2014  00:48:00      -11.407      139.022       -5.475       44.792       53.837       28.409     2006.339     2898.411      807.091        1.260        0.286      139.489       27.417        0.039      339.037       12.096      862.064
10/01/2014  00:49:00      -25.138       63.595       -5.358       20.618       73.595       23.463      425.114     5416.261      550.523        0.555        0.320       68.383       33.896        0.246      339.020       12.066      862.085
10/01/2014  00:50:00      -36.181       82.163       -0.327       71.532       67.106       35.460     5116.799     4503.232     1257.408        0.947        0.544       89.776       31.109        0.120      339.027       12.079      862.112
10/01/2014  00:51:00      -12.077       86.005       -8.763       60.951       51.106       29.007     3714.997     2611.829      841.383        0.739        0.358       86.849       21.089        0.059      339.035       12.092      862.130
10/01/2014  00:52:00      -25.678       75.215        3.060       43.934       52.689       22.646     1930.234     2776.101      512.863        0.577        0.261       79.477       27.434        0.119      338.993       12.021      862.149
10/01/2014  00:53:00      -18.727      152.626      -23.366       50.665       60.724       24.181     2566.917     3687.438      584.719        1.551        0.342      153.771       25.854        0.028      339.065       12.142      862.151
10/01/2014  00:54:00      -51.120       77.112       -5.098       42.042       53.477       38.006     1767.524     2859.793     1444.429        0.733        0.304       92.518       33.132        0.128      339.052       12.121      862.140
10/01/2014  00:55:00      -51.351      137.505      -14.129       32.535       74.947       25.567     1058.514     5617.117      653.685        1.454        0.366      146.780       30.064        0.042      339.039       12.098      862.119
10/01/2014  00:56:00      -46.860       99.410      -20.579       31.952       56.903       23.621     1020.930     3237.916      557.929        0.866        0.241      109.901       19.362        0.031      339.073       12.156      862.097
10/01/2014  00:57:00      -12.992       77.485       -7.575       34.623       42.047       19.680     1198.736     1767.913      387.304        0.479        0.168       78.566       16.066        0.042      338.968       11.979      862.073
10/01/2014  00:58:00      -29.418      136.976      -20.591       40.016       51.149       20.575     1601.272     2616.255      423.328        1.235        0.232      140.099       23.951        0.029      339.050       12.119      862.071
10/01/2014  00:59:00      -44.266      186.108      -12.501       59.446       55.759       37.102     3533.866     3109.081     1376.533        2.238        0.401      191.300       30.999        0.026      338.980       11.999      862.080
10/01/2014  01:00:00       -3.921      124.166      -16.289       60.502       58.762       28.808     3660.492     3453.004      829.920        1.182        0.397      124.228       34.235        0.076      338.975       11.991      862.105
10/01/2014  01:01:00       11.467      131.837       -7.461       49.367       70.705       38.990     2437.088     4999.160     1520.200        1.326        0.448      132.335       39.134        0.087      338.947       11.945      862.136
10/01/2014  01:02:00       34.655      108.987        6.885       55.882       84.262       34.360     3122.758     7100.111     1180.612        1.226        0.570      114.364       42.616        0.139      338.885       11.840      862.169
10/01/2014  01:03:00       98.548       53.685       25.203       35.756       35.415       29.162     1278.468     1254.188      850.399        0.831        0.169      112.222       13.540        0.015      338.783       11.670      862.180
10/01/2014  01:04:00       55.330       42.772       20.765       36.775       28.153       20.927     1352.410      792.583      437.922        0.395        0.129       69.935       12.320        0.031      338.679       11.494      862.195
10/01/2014  01:05:00       56.554      -38.459        8.277       51.426       51.581       30.182     2644.627     2660.607      910.925        0.548        0.311       68.392       35.373        0.268      338.519       11.227      862.211
10/01/2014  01:06:00       48.883      -23.101       18.053       41.894       47.718       31.013     1755.080     2276.975      961.808        0.412        0.250       54.067       29.441        0.297      338.471       11.145      862.225
10/01/2014  01:07:00       55.402      -73.034        3.500       23.472       27.167       18.107      550.931      738.069      327.870        0.502        0.081       91.669       16.798        0.034      338.613       11.384      862.242
10/01/2014  01:08:00       29.002      -31.817        4.695       28.822       31.869       17.379      830.692     1015.646      302.023        0.201        0.107       43.052       18.995        0.195      338.557       11.289      862.262
10/01/2014  01:09:00       27.175      -11.521        1.346       17.330       24.777       17.775      300.329      613.912      315.957        0.105        0.062       29.517       11.779        0.159      338.497       11.188      862.289
10/01/2014  01:10:00       19.738       11.593        0.310       11.314       17.595       10.074      128.004      309.572      101.478        0.053        0.027       22.891        6.982        0.093      338.448       11.107      862.303
10/01/2014  01:11:00        6.018        5.373        7.495       12.073        6.366        6.894      145.750       40.525       47.533        0.018        0.012        8.067        4.148        0.264      338.445       11.101      862.294
10/01/2014  01:12:00        6.138       16.681        5.259       18.722       20.822       11.789      350.503      433.574      138.983        0.063        0.046       17.775       14.329        0.650      338.609       11.376      862.287
10/01/2014  01:13:00       31.720       21.448       10.039       10.055        9.488       13.723      101.100       90.025      188.333        0.097        0.019       38.291        5.748        0.023      338.582       11.331      862.285
10/01/2014  01:14:00       22.014      -24.137        4.883       22.485       26.355       23.196      505.585      694.572      538.063        0.141        0.087       32.668       16.236        0.247      338.521       11.230      862.288
10/01/2014  01:15:00       -4.566        2.638       24.466       10.922       17.598        6.863      119.284      309.702       47.098        0.055        0.024        5.274        4.671        0.784      338.492       11.180      862.288
10/01/2014  01:16:00        9.786       28.169       34.185       23.652       33.976       21.223      559.429     1154.348      450.418        0.211        0.108       29.821       21.629        0.526      338.501       11.193      862.299
10/01/2014  01:17:00       67.043       22.729       15.742       31.979       24.300       18.898     1022.645      590.488      357.147        0.361        0.099       70.791       10.362        0.021      338.552       11.281      862.311
10/01/2014  01:18:00       72.157       44.470       10.817       33.679       30.046       21.909     1134.251      902.756      479.990        0.491        0.126       84.760       20.576        0.059      338.565       11.303      862.313
10/01/2014  01:19:00       43.097       25.726        5.310       26.806       13.536       15.945      718.564      183.236      254.240        0.185        0.058       50.191        9.768        0.038      338.464       11.134      862.308
10/01/2014  01:20:00       17.881       57.744       -6.597       17.048       28.773       14.897      290.630      827.884      221.917        0.252        0.067       60.449       10.271        0.029      338.451       11.111      862.308
10/01/2014  01:21:00       25.871       86.396       -0.844       27.680       41.269       28.869      766.165     1703.166      833.427        0.572        0.165       90.186       27.381        0.092      338.533       11.250      862.307
10/01/2014  01:22:00       38.092      101.213      -12.355       28.036       54.288       24.516      785.997     2947.138      601.024        0.809        0.217      108.143       29.427        0.074      338.523       11.231      862.320
10/01/2014  01:23:00       14.955      110.423      -15.769       27.484       33.016       20.156      755.366     1090.046      406.258        0.746        0.113      111.431       17.821        0.026      338.550       11.278      862.327
10/01/2014  01:24:00       23.505      106.454       -2.442       32.360       37.758       27.644     1047.195     1425.696      764.170        0.756        0.162      109.018       25.652        0.055      338.517       11.222      862.331
10/01/2014  01:25:00       30.505      157.439      -12.963       43.504       60.025       38.437     1892.592     3603.059     1477.438        1.643        0.349      160.367       39.503        0.061      338.537       11.255      862.336
10/01/2014  01:26:00       30.449      101.153        2.684       40.494       40.166       37.419     1639.791     1613.270     1400.186        0.791        0.233      105.636       31.609        0.090      338.456       11.120      862.355
10/01/2014  01:27:00       44.340      144.464      -11.577       46.418       59.743       39.480     2154.660     3569.171     1558.700        1.513        0.364      151.116       40.258        0.071      338.530       11.244      862.376
10/01/2014  01:28:00       24.650      139.121       -6.924       39.658       64.082       38.607     1572.777     4106.480     1490.502        1.359        0.358      141.288       38.778        0.075      338.484       11.166      862.388
10/01/2014  01:29:00       27.741      188.120      -23.847       36.734       45.594       31.642     1349.409     2078.824     1001.204        2.058        0.221      190.154       29.726        0.024      338.516       11.221      862.390
10/01/2014  01:30:00       22.919      180.899      -24.254       33.731       33.764       21.965     1137.789     1140.013      482.461        1.830        0.138      182.345       15.074        0.007      338.531       11.244      862.385
10/01/2014  01:31:00       26.473      179.337      -23.040       30.453       36.345       21.730      927.412     1320.949      472.182        1.806        0.136      181.281       18.952        0.011      338.593       11.350      862.389
10/01/2014  01:32:00       23.403      133.396      -11.284       44.459       57.383       43.863     1976.640     3292.848     1923.973        1.283        0.360      135.434       41.540        0.094      338.561       11.295      862.398
10/01/2014  01:33:00       37.148      188.818      -28.098       28.687       41.378       26.392      822.957     1712.148      696.531        2.053        0.162      192.437       22.807        0.014      338.726       11.572      862.405
10/01/2014  01:34:00       33.384      160.813      -17.837       41.878       47.101       35.718     1753.764     2218.543     1275.775        1.627        0.262      164.242       29.846        0.033      338.746       11.606      862.412
10/01/2014  01:35:00       21.616      121.446       -5.634       29.810       45.867       33.671      888.616     2103.783     1133.703        0.969        0.206      123.355       29.361        0.057      338.670       11.480      862.423
10/01/2014  01:36:00       29.809      107.706       -8.557       41.316       42.388       30.347     1707.037     1796.742      920.917        0.849        0.221      111.755       22.599        0.041      338.764       11.636      862.443
10/01/2014  01:37:00       26.931       98.565       -2.053       42.049       63.614       38.833     1768.097     4046.720     1507.989        0.888        0.366      102.178       35.996        0.124      338.759       11.627      862.459
10/01/2014  01:38:00       40.274       75.746        6.089       46.119       53.402       39.923     2126.921     2851.802     1593.872        0.698        0.329       85.788       31.439        0.134      338.732       11.584      862.463
10/01/2014  01:39:00       56.770       55.758        3.873       44.997       38.565       34.062     2024.771     1487.279     1160.208        0.551        0.234       79.573       25.021        0.099      338.739       11.596      862.468
10/01/2014  01:40:00       25.028       50.178       -2.182       31.934       35.330       24.228     1019.802     1248.229      586.976        0.300        0.143       56.074       20.773        0.137      338.634       11.418      862.482
10/01/2014  01:41:00       52.362       31.119        6.712       22.060       18.344       19.697      486.643      336.506      387.982        0.248        0.061       60.911       10.255        0.028      338.635       11.422      862.491
10/01/2014  01:42:00       36.122       17.402        7.133       15.776       12.919       10.037      248.879      166.893      100.738        0.109        0.026       40.095        7.147        0.032      338.581       11.330      862.491
10/01/2014  01:43:00       34.506       15.774        6.081       11.265       13.172        8.492      126.906      173.498       72.120        0.092        0.019       37.940        6.354        0.028      338.548       11.273      862.492
10/01/2014  01:44:00       29.144       21.728        1.468        9.454        7.146        9.519       89.369       51.064       90.617        0.078        0.012       36.352        6.848        0.035      338.557       11.290      862.508
10/01/2014  01:45:00       46.658       16.789        4.270       16.837       13.068        9.830      283.500      170.769       96.624        0.151        0.028       49.587        9.124        0.034      338.528       11.240      862.527
10/01/2014  01:46:00       33.738       16.868       12.012       16.624       10.748       12.538      276.356      115.522      157.206        0.106        0.027       37.720        8.668        0.053      338.417       11.054      862.533
10/01/2014  01:47:00       54.233       20.339        7.954       11.091       14.543       12.595      123.004      211.502      158.636        0.196        0.025       57.922        4.256        0.005      338.532       11.248      862.536
10/01/2014  01:48:00       57.054       32.192        5.730       14.134       10.561       10.719      199.779      111.541      114.894        0.238        0.021       65.509        6.507        0.010      338.583       11.334      862.541
10/01/2014  01:49:00       55.692       32.996        6.443        9.583        6.579        7.944       91.831       43.284       63.103        0.222        0.010       64.733        5.769        0.008      338.509       11.209      862.550
10/01/2014  01:50:00       57.970       39.307        5.800       10.093       12.487       12.043      101.868      155.930      145.038        0.267        0.020       70.040        1.813        0.001      338.478       11.156      862.567
10/01/2014  01:51:00       52.018       37.526        0.944       18.565       17.696       14.468      344.651      313.160      209.310        0.249        0.043       64.141       12.459        0.038      338.411       11.043      862.581
10/01/2014  01:52:00       31.247       42.313        0.292       20.402       28.766       21.925      416.253      827.494      480.698        0.225        0.086       52.600       20.269        0.148      338.445       11.102      862.587
10/01/2014  01:53:00       33.761       82.523       -6.980       29.694       39.223       28.827      881.714     1538.461      830.984        0.562        0.163       89.162       25.771        0.084      338.473       11.149      862.585
10/01/2014  01:54:00       42.445       58.070       -4.763       29.814       30.482       22.208      888.878      929.126      493.207        0.375        0.116       71.928       21.205        0.087      338.463       11.132      862.583
10/01/2014  01:55:00       49.199       49.284        0.083       29.475       28.788       21.423      868.782      828.737      458.952        0.350        0.108       69.638       14.523        0.043      338.456       11.120      862.584
10/01/2014  01:56:00       47.027       25.719       12.489       25.268       19.225       22.823      638.492      369.583      520.892        0.228        0.076       53.600       14.008        0.068      338.486       11.171      862.579
10/01/2014  01:57:00       58.996       42.633        6.343       24.934       13.326       14.083      621.680      177.573      198.330        0.317        0.050       72.788        7.606        0.011      338.483       11.165      862.578
10/01/2014  01:58:00       57.679       40.253       -5.014       20.758       21.234       12.950      430.899      450.902      167.714        0.301        0.052       70.336       11.256        0.026      338.415       11.051      862.577
10/01/2014  01:59:00       40.545       31.673       -2.016       10.689       11.700        8.117      114.246      136.885       65.885        0.148        0.016       51.449        4.907        0.009      338.429       11.073      862.569
10/01/2014  02:00:00       38.177       41.533        2.755       17.296       19.917       12.527      299.159      396.682      156.916        0.202        0.043       56.414       11.967        0.045      338.484       11.167      862.557
10/01/2014  02:01:00       35.244       25.067        2.976       12.356       13.620       10.976      152.661      185.498      120.469        0.117        0.023       43.249        7.375        0.029      338.378       10.988      862.542
10/01/2014  02:02:00       51.868       28.137        2.572       11.892        8.560        6.811      141.428       73.273       46.396        0.187        0.013       59.008        5.215        0.008      338.359       10.956      862.534
10/01/2014  02:03:00       47.299       49.063        1.390       12.012       12.307        8.473      144.292      151.471       71.786        0.251        0.018       68.150        8.553        0.016      338.508       11.206      862.548
10/01/2014  02:04:00       35.563       86.166       -9.371       20.445       16.728       10.112      417.997      279.827      102.256        0.479        0.040       93.217        6.615        0.005      338.637       11.424      862.552
10/01/2014  02:05:00       42.004       73.560       -8.348       23.065       27.961       15.870      531.976      781.843      251.858        0.441        0.078       84.708       16.163        0.036      338.643       11.434      862.559
10/01/2014  02:06:00       16.677       81.518      -12.631       22.902       33.231       12.441      524.488     1104.300      154.784        0.443        0.089       83.206       14.408        0.030      338.611       11.379      862.571
10/01/2014  02:07:00       25.056      109.502       -8.876       23.507       35.513       19.677      552.563     1261.146      387.199        0.745        0.110      112.332       17.339        0.024      338.722       11.566      862.576
10/01/2014  02:08:00       34.547       42.916        2.156       20.464       28.697       21.137      418.774      823.518      446.789        0.236        0.084       55.093       20.356        0.137      338.582       11.330      862.581
10/01/2014  02:09:00       25.243       54.126       -7.828       13.264       17.851       10.775      175.927      318.660      116.095        0.212        0.031       59.723        8.819        0.022      338.587       11.341      862.598
10/01/2014  02:10:00       22.259       27.244       -1.601       11.716       15.393        9.696      137.265      236.936       94.005        0.085        0.023       35.181        8.403        0.057      338.624       11.401      862.598
10/01/2014  02:11:00        7.770       26.390       -1.963        8.728       15.825        7.153       76.181      250.423       51.167        0.057        0.019       27.510        5.910        0.046      338.611       11.380      862.594
10/01/2014  02:12:00       24.364       44.628       -1.582       14.099       10.493       12.500      198.794      110.095      156.262        0.153        0.023       50.846        6.433        0.016      338.606       11.371      862.595
10/01/2014  02:13:00       29.819       50.789       -9.757       23.390       14.438       13.418      547.099      208.457      180.038        0.225        0.047       58.895       11.613        0.039      338.709       11.544      862.596
10/01/2014  02:14:00       17.205       47.330       -4.364       12.973        9.284        7.383      168.309       86.198       54.509        0.143        0.015       50.360        4.522        0.008      338.661       11.463      862.595
10/01/2014  02:15:00       -0.902       57.434      -10.381        9.034       11.731        8.172       81.614      137.617       66.790        0.185        0.014       57.442        5.257        0.008      338.680       11.498      862.590
10/01/2014  02:16:00       -5.897       88.209       -8.769       12.890       13.464       12.816      166.140      181.288      164.255        0.420        0.026       88.406        9.352        0.011      338.704       11.537      862.566
10/01/2014  02:17:00      -26.234       35.625       -2.781       15.896       14.351       11.508      252.699      205.942      132.443        0.128        0.030       44.242        8.295        0.035      338.552       11.281      862.550
10/01/2014  02:18:00      -24.732       41.100       -7.258       10.392       15.305        6.383      107.993      234.240       40.743        0.137        0.019       47.968        4.439        0.009      338.576       11.323      862.532
10/01/2014  02:19:00      -14.892       -5.693       -3.572       13.551       10.363       11.078      183.631      107.401      122.716        0.034        0.021       15.943        6.293        0.156      338.262       10.792      862.531
10/01/2014  02:20:00      -20.668      -11.645       -6.085       13.587       12.704        8.709      184.607      161.398       75.840        0.051        0.021       23.723        4.547        0.037      338.143       10.594      862.527
10/01/2014  02:21:00      -40.585      -12.025      -10.611       17.535        8.555        6.900      307.482       73.192       47.607        0.117        0.021       42.329        8.209        0.038      338.128       10.567      862.530
10/01/2014  02:22:00      -56.446       -3.239      -13.771       26.048       19.445       13.565      678.520      378.108      184.006        0.231        0.062       56.539        5.141        0.008      337.970       10.304      862.529
10/01/2014  02:23:00      -92.398       13.691      -15.211       23.042       22.780       16.969      530.934      518.938      287.939        0.515        0.067       93.407       14.261        0.023      337.873       10.141      862.524
10/01/2014  02:24:00     -111.670       15.528      -18.967       20.105       13.033       14.699      404.200      169.853      216.050        0.693        0.040      112.745       11.488        0.010      337.774        9.974      862.511
10/01/2014  02:25:00      -62.506       36.171      -18.479       21.927       35.949       15.193      480.773     1292.341      230.825        0.378        0.100       72.218        9.019        0.016      337.995       10.345      862.495
10/01/2014  02:26:00      -47.827       45.444      -12.797       25.412       35.991       15.033      645.773     1295.340      226.000        0.334        0.108       65.974       11.169        0.029      338.166       10.632      862.497
10/01/2014  02:27:00      -61.348       33.828      -17.267       13.508       18.018       12.431      182.478      324.640      154.527        0.293        0.033       70.056        9.423        0.018      338.218       10.720      862.504
10/01/2014  02:28:00      -59.892       17.886      -10.117       17.726       21.934       14.127      314.215      481.086      199.577        0.250        0.050       62.506       10.651        0.029      338.036       10.415      862.509
10/01/2014  02:29:00      -74.493       -7.062       -9.857       20.484       22.628       14.325      419.601      512.009      205.219        0.342        0.057       74.827       13.187        0.031      337.791       10.004      862.516
10/01/2014  02:30:00      -53.815      -51.514       -6.514       19.483       22.934       17.537      379.597      525.947      307.537        0.340        0.061       74.497       13.526        0.033      337.703        9.855      862.518
10/01/2014  02:31:00      -72.637      -33.130      -10.414       29.702       19.052       15.343      882.191      362.993      235.393        0.398        0.074       79.835       18.212        0.052      337.686        9.829      862.515
10/01/2014  02:32:00      -88.746      -51.240       -2.969       21.477       18.555       14.224      461.268      344.281      202.311        0.576        0.050      102.477        5.405        0.003      337.714        9.874      862.508
10/01/2014  02:33:00     -100.717      -42.014      -12.770       13.097       21.857        9.310      171.529      477.718       86.670        0.640        0.037      109.129        8.057        0.005      337.685        9.827      862.494
10/01/2014  02:34:00     -103.287      -20.097       -6.636       17.071       16.465       16.361      291.424      271.086      267.678        0.597        0.042      105.224        7.611        0.005      337.687        9.829      862.487
10/01/2014  02:35:00      -89.493      -16.957      -10.038       26.008       16.430       12.955      676.432      269.951      167.825        0.476        0.056       91.085       13.575        0.022      337.650        9.769      862.481
10/01/2014  02:36:00      -96.030      -16.935      -10.220       20.586       15.428       12.970      423.783      238.028      168.220        0.522        0.042       97.512       11.115        0.013      337.623        9.722      862.465
10/01/2014  02:37:00     -104.626      -36.734       -9.616       13.501       15.360        7.901      182.287      235.942       62.427        0.643        0.024      110.887        1.981        0.000      337.600        9.684      862.455
10/01/2014  02:38:00      -82.421      -39.956       -5.016       17.602       22.707       13.521      309.834      515.619      182.826        0.471        0.050       91.595       11.024        0.014      337.491        9.501      862.462
10/01/2014  02:39:00      -77.835      -31.012       -2.211       17.082       17.247       12.817      291.797      297.471      164.281        0.389        0.038       83.786        8.281        0.010      337.574        9.640      862.472
10/01/2014  02:40:00      -78.057      -35.561      -16.774       21.812       15.344       15.407      475.753      235.431      237.361        0.429        0.047       85.776       11.602        0.018      337.583        9.654      862.490
10/01/2014  02:41:00      -96.307      -29.273      -19.998       13.567       11.993       10.863      184.063      143.828      118.007        0.549        0.022      100.658        5.284        0.003      337.483        9.487      862.509
10/01/2014  02:42:00      -67.733      -44.849      -16.352       22.443       20.881       17.630      503.675      436.012      310.815        0.406        0.063       81.235       14.428        0.032      337.454        9.437      862.515
10/01/2014  02:43:00      -38.739      -44.359       -8.965       24.773       28.126       17.141      613.718      791.091      293.802        0.262        0.085       58.893       11.612        0.039      337.468        9.462      862.513
10/01/2014  02:44:00      -67.872      -42.603      -17.033       20.894       19.818       19.411      436.554      392.742      376.779        0.396        0.060       80.135       13.985        0.030      337.458        9.445      862.510
10/01/2014  02:45:00      -54.782      -40.044       -8.175       29.401       20.790       18.316      864.431      432.213      335.466        0.315        0.082       67.857       13.344        0.039      337.420        9.382      862.499
10/01/2014  02:46:00      -72.297      -27.474      -16.033       20.533       25.658       13.911      421.588      658.357      193.513        0.376        0.064       77.341       12.006        0.024      337.461        9.449      862.490
10/01/2014  02:47:00      -80.935      -17.906      -12.541       26.415       24.836       15.934      697.772      616.834      253.901        0.430        0.078       82.892       13.819        0.028      337.453        9.437      862.490
10/01/2014  02:48:00      -79.933      -32.731      -10.943       31.192       25.918       17.261      972.941      671.721      297.929        0.476        0.097       86.374       14.587        0.029      337.510        9.532      862.501
10/01/2014  02:49:00      -37.984      -16.322        1.162       26.114       25.999       22.741      681.925      675.932      517.132        0.179        0.094       41.342       16.721        0.164      337.409        9.362      862.511
10/01/2014  02:50:00      -57.611      -30.087       -1.680       32.176       21.942       19.415     1035.303      481.457      376.961        0.306        0.095       64.994       18.067        0.077      337.422        9.384      862.506
10/01/2014  02:51:00      -98.515      -25.665       -9.115       33.420       26.082       16.445     1116.906      680.288      270.436        0.626        0.103      101.803       13.445        0.017      337.491        9.499      862.495
10/01/2014  02:52:00     -105.418      -22.692       -8.638       39.473       29.051       20.272     1558.154      843.980      410.972        0.726        0.141      107.832       19.251        0.032      337.460        9.449      862.472
10/01/2014  02:53:00      -74.021       -1.823        4.511       33.884       31.638       22.796     1148.132     1000.964      519.659        0.409        0.133       74.044       19.330        0.068      337.353        9.270      862.463
10/01/2014  02:54:00      -66.137      -28.330       -3.223       40.200       24.374       15.185     1616.045      594.092      230.575        0.381        0.122       71.949       12.044        0.028      337.396        9.341      862.461
10/01/2014  02:55:00      -57.647      -30.921       -6.170       26.960       28.582       16.934      726.863      816.943      286.750        0.307        0.092       65.416       14.584        0.050      337.399        9.346      862.461
10/01/2014  02:56:00      -76.650      -18.714      -11.928       25.609       27.546       18.238      655.823      758.792      332.625        0.406        0.087       78.901       11.878        0.023      337.466        9.460      862.460
10/01/2014  02:57:00      -82.033      -37.064       -1.331       27.805       31.246       19.964      773.108      976.335      398.567        0.513        0.107       90.018        9.565        0.011      337.455        9.441      862.475
10/01/2014  02:58:00      -68.240      -31.971       -7.865       33.062       23.817       20.386     1093.107      567.263      415.579        0.391        0.104       75.358       14.519        0.037      337.412        9.369      862.497
10/01/2014  02:59:00      -77.479      -37.527       -6.554       38.967       31.733       20.352     1518.411     1007.010      414.207        0.520        0.147       86.089        6.709        0.006      337.403        9.353      862.501
10/01/2014  03:00:00      -97.174       -6.787      -17.951       37.125       40.336       21.485     1378.288     1626.962      461.586        0.664        0.173       97.410       12.851        0.017      337.348        9.261      862.511
10/01/2014  03:01:00      -87.790      -12.031      -14.728       27.925       31.814       17.396      779.805     1012.160      302.612        0.508        0.105       88.611       12.610        0.020      337.416        9.373      862.528
10/01/2014  03:02:00      -57.040        6.516       -6.957       27.424       27.739       18.221      752.062      769.477      332.011        0.260        0.093       57.411       14.340        0.062      337.355        9.272      862.548
10/01/2014  03:03:00     -108.412       -3.975       -7.263       35.463       36.151       18.311     1257.593     1306.906      335.302        0.736        0.145      108.484       17.646        0.026      337.445        9.423      862.562
10/01/2014  03:04:00     -107.072       11.378      -14.408       31.580       28.251       19.912      997.305      798.099      396.477        0.700        0.110      107.675       14.433        0.018      337.430        9.396      862.564
10/01/2014  03:05:00      -86.701       15.394      -15.810       39.699       40.578       27.902     1575.986     1646.550      778.543        0.600        0.200       88.057       25.282        0.082      337.395        9.341      862.572
10/01/2014  03:06:00     -110.394       18.587      -22.948       34.731       40.224       20.029     1206.243     1617.950      401.181        0.814        0.161      111.947       16.606        0.022      337.457        9.444      862.571
10/01/2014  03:07:00      -82.552        0.199      -10.556       32.010       23.581       14.280     1024.631      556.074      203.924        0.436        0.089       82.552        9.874        0.014      337.334        9.237      862.567
10/01/2014  03:08:00      -43.841      -13.171       -4.423       25.379       17.813       16.291      644.093      317.310      265.390        0.167        0.061       45.777       12.294        0.072      337.293        9.171      862.572
10/01/2014  03:09:00      -39.242        3.712       -8.411       24.347       25.291       14.932      592.758      639.658      222.971        0.154        0.073       39.417       10.894        0.076      337.472        9.469      862.589
10/01/2014  03:10:00      -76.008       68.744      -16.361       30.324       42.964       20.798      919.566     1845.931      432.552        0.698        0.160      102.484       21.722        0.045      337.638        9.746      862.596
10/01/2014  03:11:00      -56.401       -2.820      -14.010       19.512       15.815       14.129      380.706      250.108      199.624        0.211        0.042       56.471        8.445        0.022      337.529        9.563      862.607
10/01/2014  03:12:00      -67.124       17.309      -13.337       16.664       24.029       14.527      277.674      577.397      211.047        0.302        0.053       69.320        7.209        0.011      337.574        9.640      862.613
10/01/2014  03:13:00      -43.877       16.844       -6.704       29.335       22.804       22.171      860.571      520.008      491.572        0.206        0.094       46.999       19.078        0.165      337.587        9.662      862.628
10/01/2014  03:14:00      -21.613        2.875       -1.219       11.485       17.970       14.433      131.901      322.922      208.324        0.057        0.033       21.803        8.997        0.170      337.606        9.692      862.639
10/01/2014  03:15:00      -26.486        0.287       -2.058       15.322       14.888       12.586      234.749      221.652      158.398        0.066        0.031       26.487       10.651        0.162      337.586        9.659      862.640
10/01/2014  03:16:00      -30.170        3.173       -8.271       25.537       19.860       12.407      652.132      394.436      153.924        0.109        0.060       30.337       11.572        0.146      337.600        9.682      862.648
10/01/2014  03:17:00      -10.821        2.377        3.704       10.431       17.403        8.132      108.815      302.882       66.131        0.031        0.024       11.079        5.168        0.218      337.456        9.441      862.649
10/01/2014  03:18:00       -8.905       -8.268       -2.018        9.310        8.116        7.175       86.670       65.872       51.479        0.018        0.010       12.151        4.594        0.143      337.517        9.545      862.658
10/01/2014  03:19:00       27.786       -2.970       -2.269       20.575       13.091       18.714      423.337      171.381      350.211        0.087        0.047       27.945       11.639        0.173      337.647        9.763      862.657
10/01/2014  03:20:00      -14.688       -3.654       -0.369       20.634       14.238       10.863      425.778      202.707      118.002        0.049        0.037       15.136       12.380        0.669      337.547        9.594      862.662
10/01/2014  03:21:00      -45.609      -20.835       -9.526       14.038        9.047        6.374      197.073       81.856       40.626        0.146        0.016       50.143        5.645        0.013      337.412        9.367      862.669
10/01/2014  03:22:00      -41.198      -12.296      -13.288       11.343       11.281        6.940      128.674      127.269       48.166        0.116        0.015       42.994        4.396        0.010      337.436        9.408      862.679
10/01/2014  03:23:00      -47.326      -14.550       -7.198       13.709       14.452        7.578      187.935      208.850       57.433        0.148        0.023       49.512        5.518        0.012      337.399        9.346      862.685
10/01/2014  03:24:00      -53.225      -18.474      -10.300       11.455       14.765        8.179      131.227      217.994       66.899        0.185        0.021       56.340        5.343        0.009      337.417        9.376      862.694
10/01/2014  03:25:00      -58.337      -16.643       -6.836       13.217       18.458       12.193      174.692      340.701      148.666        0.220        0.033       60.665       11.113        0.034      337.398        9.346      862.696
10/01/2014  03:26:00      -31.970       -8.786       -9.318       25.274       12.623        7.395      638.781      159.329       54.681        0.102        0.043       33.155        7.395        0.050      337.389        9.329      862.704
10/01/2014  03:27:00       -3.374        2.405       -6.916       21.222       12.650        8.188      450.394      160.016       67.040        0.037        0.034        4.143        8.723        4.433      337.476        9.476      862.712
10/01/2014  03:28:00       43.537       -3.273        0.844       13.087       13.550       16.271      171.265      183.591      264.743        0.126        0.031       43.660        8.788        0.041      337.737        9.912      862.703
10/01/2014  03:29:00       13.265       12.441        6.462       13.948       11.984       17.350      194.551      143.609      301.022        0.051        0.032       18.186        7.699        0.179      337.601        9.685      862.685
10/01/2014  03:30:00      -30.546      -11.497       -1.221       16.403       14.703        9.068      269.072      216.180       82.231        0.082        0.028       32.638        9.975        0.093      337.478        9.477      862.671
10/01/2014  03:31:00      -49.521      -15.295       -5.207        8.746       10.977        7.135       76.492      120.488       50.904        0.148        0.012       51.829        3.551        0.005      337.375        9.306      862.679
10/01/2014  03:32:00      -38.351      -20.224       -9.659        7.545        8.896        5.475       56.921       79.138       29.980        0.107        0.008       43.357        2.916        0.005      337.296        9.176      862.708
10/01/2014  03:33:00      -30.505      -16.637       -5.936       10.715        7.939        4.955      114.813       63.035       24.548        0.072        0.010       34.746        3.747        0.012      337.331        9.231      862.726
10/01/2014  03:34:00      -28.293      -17.185       -2.621       10.489        7.794        5.228      110.022       60.739       27.336        0.065        0.010       33.103        4.218        0.016      337.361        9.281      862.746
10/01/2014  03:35:00      -37.275      -14.496       -6.714       10.164        7.955        7.296      103.315       63.278       53.230        0.093        0.011       39.994        5.949        0.022      337.369        9.296      862.751
10/01/2014  03:36:00      -42.885      -10.840       -8.542        7.602        8.780        7.821       57.789       77.097       61.162        0.111        0.010       44.234        3.671        0.007      337.374        9.304      862.760
10/01/2014  03:37:00      -49.416       -8.510       -9.592       10.866        9.911        6.325      118.062       98.230       40.005        0.143        0.013       50.144        4.025        0.006      337.298        9.177      862.781
10/01/2014  03:38:00      -45.978      -12.990       -8.333        7.061        9.545        5.597       49.855       91.100       31.322        0.126        0.009       47.778        2.798        0.003      337.202        9.018      862.808
10/01/2014  03:39:00      -34.681      -15.768       -6.741       10.203       12.574        6.854      104.096      158.112       46.974        0.090        0.015       38.097        5.802        0.023      337.234        9.072      862.823
10/01/2014  03:40:00       -3.520      -20.319       -1.750       10.495        8.617        7.698      110.147       74.258       59.254        0.034        0.012       20.622        3.907        0.036      337.234        9.072      862.832
10/01/2014  03:41:00      -10.344      -16.594       -2.771       15.320       14.159        7.404      234.701      200.467       54.825        0.044        0.024       19.554        8.741        0.200      337.253        9.103      862.823
10/01/2014  03:42:00       -4.911       -3.574       -4.032        9.187        9.221        5.195       84.397       85.019       26.993        0.012        0.010        6.074        3.374        0.309      337.398        9.343      862.807
10/01/2014  03:43:00      -11.407      -21.208        0.899       14.442       10.050        8.975      208.584      101.005       80.552        0.049        0.020       24.081        5.881        0.060      337.388        9.327      862.795
10/01/2014  03:44:00      -25.899      -26.418       -5.568       10.252        9.247        7.771      105.111       85.515       60.394        0.083        0.013       36.996        3.485        0.009      337.287        9.160      862.790
10/01/2014  03:45:00      -55.614      -29.920       -5.307        9.912       10.069        7.338       98.245      101.375       53.841        0.213        0.013       63.152        4.572        0.005      337.175        8.971      862.787
10/01/2014  03:46:00      -51.429       -9.102       -8.567        9.144       15.808        9.261       83.610      249.898       85.768        0.161        0.021       52.228        4.362        0.007      337.181        8.984      862.789
10/01/2014  03:47:00      -58.448       -1.628      -10.354       12.770       12.489       11.805      163.077      155.969      139.357        0.199        0.023       58.471        7.898        0.018      337.235        9.073      862.793
10/01/2014  03:48:00      -54.176       -9.461       -8.369       13.123       10.458        9.550      172.221      109.375       91.199        0.173        0.019       54.996        7.670        0.019      337.169        8.961      862.795
10/01/2014  03:49:00      -71.706        0.018      -10.323       20.775        9.254        9.301      431.581       85.629       86.518        0.293        0.030       71.706       10.232        0.020      337.196        9.008      862.794
10/01/2014  03:50:00      -91.543        2.285      -13.626       17.986       10.255       12.032      323.489      105.160      144.773        0.457        0.029       91.571       10.893        0.014      337.126        8.889      862.794
10/01/2014  03:51:00      -42.100      -10.212      -10.105       22.957       13.313       10.677      527.030      177.237      114.008        0.140        0.041       43.320       12.219        0.080      337.165        8.956      862.801
10/01/2014  03:52:00      -52.159       -5.788       -8.372       21.148       13.326       10.007      447.258      177.595      100.141        0.177        0.036       52.479       11.225        0.046      337.126        8.889      862.823
10/01/2014  03:53:00      -29.588      -15.890       -5.353       16.667       13.751        9.202      277.790      189.082       84.670        0.085        0.028       33.585        8.382        0.062      337.114        8.871      862.855
10/01/2014  03:54:00      -48.514      -30.233      -12.396       12.647       16.429       11.125      159.942      269.900      123.771        0.199        0.028       57.164        3.757        0.004      337.151        8.931      862.878
10/01/2014  03:55:00       -9.060      -15.889        5.304       19.213       17.802       12.411      369.147      316.923      154.026        0.060        0.042       18.291       10.254        0.314      337.091        8.831      862.895
10/01/2014  03:56:00       -6.832      -16.069       -5.314       12.337        9.360       10.696      152.213       87.615      114.398        0.034        0.018       17.462        8.777        0.253      337.055        8.770      862.900
10/01/2014  03:57:00        9.516      -30.437       -5.729       14.172       10.992        6.622      200.835      120.831       43.848        0.071        0.018       31.890        6.609        0.043      337.199        9.014      862.895
10/01/2014  03:58:00       20.648      -23.509        1.463        6.309        7.665        6.916       39.809       58.745       47.830        0.056        0.007       31.289        3.449        0.012      337.323        9.220      862.891
10/01/2014  03:59:00        8.439      -46.697       -8.748       14.551       18.433       13.088      211.739      339.793      171.301        0.153        0.036       47.453        9.968        0.044      337.384        9.322      862.879
10/01/2014  04:00:00        1.364      -29.562       -2.438       33.811       17.495       15.390     1143.173      306.088      236.849        0.128        0.084       29.594        8.422        0.081      337.324        9.221      862.871
10/01/2014  04:01:00      -40.380       -9.125        2.667       23.239       12.747       11.103      540.058      162.477      123.275        0.127        0.041       41.399        8.506        0.042      337.265        9.122      862.860
10/01/2014  04:02:00       -7.014        0.262        0.478       13.319       10.934        9.355      177.404      119.546       87.516        0.022        0.019        7.019        6.421        0.837      337.146        8.924      862.863
10/01/2014  04:03:00      -34.590      -13.067       -6.918       10.457        9.400        7.176      109.351       88.351       51.492        0.083        0.012       36.975        5.274        0.020      337.189        8.998      862.875
10/01/2014  04:04:00      -58.165       -3.757       -7.466       10.955       12.540        7.748      120.004      157.256       60.027        0.190        0.017       58.286        4.439        0.006      337.229        9.063      862.884
10/01/2014  04:05:00      -54.978      -18.094       -8.718        8.859       11.817        8.700       78.482      139.630       75.694        0.186        0.015       57.879        6.189        0.011      337.256        9.108      862.890
10/01/2014  04:06:00      -19.488      -17.916       -0.603       19.387       13.828       10.166      375.849      191.223      103.349        0.069        0.034       26.472        6.459        0.060      337.196        9.007      862.897
10/01/2014  04:07:00      -39.530      -26.395       -0.810       20.861       22.164       13.496      435.168      491.261      182.151        0.168        0.055       47.532       12.383        0.068      337.176        8.974      862.900
10/01/2014  04:08:00      -79.846      -39.243        0.659       22.041       16.515       10.503      485.804      272.750      110.311        0.439        0.043       88.968        8.796        0.010      337.120        8.880      862.895
10/01/2014  04:09:00      -94.748      -29.189       -4.327       13.605       15.211       10.805      185.108      231.373      116.748        0.519        0.027       99.143        7.180        0.005      337.042        8.749      862.888
10/01/2014  04:10:00     -109.560      -35.690       -4.643       24.872       22.566       12.304      618.640      509.211      151.390        0.729        0.064      115.227       13.698        0.014      337.073        8.801      862.890
10/01/2014  04:11:00      -77.548      -37.966       -3.752       22.541       25.517       14.045      508.097      651.129      197.254        0.441        0.068       86.343        9.602        0.012      337.029        8.727      862.906
10/01/2014  04:12:00      -70.044      -20.167       -2.411       22.911       19.321       15.189      524.928      373.306      230.694        0.322        0.056       72.890       12.534        0.030      336.901        8.513      862.928
10/01/2014  04:13:00      -70.484      -21.402       -9.145       23.496       15.236        9.403      552.043      232.131       88.420        0.319        0.044       73.662        7.583        0.011      336.922        8.547      862.957
10/01/2014  04:14:00      -72.476      -19.364       -5.491       18.241       13.905       11.031      332.724      193.348      121.678        0.315        0.032       75.018        7.587        0.010      336.921        8.546      862.973
10/01/2014  04:15:00      -44.614      -16.466       -2.092       22.146       17.584       10.408      490.436      309.184      108.329        0.159        0.045       47.555        9.221        0.038      336.895        8.502      862.986
10/01/2014  04:16:00      -58.491      -21.190       -6.475       12.989       10.929        6.659      168.705      119.447       44.344        0.212        0.017       62.211        5.482        0.008      337.036        8.738      862.993
10/01/2014  04:17:00      -37.787      -32.253       -7.537       18.002       11.769       10.745      324.059      138.509      115.446        0.155        0.029       49.680       11.626        0.055      337.082        8.815      862.991
10/01/2014  04:18:00      -54.352      -19.165       -5.226        5.986        6.432        4.454       35.829       41.376       19.842        0.172        0.005       57.632        3.368        0.003      337.035        8.735      863.009
10/01/2014  04:19:00      -48.503       -9.739       -8.325        6.801        8.738        7.550       46.260       76.350       57.002        0.135        0.009       49.471        5.285        0.011      337.082        8.815      863.016
10/01/2014  04:20:00      -56.477       -4.810       -6.190       11.728       14.218        9.016      137.555      202.147       81.281        0.184        0.021       56.682        7.383        0.017      337.056        8.772      863.048
10/01/2014  04:21:00      -58.466      -10.006       -7.276       11.763       14.736       10.165      138.365      217.157      103.332        0.202        0.023       59.317        7.674        0.017      337.000        8.678      863.081
10/01/2014  04:22:00      -63.214       -1.440      -12.867        8.489        9.235        9.614       72.056       85.294       92.421        0.221        0.012       63.230        3.424        0.003      337.041        8.748      863.115
10/01/2014  04:23:00      -65.312      -23.556      -11.329       12.962       15.805       10.785      168.022      249.813      116.325        0.274        0.027       69.430        6.225        0.008      336.937        8.573      863.142
10/01/2014  04:24:00      -61.388      -33.202       -5.597       20.278       21.081       11.860      411.205      444.401      140.658        0.295        0.050       69.792        7.430        0.011      336.841        8.414      863.165
10/01/2014  04:25:00      -63.326      -24.695       -3.964       21.637       20.104       11.955      468.142      404.160      142.910        0.283        0.051       67.971       10.068        0.022      336.825        8.388      863.171
10/01/2014  04:26:00      -14.385      -31.104      -11.011       28.977       17.192       10.832      839.657      295.548      117.339        0.127        0.063       34.269        8.814        0.066      336.881        8.480      863.156
10/01/2014  04:27:00       13.623      -25.945      -12.265       13.632       12.801       10.369      185.823      163.870      107.517        0.073        0.023       29.304        3.747        0.016      336.816        8.373      863.135
10/01/2014  04:28:00      -19.294      -23.527       -2.522       21.876        8.628        9.345      478.576       74.439       87.321        0.079        0.032       30.427       11.320        0.138      336.778        8.309      863.104
10/01/2014  04:29:00      -56.820      -30.714       -8.331        8.681        7.801        7.240       75.355       60.848       52.419        0.221        0.009       64.590        2.617        0.002      336.859        8.443      863.091
10/01/2014  04:30:00      -48.382      -29.425       -8.512       12.020        9.589        8.867      144.492       91.950       78.621        0.180        0.016       56.628        5.531        0.010      336.963        8.615      863.097
10/01/2014  04:31:00      -64.099      -26.945       -6.644       12.604        9.376        8.242      158.867       87.916       67.927        0.260        0.016       69.533        6.692        0.009      337.006        8.688      863.115
10/01/2014  04:32:00      -55.553      -28.718       -7.235       11.142        9.112        6.659      124.151       83.025       44.344        0.211        0.013       62.537        3.651        0.003      337.031        8.731      863.142
10/01/2014  04:33:00      -54.827      -22.100       -8.112        8.660        9.412        5.045       75.001       88.585       25.448        0.187        0.009       59.113        3.810        0.004      337.027        8.722      863.163
10/01/2014  04:34:00      -63.717      -20.156      -11.543        8.860        8.025        6.182       78.500       64.393       38.212        0.239        0.009       66.829        1.755        0.001      336.959        8.609      863.175
10/01/2014  04:35:00      -66.026      -12.869       -9.209       12.945       10.150        8.576      167.575      103.022       73.554        0.248        0.017       67.268        7.701        0.013      336.903        8.517      863.182
10/01/2014  04:36:00      -70.130      -23.839      -11.889        8.021        9.718        7.543       64.330       94.443       56.898        0.292        0.011       74.071        5.413        0.005      336.902        8.515      863.198
10/01/2014  04:37:00      -75.083      -20.866      -12.298        7.796        8.364        7.329       60.780       69.951       53.714        0.320        0.009       77.928        3.892        0.002      336.878        8.476      863.202
10/01/2014  04:38:00      -61.095      -33.477       -6.177        8.943       14.702        8.037       79.969      216.157       64.591        0.263        0.018       69.666        5.285        0.006      336.942        8.580      863.193
10/01/2014  04:39:00      -74.488      -22.277      -10.383       10.675        9.431        7.108      113.959       88.945       50.518        0.320        0.013       77.748        4.048        0.003      336.994        8.667      863.174
10/01/2014  04:40:00      -53.198      -32.883       -6.515       15.700       13.153        8.484      246.501      172.993       71.975        0.222        0.025       62.541        5.765        0.008      336.985        8.653      863.155
10/01/2014  04:41:00      -55.221      -20.835      -11.860       11.198        9.569        6.374      125.399       91.572       40.631        0.194        0.013       59.021        4.018        0.005      336.992        8.663      863.140
10/01/2014  04:42:00      -61.668      -29.823       -6.305       10.433       11.361       11.320      108.855      129.069      128.146        0.255        0.018       68.501        6.207        0.008      336.978        8.641      863.128
10/01/2014  04:43:00      -44.532      -32.334        0.342       21.238       15.333       14.414      451.050      235.113      207.763        0.196        0.045       55.033       13.484        0.060      336.853        8.434      863.127
10/01/2014  04:44:00      -54.993      -24.421       -2.847       22.401       15.194       13.348      501.799      230.853      178.174        0.227        0.046       60.172        6.271        0.011      336.735        8.237      863.119
10/01/2014  04:45:00      -48.402      -12.836       -3.271       14.757       13.451       10.013      217.759      180.923      100.258        0.151        0.025       50.075        5.436        0.012      336.711        8.199      863.122
10/01/2014  04:46:00      -39.265      -23.141       -3.718       15.532       12.449        6.569      241.251      154.979       43.158        0.127        0.022       45.576        5.780        0.016      336.750        8.263      863.120
10/01/2014  04:47:00      -17.607      -16.919        5.739       20.688       10.186       12.029      427.983      103.764      144.697        0.065        0.034       24.419       12.640        0.268      336.691        8.164      863.133
10/01/2014  04:48:00      -60.206      -26.556      -12.047       22.267       13.921        9.932      495.804      193.805       98.644        0.263        0.039       65.803        9.616        0.021      336.695        8.170      863.151
10/01/2014  04:49:00      -94.563      -23.775      -11.602       19.296       16.516       12.462      372.349      272.777      155.309        0.522        0.040       97.505       11.332        0.014      336.688        8.160      863.167
10/01/2014  04:50:00     -105.677      -17.870      -10.872       19.183       18.373       14.269      367.984      337.583      203.593        0.626        0.045      107.177       11.958        0.012      336.563        7.950      863.178
10/01/2014  04:51:00      -93.866      -34.894       -0.659       22.470       19.533       14.047      504.882      381.526      197.318        0.556        0.054      100.142       11.728        0.014      336.473        7.799      863.201
10/01/2014  04:52:00      -46.345      -31.180        4.240       35.118       20.522       16.419     1233.248      421.162      269.569        0.253        0.096       55.858       15.923        0.081      336.498        7.841      863.221
10/01/2014  04:53:00      -66.575      -37.620        0.743       41.012       31.555       19.045     1681.972      995.710      362.708        0.444        0.152       76.469       23.007        0.091      336.478        7.807      863.240
10/01/2014  04:54:00     -106.165      -52.185       -8.253       27.844       21.357       12.518      775.305      456.139      156.712        0.773        0.069      118.297        2.018        0.000      336.445        7.751      863.263
10/01/2014  04:55:00     -120.327      -42.733      -13.926       10.297       14.408       11.749      106.020      207.593      138.040        0.848        0.023      127.690        8.594        0.005      336.428        7.722      863.286
10/01/2014  04:56:00      -83.795      -52.149      -10.551       27.348       17.958       14.285      747.930      322.489      204.050        0.556        0.064       98.697       13.169        0.018      336.415        7.702      863.313
10/01/2014  04:57:00      -80.395      -45.576       -7.687       23.962       21.381       17.647      574.154      457.143      311.408        0.497        0.067       92.415       16.045        0.030      336.397        7.672      863.327
10/01/2014  04:58:00      -59.590      -36.857       -0.477       25.779       17.139       17.467      664.551      293.762      305.090        0.309        0.063       70.067       14.369        0.042      336.398        7.674      863.324
10/01/2014  04:59:00      -92.141      -45.171       -9.053       16.607       13.303       12.241      275.790      176.970      149.841        0.561        0.030      102.618        7.187        0.005      336.345        7.584      863.304
10/01/2014  05:00:00      -89.057      -44.716       -9.332       21.496       17.098       12.895      462.063      292.358      166.275        0.547        0.046       99.653       12.737        0.016      336.331        7.561      863.295
10/01/2014  05:01:00      -58.126      -30.420       -1.553       33.657       17.607       14.364     1132.778      310.020      206.331        0.298        0.082       65.604       14.962        0.052      336.336        7.569      863.283
10/01/2014  05:02:00      -55.781      -53.951       -6.655       25.048       18.563       13.169      627.397      344.579      173.411        0.361        0.057       77.603       12.470        0.026      336.438        7.742      863.273
10/01/2014  05:03:00      -35.532      -32.128        2.937       31.757       27.970       19.065     1008.529      782.320      363.485        0.223        0.108       47.904       20.704        0.187      336.399        7.674      863.272
10/01/2014  05:04:00      -32.954      -26.214        3.198       26.220       16.007       17.739      687.482      256.220      314.659        0.152        0.063       42.109       17.417        0.171      336.351        7.593      863.287
10/01/2014  05:05:00      -25.424      -25.882        1.092       28.681       13.776       11.065      822.617      189.776      122.434        0.123        0.057       36.281       11.499        0.100      336.413        7.697      863.287
10/01/2014  05:06:00      -37.157      -22.794       -2.400       28.447       16.887       16.665      809.240      285.185      277.714        0.164        0.069       43.592       12.805        0.086      336.458        7.774      863.289
10/01/2014  05:07:00      -67.810      -26.497      -12.986        9.134       12.530        9.758       83.435      156.997       95.210        0.290        0.017       72.803        5.529        0.006      336.429        7.724      863.295
10/01/2014  05:08:00      -56.805      -25.430      -13.528       12.180       10.068        9.304      148.341      101.355       86.560        0.220        0.017       62.237        6.014        0.009      336.401        7.676      863.298
10/01/2014  05:09:00      -22.950      -20.600       -7.645       20.197        9.241        6.169      407.903       85.396       38.061        0.077        0.027       30.840        6.037        0.038      336.415        7.700      863.294
10/01/2014  05:10:00      -35.728      -15.301       -1.695        7.518       10.359        8.599       56.517      107.301       73.939        0.088        0.012       38.867        6.267        0.026      336.464        7.785      863.285
10/01/2014  05:11:00      -47.547      -16.293       -1.130       15.657        9.629        9.269      245.146       92.709       85.908        0.148        0.021       50.261        6.508        0.017      336.552        7.932      863.263
10/01/2014  05:12:00      -71.910      -12.093      -10.842        9.659        9.324        6.683       93.306       86.942       44.663        0.283        0.011       72.919        3.509        0.002      336.505        7.851      863.268
10/01/2014  05:13:00      -57.365      -24.852       -8.276        9.758       12.154        6.833       95.224      147.721       46.695        0.213        0.014       62.517        4.112        0.004      336.457        7.771      863.279
10/01/2014  05:14:00      -61.512      -14.694      -11.901        8.177        9.164        7.005       66.864       83.981       49.074        0.217        0.010       63.242        4.413        0.005      336.397        7.672      863.296
10/01/2014  05:15:00      -71.064      -13.310      -10.369       14.948       10.070        8.012      223.436      101.410       64.187        0.286        0.019       72.300        3.730        0.003      336.419        7.707      863.307
10/01/2014  05:16:00      -79.664      -19.454      -10.726       10.138       12.641       10.036      102.776      159.798      100.716        0.360        0.018       82.005        6.334        0.006      336.417        7.704      863.316
10/01/2014  05:17:00      -76.681      -34.710      -11.576       10.874       13.532       11.348      118.236      183.125      128.772        0.382        0.022       84.171        4.360        0.003      336.390        7.660      863.315
10/01/2014  05:18:00      -78.502      -44.897      -10.952       13.182       15.352       14.114      173.764      235.681      199.205        0.445        0.030       90.434        7.474        0.007      336.296        7.503      863.315
10/01/2014  05:19:00      -76.360      -27.413       -6.500       19.783       15.296       12.998      391.352      233.957      168.946        0.371        0.040       81.132       10.095        0.015      336.307        7.521      863.320
10/01/2014  05:20:00      -79.165      -19.339       -9.320       20.519       16.992       11.788      421.019      288.726      138.957        0.379        0.042       81.493        7.747        0.009      336.258        7.439      863.329
10/01/2014  05:21:00      -91.650      -13.036       -9.464       15.087       16.566       10.364      227.624      274.420      107.423        0.463        0.030       92.573        6.808        0.005      336.229        7.390      863.351
10/01/2014  05:22:00      -93.078      -17.114      -16.973       16.973       18.103       11.903      288.095      327.729      141.674        0.500        0.038       94.638        5.546        0.003      336.180        7.309      863.374
10/01/2014  05:23:00      -84.559      -26.805      -13.367       15.211       11.746       10.657      231.368      137.959      113.565        0.427        0.024       88.706        5.314        0.004      336.182        7.313      863.393
10/01/2014  05:24:00      -88.934      -23.704      -10.326       18.508       25.845       14.213      342.563      667.974      202.022        0.489        0.061       92.039       10.245        0.012      336.220        7.374      863.401
10/01/2014  05:25:00      -97.294      -45.564       -7.735       22.119       22.103       11.831      489.234      488.557      139.979        0.636        0.056      107.435        7.909        0.005      336.207        7.354      863.414
10/01/2014  05:26:00      -84.841      -44.403       -2.113       25.653       23.518       15.152      658.079      553.086      229.595        0.531        0.072       95.758       11.703        0.015      336.103        7.179      863.431
10/01/2014  05:27:00      -78.388      -26.171       -8.659       30.430       20.899       16.385      925.974      436.788      268.476        0.427        0.082       82.642       15.581        0.036      336.140        7.241      863.442
10/01/2014  05:28:00     -114.740      -32.384      -10.629       24.792       23.168       13.705      614.660      536.752      187.839        0.783        0.067      119.223       13.568        0.013      336.100        7.175      863.451
10/01/2014  05:29:00      -44.941      -23.361        5.433       19.530       24.598       12.674      381.409      605.064      160.623        0.187        0.057       50.650        8.736        0.030      336.134        7.233      863.458
10/01/2014  05:30:00      -63.642      -23.542       -9.785       16.448       17.556       11.332      270.525      308.202      128.405        0.270        0.035       67.857        5.047        0.006      336.164        7.282      863.477
10/01/2014  05:31:00      -44.314      -13.550       -2.213       28.627       17.214       12.106      819.525      296.316      146.549        0.171        0.063       46.340       13.376        0.083      336.118        7.204      863.490
10/01/2014  05:32:00      -57.759      -19.688       -2.020       19.324       19.297       12.524      373.413      372.380      156.843        0.232        0.045       61.022        8.213        0.018      336.135        7.235      863.502
10/01/2014  05:33:00      -36.012      -19.059       -8.118       20.005       14.541        9.606      400.216      211.432       92.266        0.121        0.035       40.745        8.287        0.041      336.139        7.238      863.502
10/01/2014  05:34:00      -47.076      -24.616       -6.038       23.384       14.710        9.156      546.788      216.390       83.828        0.185        0.042       53.123        7.096        0.018      336.190        7.326      863.504
10/01/2014  05:35:00      -58.166      -11.998      -10.342       22.451       15.016       14.417      504.041      225.477      207.841        0.229        0.047       59.390        9.819        0.027      336.126        7.216      863.493
10/01/2014  05:36:00      -53.364      -23.202      -14.641       14.977       13.382       12.184      224.302      179.076      148.448        0.208        0.028       58.190        7.762        0.018      336.138        7.239      863.485
10/01/2014  05:37:00      -62.125      -16.726      -13.036       15.497       13.381       10.883      240.147      179.048      118.429        0.242        0.027       64.338        5.630        0.008      336.224        7.381      863.491
10/01/2014  05:38:00      -72.857       -6.580      -12.075       12.594        9.227       10.845      158.615       85.139      117.609        0.293        0.018       73.154        2.821        0.001      336.194        7.331      863.498
10/01/2014  05:39:00      -45.542      -10.350       -3.380       24.986       13.785       15.946      624.289      190.029      254.263        0.163        0.053       46.703       16.355        0.123      336.192        7.329      863.487
10/01/2014  05:40:00      -71.893      -11.148      -10.662       14.523       13.328        8.901      210.905      177.632       79.232        0.294        0.023       72.753        4.258        0.003      336.186        7.318      863.480
10/01/2014  05:41:00      -55.079       -1.390      -11.417       26.751        6.057        5.728      715.591       36.693       32.809        0.198        0.039       55.097        1.680        0.001      336.292        7.497      863.479
10/01/2014  05:42:00        7.241       -7.613       -3.335       18.366       11.176        9.506      337.328      124.911       90.373        0.034        0.028       10.507        3.970        0.143      336.431        7.729      863.482
10/01/2014  05:43:00       13.610        8.766        7.273       10.895       13.972       10.923      118.697      195.227      119.315        0.037        0.022       16.189        9.202        0.323      336.396        7.670      863.486
10/01/2014  05:44:00       25.315       30.231       -0.140        8.062       10.211        9.744       64.992      104.272       94.941        0.091        0.013       39.430        6.864        0.030      336.297        7.504      863.496
10/01/2014  05:45:00        6.564       69.378       -7.388       10.100       25.718        5.775      102.001      661.432       33.348        0.285        0.040       69.688        6.239        0.008      336.285        7.485      863.501
10/01/2014  05:46:00        2.345       89.672      -10.726        5.445       10.919        4.427       29.646      119.233       19.601        0.417        0.008       89.703        2.405        0.001      336.386        7.655      863.490
10/01/2014  05:47:00       -5.842      100.467       -7.526       18.940       23.550       14.864      358.712      554.584      220.949        0.566        0.057      100.636       14.153        0.020      336.437        7.738      863.464
10/01/2014  05:48:00        7.871       87.412       -6.001       14.235       20.137        9.447      202.643      405.503       89.251        0.422        0.035       87.766        5.749        0.004      336.434        7.732      863.437
10/01/2014  05:49:00       20.565       66.704       -7.302       14.397       15.033        9.103      207.263      225.982       82.866        0.272        0.026       69.802        6.139        0.008      336.297        7.504      863.422
10/01/2014  05:50:00       26.490       71.455      -10.677       12.807       13.507       10.111      164.027      182.444      102.232        0.319        0.022       76.207        7.954        0.011      336.316        7.537      863.413
10/01/2014  05:51:00       19.469       36.423       -2.983       10.644       17.203       10.981      113.305      295.933      120.585        0.112        0.026       41.300        9.623        0.054      336.224        7.381      863.404
10/01/2014  05:52:00       22.343       22.469        0.661       12.025       13.651       12.677      144.611      186.345      160.717        0.075        0.025       31.687        9.794        0.096      336.156        7.266      863.399
10/01/2014  05:53:00       38.676       29.109        6.420       13.809        8.594        9.362      190.692       73.852       87.652        0.137        0.018       48.407        5.574        0.013      336.277        7.471      863.403
10/01/2014  05:54:00       27.679       25.230       -2.939       11.512       10.671        9.973      132.515      113.878       99.461        0.088        0.017       37.452        7.123        0.036      336.297        7.503      863.398
10/01/2014  05:55:00       13.851       24.958       -0.918        9.212       11.326        8.880       84.855      128.285       78.848        0.055        0.015       28.544        7.716        0.073      336.355        7.600      863.386
10/01/2014  05:56:00       19.231       11.975        0.988       12.660        8.637        5.719      160.284       74.602       32.705        0.039        0.013       22.654        4.592        0.041      336.378        7.639      863.381
10/01/2014  05:57:00       36.162       26.480        9.978        8.182       10.714        6.554       66.953      114.791       42.955        0.117        0.011       44.820        5.951        0.018      336.493        7.833      863.385
10/01/2014  05:58:00       15.875        4.701        6.005       14.151       12.451        8.001      200.246      155.019       64.023        0.036        0.021       16.557        7.836        0.224      336.448        7.757      863.402
10/01/2014  05:59:00        5.229        9.593       12.672       11.898        7.332        6.552      141.557       53.762       42.931        0.026        0.012       10.926        2.656        0.059      336.416        7.703      863.395
10/01/2014  06:00:00        3.682        4.013       15.844       10.480        5.887        5.282      109.833       34.652       27.899        0.023        0.009        5.446        3.289        0.365      336.252        7.429      863.411
10/01/2014  06:01:00      -12.608        2.875       15.254       11.214        9.154        6.027      125.761       83.801       36.330        0.032        0.012       12.931        4.521        0.122      336.268        7.457      863.441
10/01/2014  06:02:00      -13.198        1.129       -4.433       10.074        7.672        5.146      101.480       58.857       26.482        0.019        0.009       13.247        2.504        0.036      336.171        7.291      863.452
10/01/2014  06:03:00       -3.623       21.012        7.830       17.009       16.978       11.951      289.306      288.266      142.830        0.062        0.036       21.322        7.412        0.121      336.320        7.543      863.455
10/01/2014  06:04:00       23.964       17.612        8.009       11.659       12.917       10.997      135.938      166.843      120.944        0.069        0.021       29.739        9.347        0.099      336.422        7.713      863.462
10/01/2014  06:05:00       54.317       38.933        5.042       15.094       16.652       19.612      227.841      277.303      384.631        0.269        0.044       66.829        6.980        0.011      336.456        7.771      863.470
10/01/2014  06:06:00       47.608       26.791       -1.937       12.942        9.223       11.421      167.495       85.070      130.432        0.169        0.019       54.628        6.867        0.016      336.483        7.815      863.485
10/01/2014  06:07:00       30.719       28.741        5.230        9.724        9.457        8.544       94.548       89.427       72.999        0.103        0.013       42.068        5.391        0.016      336.469        7.792      863.481
10/01/2014  06:08:00       14.161       25.359       -0.531       13.622       11.914        7.420      185.564      141.951       55.054        0.061        0.019       29.045        5.703        0.039      336.424        7.716      863.478
10/01/2014  06:09:00        9.300       38.893       -4.808        7.267        8.159        3.604       52.813       66.570       12.992        0.088        0.007       39.989        2.696        0.005      336.424        7.717      863.478
10/01/2014  06:10:00       10.934       38.785       -1.033        8.292       19.707        9.157       68.758      388.365       83.856        0.108        0.027       40.296       10.109        0.063      336.428        7.723      863.494
10/01/2014  06:11:00       18.874       20.138        5.173       11.807        8.016        6.458      139.397       64.263       41.711        0.052        0.012       27.599        5.144        0.035      336.372        7.631      863.521
10/01/2014  06:12:00        8.329       24.241       -1.903        7.705       11.163        4.990       59.362      124.604       24.903        0.043        0.010       25.632        5.415        0.045      336.397        7.672      863.550
10/01/2014  06:13:00       -1.213       -2.624        5.412       13.782       12.008        9.126      189.955      144.193       83.290        0.023        0.021        2.891        7.796        7.271      336.223        7.381      863.570
10/01/2014  06:14:00      -18.533      -17.264       -0.250       19.966       13.116       12.839      398.655      172.039      164.829        0.069        0.037       25.328        9.409        0.138      336.086        7.152      863.592
10/01/2014  06:15:00      -46.120      -10.702      -13.542       15.712        8.948       11.438      246.854       80.064      130.839        0.144        0.023       47.345        5.707        0.015      335.942        6.911      863.613
10/01/2014  06:16:00      -32.575      -19.960       -6.561       16.153       12.826       13.817      260.929      164.499      190.920        0.106        0.031       38.204       10.232        0.072      335.930        6.893      863.635
10/01/2014  06:17:00      -45.782      -13.922       -4.790       12.422       10.768        9.460      154.312      115.958       89.490        0.134        0.018       47.852        6.381        0.018      335.929        6.891      863.638
10/01/2014  06:18:00      -67.973      -18.564       -4.947       11.935       17.333       14.580      142.439      300.417      212.590        0.282        0.033       70.462        8.395        0.014      335.903        6.847      863.639
10/01/2014  06:19:00      -81.339      -23.765      -14.065        9.513       10.437        5.985       90.505      108.935       35.825        0.381        0.012       84.739        2.922        0.001      335.862        6.781      863.640
10/01/2014  06:20:00      -59.067      -31.909       -7.998       22.737       14.178       13.061      516.992      201.024      170.591        0.273        0.044       67.135       10.644        0.025      335.861        6.776      863.641
10/01/2014  06:21:00      -66.720      -36.626       -4.988       14.601       16.247        9.893      213.191      263.951       97.880        0.320        0.029       76.112        7.926        0.011      335.920        6.874      863.655
10/01/2014  06:22:00      -54.580      -42.199       -5.651        9.891       10.354        8.714       97.828      107.205       75.926        0.254        0.014       68.991        5.761        0.007      335.940        6.908      863.671
10/01/2014  06:23:00      -72.085      -48.479      -11.562       22.193       11.601        9.536      492.541      134.582       90.935        0.420        0.036       86.871        8.948        0.011      335.947        6.919      863.675
10/01/2014  06:24:00      -94.418      -32.143      -20.157        9.898       12.025       10.406       97.979      144.608      108.292        0.535        0.018       99.739        6.616        0.004      335.924        6.880      863.688
10/01/2014  06:25:00     -104.871      -24.976      -19.330       10.567       14.306        8.622      111.659      204.661       74.347        0.619        0.020      107.804        7.074        0.004      335.784        6.650      863.709
10/01/2014  06:26:00      -96.535      -18.046      -15.511       13.306       18.206       12.824      177.045      331.444      164.459        0.528        0.034       98.207        9.435        0.009      335.654        6.431      863.735
10/01/2014  06:27:00      -94.852      -20.589       -9.880       18.717       17.175       11.602      350.329      294.996      134.613        0.515        0.039       97.061       10.177        0.011      335.612        6.362      863.749
10/01/2014  06:28:00      -74.775      -15.788       -6.329       19.870       25.502       14.347      394.812      650.366      205.832        0.357        0.063       76.423       10.779        0.020      335.620        6.375      863.774
10/01/2014  06:29:00      -88.579       -9.879       -9.021       23.372       18.186       12.113      546.242      330.735      146.720        0.452        0.051       89.128       10.648        0.014      335.580        6.308      863.797
10/01/2014  06:30:00      -66.730        4.481       -5.283       23.316       13.103       12.396      543.641      171.683      153.671        0.268        0.043       66.880       10.165        0.023      335.496        6.170      863.830
10/01/2014  06:31:00      -27.808       -1.109       -9.209       12.204       11.275        8.111      148.939      127.121       65.796        0.060        0.017       27.830        6.389        0.053      335.615        6.368      863.865
10/01/2014  06:32:00       -4.881        7.930       -1.022       10.993       17.691        7.327      120.848      312.967       53.678        0.029        0.024        9.312        6.164        0.438      335.886        6.818      863.905
10/01/2014  06:33:00        7.037       16.710        3.971        7.232        7.443        7.253       52.309       55.403       52.607        0.025        0.008       18.131        5.981        0.109      336.115        7.198      863.927
10/01/2014  06:34:00       -3.862       33.744       -4.451        6.715        7.402        3.382       45.098       54.792       11.437        0.064        0.006       33.965        2.818        0.007      336.227        7.388      863.931
10/01/2014  06:35:00       -2.997       55.980       -8.651        9.057       12.671        8.566       82.036      160.550       73.369        0.177        0.016       56.060        4.991        0.008      336.317        7.538      863.932
10/01/2014  06:36:00       -5.015       44.487       -4.166       14.681       15.335        8.602      215.544      235.150       73.996        0.127        0.026       44.769        5.804        0.017      336.228        7.389      863.937
10/01/2014  06:37:00       -9.371       34.193       -1.603       19.088       19.092       10.365      364.347      364.512      107.426        0.105        0.042       35.453        6.403        0.033      336.222        7.380      863.934
10/01/2014  06:38:00      -15.662       17.762       -4.577       14.433       10.027        9.189      208.310      100.539       84.431        0.049        0.020       23.681        7.371        0.097      336.165        7.283      863.933
10/01/2014  06:39:00      -23.515        0.865       -6.341       10.687       12.386        6.519      114.210      153.420       42.494        0.045        0.016       23.531        5.900        0.063      336.002        7.013      863.946
10/01/2014  06:40:00      -11.740        8.633       -3.809        7.588        8.388        6.238       57.577       70.367       38.914        0.020        0.008       14.573        5.082        0.122      336.150        7.258      863.972
10/01/2014  06:41:00       -6.514       -0.804        5.923       15.967        9.765       10.871      254.944       95.364      118.178        0.027        0.023        6.564        8.576        1.707      336.157        7.268      863.989
10/01/2014  06:42:00      -37.352      -12.084       -9.487       17.343        7.609        6.902      300.766       57.902       47.633        0.102        0.020       39.258        7.368        0.035      335.829        6.724      864.001
10/01/2014  06:43:00       -3.647       -6.607       -1.456       10.445       12.135        5.568      109.091      147.251       31.007        0.017        0.014        7.547        6.804        0.813      336.174        7.299      864.016
10/01/2014  06:44:00      -24.664      -24.613        8.495       10.843        9.336       10.470      117.568       87.158      109.618        0.080        0.016       34.844        6.459        0.034      336.096        7.168      864.030
10/01/2014  06:45:00      -23.160      -15.001       -6.574       10.823        6.771        8.200      117.139       45.849       67.233        0.052        0.012       27.594        5.429        0.039      335.939        6.906      864.032
10/01/2014  06:46:00      -40.690      -24.770       -5.024       11.101        8.410        9.432      123.236       70.729       88.966        0.129        0.014       47.636        6.992        0.022      335.891        6.825      864.029
10/01/2014  06:47:00      -74.788      -19.503      -10.545       15.571        8.984        9.367      242.442       80.718       87.740        0.325        0.021       77.289        8.626        0.012      335.892        6.828      864.020
10/01/2014  06:48:00      -93.619      -24.326      -19.110       12.747       12.421        8.625      162.493      154.270       74.385        0.506        0.020       96.727        5.571        0.003      335.820        6.709      864.012
10/01/2014  06:49:00      -80.449      -19.064      -17.424       17.882       16.782       12.096      319.750      281.626      146.309        0.394        0.037       82.677        7.462        0.008      335.726        6.553      864.023
10/01/2014  06:50:00      -49.696       -9.577       -7.273       25.551       14.044        9.203      652.874      197.226       84.693        0.177        0.047       50.610       10.972        0.047      335.686        6.485      864.046
10/01/2014  06:51:00      -33.881      -12.038       -7.911       15.225       16.863       10.496      231.787      284.344      110.170        0.099        0.031       35.956        1.560        0.002      335.861        6.777      864.086
10/01/2014  06:52:00      -40.755      -12.958       -9.238       11.306       12.906       10.084      127.817      166.577      101.679        0.116        0.020       42.765        9.205        0.046      335.865        6.785      864.119
10/01/2014  06:53:00      -34.614      -11.108      -13.018        9.654       10.629        5.891       93.209      112.966       34.703        0.087        0.012       36.353        4.414        0.015      335.939        6.907      864.136
10/01/2014  06:54:00      -53.836      -23.062      -12.582       17.033       12.143       10.167      290.128      147.463      103.369        0.206        0.027       58.568        4.752        0.007      335.823        6.714      864.144
10/01/2014  06:55:00      -91.054      -15.245      -16.096       24.897       20.535       12.334      619.850      421.685      152.140        0.499        0.060       92.321        7.585        0.007      335.809        6.691      864.150
10/01/2014  06:56:00      -79.238        2.415      -10.850       24.577       24.140       19.039      604.024      582.744      362.477        0.398        0.077       79.275        8.716        0.012      335.771        6.627      864.152
10/01/2014  06:57:00      -85.021        1.324      -11.978       26.709       19.824       15.467      713.364      393.010      239.228        0.436        0.067       85.031       11.288        0.018      335.666        6.452      864.166
10/01/2014  06:58:00      -37.448       -8.628       -4.803       25.872       15.630       15.431      669.369      244.303      238.112        0.133        0.058       38.429       12.018        0.098      335.596        6.335      864.178
10/01/2014  06:59:00      -38.852       -0.823      -12.700       14.405       24.167       11.608      207.497      584.033      134.738        0.130        0.046       38.861        6.302        0.026      335.720        6.542      864.194
10/01/2014  07:00:00      -44.527       15.975       -9.369       18.546       21.189       10.500      343.953      448.987      110.244        0.161        0.045       47.306       11.292        0.057      335.874        6.798      864.208
10/01/2014  07:01:00      -44.016        2.269      -15.592       16.509       17.472        7.440      272.552      305.264       55.360        0.141        0.032       44.075        7.050        0.026      335.953        6.930      864.226
10/01/2014  07:02:00      -35.243       -5.783      -12.400        9.128       11.599        9.345       83.321      134.529       87.329        0.087        0.015       35.714        9.136        0.065      335.931        6.893      864.234
10/01/2014  07:03:00      -55.929      -16.267      -11.262       15.618       15.012       11.341      243.930      225.365      128.622        0.206        0.030       58.247        8.274        0.020      335.856        6.767      864.249
10/01/2014  07:04:00      -61.363       -7.237      -13.935       12.786       11.978        8.993      163.491      143.484       80.867        0.220        0.019       61.788        6.530        0.011      335.810        6.691      864.260
10/01/2014  07:05:00      -41.714      -20.997       -9.119       13.971        9.987       10.685      195.191       99.746      114.178        0.134        0.020       46.701        6.608        0.020      335.884        6.816      864.284
10/01/2014  07:06:00      -64.521      -21.789      -12.028       14.236       16.718       11.320      202.667      279.476      128.131        0.270        0.031       68.101        6.907        0.010      335.885        6.815      864.305
10/01/2014  07:07:00      -58.466      -24.851      -16.817       11.559       11.437        9.198      133.604      130.814       84.612        0.233        0.017       63.528        5.802        0.008      335.984        6.982      864.323
10/01/2014  07:08:00      -56.375      -22.221       -6.871       16.169       19.403       15.177      261.423      376.494      230.355        0.229        0.043       60.596       10.675        0.031      336.004        7.014      864.322
10/01/2014  07:09:00      -56.792      -28.554       -5.184       12.916       15.258       10.908      166.815      232.792      118.975        0.229        0.026       63.566        6.833        0.012      335.945        6.915      864.322
10/01/2014  07:10:00      -72.448        0.805      -15.208       13.802       10.393        7.788      190.501      108.017       60.653        0.292        0.018       72.453        6.360        0.008      336.056        7.102      864.311
10/01/2014  07:11:00      -48.449       12.630       -4.842        9.588       14.430       12.512       91.936      208.214      156.552        0.149        0.023       50.068        6.655        0.018      336.062        7.110      864.311
10/01/2014  07:12:00      -43.072      -16.434       -8.590       11.377       14.414        7.858      129.444      207.759       61.748        0.130        0.020       46.101        4.186        0.008      336.148        7.255      864.322
10/01/2014  07:13:00      -41.049      -22.957      -10.393       13.760       11.055        9.986      189.338      122.210       99.719        0.137        0.021       47.032        4.591        0.010      336.146        7.253      864.335
10/01/2014  07:14:00      -75.352      -12.948      -15.796       18.495       11.473        9.516      342.060      131.628       90.562        0.333        0.028       76.457        7.286        0.009      336.078        7.138      864.349
10/01/2014  07:15:00      -68.872      -27.680      -10.257       12.345       16.947       11.282      152.398      287.218      127.287        0.309        0.028       74.226        5.561        0.006      335.997        7.003      864.363
10/01/2014  07:16:00      -81.135       -4.733      -10.648       15.943       15.514       10.856      254.165      240.675      117.860        0.367        0.031       81.273        9.513        0.014      335.948        6.920      864.395
10/01/2014  07:17:00      -51.469      -12.455       -6.725       15.676       13.766       10.930      245.734      189.513      119.455        0.170        0.028       52.955       10.876        0.042      335.973        6.963      864.435
10/01/2014  07:18:00      -35.273      -23.482       -8.030       18.470       16.500       14.704      341.152      272.245      216.219        0.134        0.041       42.375        8.658        0.042      336.119        7.205      864.469
10/01/2014  07:19:00      -60.686       -5.925       -9.912       18.948       14.339        8.594      359.037      205.610       73.859        0.223        0.032       60.975        5.805        0.009      336.213        7.363      864.484
10/01/2014  07:20:00      -81.427      -24.505      -13.228       10.743       12.089        8.770      115.414      146.137       76.912        0.387        0.017       85.034        5.407        0.004      336.090        7.157      864.477
10/01/2014  07:21:00      -81.786      -26.567      -15.646        8.730        8.540        7.599       76.208       72.931       57.740        0.392        0.010       85.993        4.671        0.003      336.141        7.242      864.474
10/01/2014  07:22:00      -65.020      -25.825       -4.930        9.750        6.233        5.654       95.071       38.852       31.963        0.254        0.008       69.961        4.079        0.003      336.192        7.330      864.461
10/01/2014  07:23:00      -49.637      -21.387       -4.198        9.514        8.351        8.217       90.515       69.732       67.512        0.158        0.011       54.049        4.846        0.008      336.308        7.522      864.465
10/01/2014  07:24:00      -36.092      -22.586       -5.488       15.524        7.978        7.118      241.003       63.641       50.669        0.110        0.018       42.576        6.995        0.027      336.398        7.673      864.465
10/01/2014  07:25:00      -75.536      -21.302       -6.118       19.200       19.386        9.007      368.622      375.818       81.128        0.351        0.041       78.482        7.030        0.008      336.353        7.598      864.448
10/01/2014  07:26:00      -82.474      -47.320       -5.422       12.577       12.508        9.806      158.179      156.449       96.162        0.474        0.021       95.085        5.520        0.003      336.306        7.518      864.449
10/01/2014  07:27:00      -68.799      -36.138       -5.040       12.667       13.469        9.654      160.445      181.406       93.203        0.325        0.022       77.712        6.737        0.008      336.335        7.568      864.452
10/01/2014  07:28:00      -83.356      -41.055       -2.275       21.491       16.931       11.289      461.851      286.664      127.432        0.476        0.044       92.918        7.965        0.007      336.398        7.674      864.457
10/01/2014  07:29:00      -30.328      -29.254        5.086       50.854       27.745       17.802     2586.097      769.781      316.918        0.274        0.184       42.138       22.321        0.281      336.399        7.675      864.470
10/01/2014  07:30:00       -1.489      -11.029       12.125       18.433       18.164       15.820      339.770      329.913      250.263        0.060        0.046       11.129       13.184        1.403      336.427        7.721      864.471
10/01/2014  07:31:00      -33.809      -39.387        1.972       17.443       22.504        9.737      304.264      506.450       94.818        0.180        0.045       51.907        8.485        0.027      336.526        7.886      864.487
10/01/2014  07:32:00      -55.377      -34.968       -7.596       16.671       11.572        8.981      277.907      133.917       80.659        0.242        0.025       65.493        5.654        0.007      336.585        7.986      864.493
10/01/2014  07:33:00      -47.328      -22.195       -4.585       13.635       13.251       10.126      185.913      175.586      102.532        0.161        0.023       52.274        8.748        0.028      336.617        8.041      864.506
10/01/2014  07:34:00      -69.105      -17.301       -8.250       15.896       12.007        9.565      252.681      144.179       91.483        0.282        0.024       71.238        6.101        0.007      336.613        8.034      864.513
10/01/2014  07:35:00      -63.880       -6.034       -5.182       18.045       15.060       11.707      325.613      226.793      137.057        0.242        0.034       64.164       10.449        0.027      336.646        8.089      864.532
10/01/2014  07:36:00      -15.947        3.697       -3.748       10.778        7.524        6.196      116.163       56.606       38.390        0.025        0.011       16.370        3.003        0.034      336.816        8.371      864.559
10/01/2014  07:37:00      -16.617        0.502       -3.805        4.603        3.364        4.911       21.188       11.317       24.116        0.017        0.003       16.625        2.450        0.022      336.838        8.409      864.581
10/01/2014  07:38:00      -14.867        4.695        6.639        8.773       10.316       13.016       76.968      106.413      169.414        0.032        0.018       15.591        9.748        0.391      337.036        8.739      864.588
10/01/2014  07:39:00       26.241       27.574       13.833       21.386       16.189       12.523      457.344      262.099      156.824        0.126        0.044       38.065        9.570        0.063      337.044        8.751      864.595
10/01/2014  07:40:00       63.645       31.620       13.066       10.454        9.106       13.710      109.290       82.919      187.960        0.280        0.019       71.067        4.906        0.005      336.985        8.653      864.599
10/01/2014  07:41:00       54.407       49.063       19.317       15.001       13.307       12.038      225.043      177.073      144.922        0.314        0.027       73.262        6.344        0.007      337.032        8.730      864.612
10/01/2014  07:42:00       55.079       41.185       17.610       19.888       13.980       19.091      395.536      195.439      364.475        0.300        0.048       68.774       10.903        0.025      337.030        8.727      864.614
10/01/2014  07:43:00       65.121       53.360       22.637       15.355       13.781       15.914      235.765      189.915      253.266        0.414        0.034       84.191        7.902        0.009      337.040        8.745      864.624
10/01/2014  07:44:00       80.976       61.464        8.518       15.243       13.155       13.896      232.336      173.059      193.090        0.550        0.030      101.661        7.562        0.006      336.947        8.591      864.620
10/01/2014  07:45:00       82.342       53.615        6.575       12.994       14.632       15.667      168.846      214.089      245.465        0.516        0.031       98.259        6.757        0.005      336.963        8.617      864.615
10/01/2014  07:46:00       74.862       60.073        1.044       16.957       15.243       15.284      287.541      232.348      233.597        0.498        0.038       95.984        1.823        0.000      336.926        8.557      864.609
10/01/2014  07:47:00       57.827       57.769       11.162       21.578       18.423       20.442      465.601      339.420      417.885        0.401        0.061       81.739        7.834        0.009      336.974        8.635      864.628
10/01/2014  07:48:00       29.110       22.969       10.927       13.895       12.202       14.383      193.079      148.888      206.870        0.102        0.027       37.081        8.851        0.057      337.049        8.761      864.652
10/01/2014  07:49:00        3.957       20.556       29.411       16.736       18.542       17.485      280.099      343.795      305.723        0.112        0.046       20.933       15.845        0.573      337.287        9.161      864.690
10/01/2014  07:50:00       -1.594       52.613       76.466       21.248       39.119       23.448      451.496     1530.295      549.795        0.557        0.127       52.637       25.438        0.234      337.269        9.129      864.726
10/01/2014  07:51:00       20.973       48.352       52.993       28.360       28.109       19.418      804.282      790.103      377.064        0.378        0.099       52.705       14.355        0.074      337.136        8.905      864.758
10/01/2014  07:52:00       15.578       12.834       29.917       21.963       29.843       21.112      482.360      890.622      445.726        0.156        0.091       20.184       16.896        0.701      337.162        8.949      864.771
10/01/2014  07:53:00       12.231       23.467       25.227       20.874       32.143       11.931      435.724     1033.192      142.350        0.147        0.081       26.463       13.453        0.258      337.248        9.094      864.771
10/01/2014  07:54:00       32.110       27.135        6.647       18.625       18.630       15.984      346.874      347.089      255.500        0.138        0.047       42.040        9.058        0.046      337.128        8.893      864.766
10/01/2014  07:55:00       55.125       56.844       41.125       38.648       16.074       24.406     1493.647      258.365      595.664        0.515        0.117       79.183       14.559        0.034      337.111        8.864      864.766
10/01/2014  07:56:00       48.778       52.320       30.665       24.024       19.045       25.131      577.152      362.713      631.586        0.381        0.079       71.531       17.770        0.062      337.082        8.816      864.770
10/01/2014  07:57:00       70.133       56.722       26.881       27.197       17.560       20.894      739.690      308.352      436.543        0.517        0.074       90.200       14.296        0.025      337.045        8.752      864.771
10/01/2014  07:58:00       65.418       39.817        1.237       15.964       14.976       19.161      254.848      224.268      367.146        0.336        0.042       76.583        9.336        0.015      337.046        8.755      864.773
10/01/2014  07:59:00       45.597       26.628       16.130       26.692       28.764       28.652      712.459      827.348      820.931        0.270        0.118       52.803       21.601        0.167      337.217        9.042      864.774
10/01/2014  08:00:00       32.542       53.597       28.579       24.498       17.817       19.753      600.142      317.439      390.200        0.303        0.065       62.702       16.254        0.067      337.305        9.188      864.771
10/01/2014  08:01:00       26.752       37.049       35.378       29.082       20.021       15.971      845.791      400.831      255.080        0.242        0.075       45.698       14.502        0.101      337.451        9.433      864.766
10/01/2014  08:02:00       45.611       44.126        9.978       28.139       16.115       17.369      791.806      259.684      301.687        0.274        0.068       63.462        6.895        0.012      337.357        9.275      864.780
10/01/2014  08:03:00       23.034       43.890       40.452       21.946       20.544       20.713      481.609      422.072      429.018        0.271        0.067       49.567       15.003        0.092      337.459        9.447      864.792
10/01/2014  08:04:00       85.157       61.023       42.006       33.437       20.901       26.236     1118.018      436.850      688.338        0.749        0.112      104.764       13.611        0.017      337.263        9.118      864.800
10/01/2014  08:05:00       95.237       79.781       42.768       26.217       18.135       25.772      687.339      328.887      664.215        0.947        0.084      124.238        9.523        0.006      337.107        8.857      864.802
10/01/2014  08:06:00       67.429       67.415       39.478       27.429       25.127       26.625      752.374      631.383      708.876        0.637        0.105       95.349       12.850        0.018      337.140        8.913      864.805
10/01/2014  08:07:00       61.410       60.287       25.245       29.833       21.229       25.262      890.031      450.676      638.173        0.501        0.099       86.057       12.099        0.020      337.242        9.085      864.804
10/01/2014  08:08:00        1.877       31.540       49.197       17.171       29.509       14.695      294.838      870.787      215.944        0.240        0.069       31.596        8.737        0.076      337.651        9.768      864.806
10/01/2014  08:09:00       -2.255       21.350       37.130       16.320       22.597       25.427      266.337      510.616      646.546        0.163        0.071       21.469       17.391        0.656      337.806       10.029      864.809
10/01/2014  08:10:00       35.555       22.250       20.965       45.005       26.331       27.335     2025.441      693.311      747.191        0.283        0.173       41.943       17.766        0.179      337.617        9.712      864.810
10/01/2014  08:11:00       79.074       53.688       -4.810       33.795       26.459       19.407     1142.128      700.073      376.635        0.569        0.111       95.578       13.426        0.020      337.404        9.356      864.818
10/01/2014  08:12:00       81.609       57.892       13.799       23.460       26.428       23.437      550.371      698.420      549.316        0.600        0.090      100.058       15.672        0.025      337.402        9.351      864.829
10/01/2014  08:13:00       64.594       40.997       17.101       25.111       18.469       19.971      630.576      341.087      398.833        0.376        0.069       76.506       13.863        0.033      337.520        9.549      864.846
10/01/2014  08:14:00       79.802       65.414       15.051       34.996       22.998       25.580     1224.696      528.901      654.357        0.664        0.120      103.186       22.149        0.046      337.483        9.488      864.864
10/01/2014  08:15:00       80.207       43.897        4.552       25.983       25.942       18.117      675.094      673.009      328.213        0.503        0.084       91.434       11.423        0.016      337.553        9.604      864.887
10/01/2014  08:16:00       52.421       41.613       18.530       29.756       26.495       21.821      885.395      701.999      476.151        0.344        0.103       66.930       18.306        0.075      337.740        9.918      864.911
10/01/2014  08:17:00       45.894       46.113       18.374       26.311       21.286       17.961      692.269      453.076      322.595        0.302        0.073       65.059       17.541        0.073      337.651        9.769      864.928
10/01/2014  08:18:00        1.661        8.145       30.545       26.371       24.544       15.972      695.443      602.427      255.097        0.128        0.078        8.313       15.588        3.516      338.086       10.499      864.938
10/01/2014  08:19:00        2.663        0.344       29.435       30.814       38.385       27.137      949.533     1473.391      736.417        0.202        0.158        2.685       25.643       91.182      337.996       10.348      864.940
10/01/2014  08:20:00        6.730      -40.685       16.126       28.772       40.085       27.858      827.834     1606.795      776.052        0.259        0.161       41.238       13.080        0.101      338.016       10.383      864.938
10/01/2014  08:21:00        9.371        0.490       42.186       24.384       45.966       24.058      594.561     2112.856      578.768        0.258        0.164        9.384       24.047        6.567      338.028       10.400      864.946
10/01/2014  08:22:00       14.457        7.800       36.206       28.836       31.749       16.342      831.515     1008.021      267.046        0.184        0.105       16.427       18.398        1.254      338.013       10.376      864.952
10/01/2014  08:23:00       21.415       21.612       44.754       26.293       55.612       24.789      691.301     3092.701      614.497        0.366        0.220       30.426       30.620        1.013      338.040       10.421      864.969
10/01/2014  08:24:00       31.636       55.340       46.760       29.227       25.016       22.590      854.218      625.799      510.311        0.412        0.100       63.745       10.802        0.029      337.928       10.234      864.978
10/01/2014  08:25:00       38.705       31.638       27.033       37.572       28.131       27.659     1411.679      791.367      765.047        0.310        0.148       49.990       21.895        0.192      337.977       10.315      864.983
10/01/2014  08:26:00       -1.553       26.518       54.185       20.520       31.089       15.586      421.084      966.545      242.911        0.264        0.082       26.563       15.370        0.335      338.330       10.908      864.978
10/01/2014  08:27:00       33.381       62.512       60.895       33.407       26.562       24.496     1116.013      705.533      600.078        0.558        0.121       70.866       15.467        0.048      338.136       10.582      864.979
10/01/2014  08:28:00       17.076       49.438       32.685       39.029       30.546       46.094     1523.273      933.046     2124.667        0.419        0.229       52.304       35.206        0.453      338.222       10.727      864.992
10/01/2014  08:29:00       31.266       47.263       18.494       37.804       20.331       28.705     1429.107      413.370      823.959        0.311        0.133       56.669       19.890        0.123      338.168       10.638      865.000
10/01/2014  08:30:00       39.278       49.625        0.693       30.081       33.534       21.754      904.843     1124.497      473.224        0.325        0.125       63.288       15.726        0.062      338.112       10.542      864.998
10/01/2014  08:31:00       32.296       49.388       -1.154       29.566       40.764       25.284      874.172     1661.717      639.286        0.333        0.159       59.010       21.619        0.134      337.961       10.288      865.009
10/01/2014  08:32:00       67.443       60.859       15.273       27.553       26.631       19.984      759.178      709.209      399.374        0.518        0.093       90.843       11.777        0.017      338.050       10.437      865.021
10/01/2014  08:33:00       50.698       65.410       50.185       59.966       37.181       32.256     3595.887     1382.403     1040.456        0.769        0.301       82.757       24.149        0.085      338.174       10.647      865.038
10/01/2014  08:34:00      107.316       69.791       19.824       39.063       26.890       35.056     1525.912      723.096     1228.936        1.013        0.174      128.014       15.961        0.016      337.838       10.084      865.052
10/01/2014  08:35:00       62.807       64.808       15.812       36.125       27.692       28.414     1305.028      766.858      807.367        0.564        0.144       90.248       10.274        0.013      338.083       10.495      865.068
10/01/2014  08:36:00      101.665       58.884       10.724       50.661       37.207       26.393     2566.586     1384.325      696.594        0.928        0.232      117.486       12.291        0.011      338.175       10.648      865.093
10/01/2014  08:37:00      125.358       73.131       -4.997       40.806       28.117       28.786     1665.154      790.589      828.624        1.219        0.164      145.130       24.398        0.028      337.933       10.241      865.127
10/01/2014  08:38:00      129.906       89.005       46.423       36.088       31.025       35.531     1302.336      962.558     1262.421        1.524        0.176      157.472       21.291        0.018      337.944       10.262      865.164
10/01/2014  08:39:00      126.666       82.862       34.270       41.070       26.613       37.899     1686.747      708.267     1436.367        1.396        0.192      151.362       19.942        0.017      338.031       10.406      865.189
10/01/2014  08:40:00       83.227       77.899       58.036       46.062       23.179       26.303     2121.716      537.286      691.838        0.986        0.168      113.996       18.646        0.027      338.055       10.446      865.204
10/01/2014  08:41:00       36.198       55.583       56.017       35.004       22.461       25.683     1225.294      504.506      659.631        0.496        0.119       66.331       18.835        0.081      338.314       10.881      865.206
10/01/2014  08:42:00      123.073       75.211       -1.063       41.107       28.885       37.927     1689.803      834.355     1438.445        1.238        0.198      144.235        7.948        0.003      338.042       10.426      865.224
10/01/2014  08:43:00       53.060       64.993        4.398       24.929       32.249       25.536      621.431     1040.006      652.097        0.469        0.116       83.901       17.569        0.044      338.223       10.728      865.233
10/01/2014  08:44:00       59.062       46.705       29.970       30.343       33.509       20.727      920.678     1122.870      429.601        0.452        0.124       75.297        7.814        0.011      338.404       11.033      865.239
10/01/2014  08:45:00        6.404       -3.904       24.003       26.992       29.083       23.804      728.594      845.800      566.620        0.139        0.107        7.500       20.569        7.521      338.593       11.349      865.233
10/01/2014  08:46:00       15.228       34.948       45.015       19.931       24.017       18.906      397.233      576.831      357.439        0.241        0.067       38.122       10.119        0.070      338.805       11.706      865.231
10/01/2014  08:47:00       16.284       40.688       13.587       33.068       39.733       25.816     1093.519     1578.711      666.476        0.272        0.167       43.826       16.224        0.137      338.794       11.687      865.223
10/01/2014  08:48:00       60.266       54.352       -1.937       40.001       31.252       29.283     1600.068      976.702      857.475        0.501        0.172       81.155       21.591        0.071      338.647       11.440      865.209
10/01/2014  08:49:00       97.883       55.135       11.508       49.016       39.404       34.807     2402.585     1552.641     1211.537        0.896        0.258      112.343       19.759        0.031      338.707       11.541      865.197
10/01/2014  08:50:00      100.541       75.965       18.632       66.569       37.486       34.504     4431.408     1405.219     1190.558        1.163        0.351      126.013       22.673        0.032      338.467       11.138      865.196
10/01/2014  08:51:00       58.337       32.511        0.484       52.331       45.761       25.220     2738.548     2094.042      636.058        0.496        0.273       66.785       24.228        0.132      338.677       11.491      865.190
10/01/2014  08:52:00      111.724       77.510        9.186       58.233       44.924       34.659     3391.054     2018.201     1201.241        1.259        0.331      135.979       22.861        0.028      338.546       11.271      865.190
10/01/2014  08:53:00      115.487       87.098       -1.538       55.665       37.706       36.516     3098.538     1421.770     1333.448        1.339        0.293      144.649       21.185        0.021      338.341       10.928      865.192
10/01/2014  08:54:00      107.305       94.297       -1.558       50.312       36.822       34.421     2531.308     1355.831     1184.793        1.274        0.254      142.851       17.979        0.016      338.412       11.046      865.191
10/01/2014  08:55:00       93.597       50.297       -6.537       49.521       38.212       29.053     2452.318     1460.189      844.058        0.804        0.238      106.256       17.020        0.026      338.442       11.095      865.187
10/01/2014  08:56:00       27.918       72.406       81.910       43.002       47.848       52.761     1849.135     2289.396     2783.730        0.983        0.346       77.602       39.647        0.261      338.699       11.529      865.185
10/01/2014  08:57:00       26.398       70.310       97.050       46.384       54.876       39.753     2151.521     3011.381     1580.301        1.090        0.337       75.102       38.699        0.266      338.614       11.386      865.191
10/01/2014  08:58:00      104.774       93.727       54.494       65.437       51.782       45.649     4282.025     2681.382     2083.831        1.589        0.452      140.579       40.206        0.082      338.478       11.156      865.202
10/01/2014  08:59:00       82.525       69.389       37.807       43.468       25.246       40.541     1889.473      637.372     1643.540        0.861        0.209      107.820       28.956        0.072      338.536       11.255      865.206
10/01/2014  09:00:00       65.436      109.382      101.572       65.404       55.640       38.046     4277.682     3095.779     1447.513        1.769        0.441      127.461       30.919        0.059      338.522       11.230      865.218
10/01/2014  09:01:00       68.639       80.509       91.067       62.558       47.430       33.465     3913.449     2249.652     1119.890        1.338        0.364      105.797       30.764        0.085      338.742       11.600      865.229
10/01/2014  09:02:00       77.356       89.132       53.643       64.329       46.557       61.491     4138.194     2167.513     3781.084        1.344        0.504      118.019       41.255        0.122      338.530       11.244      865.235
10/01/2014  09:03:00       87.460       82.142       45.878       87.110       38.739       53.431     7588.183     1500.714     2854.830        1.422        0.597      119.986       54.318        0.205      338.610       11.379      865.236
10/01/2014  09:04:00       90.426       62.036        0.154       56.370       46.221       37.992     3177.581     2136.424     1443.423        0.939        0.338      109.660       27.898        0.065      338.836       11.760      865.227
10/01/2014  09:05:00       45.927       70.990       56.647       50.247       52.482       44.028     2524.750     2754.372     1938.488        0.879        0.361       84.551       34.579        0.167      339.056       12.128      865.214
10/01/2014  09:06:00       80.250      116.068      111.162       67.479       66.042       49.020     4553.465     4361.553     2402.976        2.179        0.566      141.109       34.324        0.059      338.596       11.353      865.218
10/01/2014  09:07:00      118.943       77.103       42.051       86.474       75.495       64.812     7477.778     5699.465     4200.588        1.962        0.869      141.747       29.511        0.043      338.778       11.659      865.222
10/01/2014  09:08:00      167.734      103.536       12.984       50.153       45.459       44.188     2515.370     2066.490     1952.581        2.278        0.327      197.115       14.872        0.006      338.498       11.189      865.227
10/01/2014  09:09:00      177.262      133.327       35.723       78.701       50.188       58.150     6193.863     2518.866     3381.465        3.128        0.605      221.806       47.472        0.046      338.621       11.394      865.238
10/01/2014  09:10:00       74.121       62.303       31.516       66.962       36.436       30.825     4483.956     1327.586      950.168        0.856        0.338       96.828       21.488        0.049      338.825       11.742      865.251
10/01/2014  09:11:00        6.334       14.297       52.166       38.727       62.463       38.916     1499.797     3901.570     1514.464        0.494        0.346       15.638       30.112        3.708      339.043       12.106      865.263
10/01/2014  09:12:00      134.047       88.072       44.480       84.256       54.738       48.604     7099.009     2996.195     2362.307        2.008        0.623      160.391       47.185        0.087      338.798       11.692      865.281
10/01/2014  09:13:00      165.573       54.608       16.112       92.666       63.971       52.917     8586.915     4092.329     2800.237        2.307        0.774      174.346       36.749        0.044      338.747       11.607      865.295
10/01/2014  09:14:00       38.762       52.348       74.996       46.511       65.745       43.861     2163.252     4322.346     1923.826        0.914        0.420       65.137       34.099        0.274      339.171       12.321      865.307
10/01/2014  09:15:00       44.093       64.139       81.207       67.385       68.395       46.334     4540.779     4677.932     2146.841        1.201        0.568       77.833       32.217        0.171      339.051       12.118      865.306
10/01/2014  09:16:00       37.199       48.366       76.442       55.908       70.886       51.807     3125.720     5024.795     2683.932        1.020        0.542       61.017       42.846        0.493      338.938       11.930      865.312
10/01/2014  09:17:00      154.612      126.548       62.865       82.839       59.447       58.885     6862.350     3533.993     3467.496        2.887        0.693      199.798       38.928        0.038      338.681       11.494      865.308
10/01/2014  09:18:00      111.254       81.178       28.977       72.978       48.786       51.628     5325.727     2380.087     2665.476        1.509        0.519      137.722       49.634        0.130      338.871       11.817      865.320
10/01/2014  09:19:00       44.426       28.906       58.107       73.934       52.768       51.775     5466.295     2784.467     2680.671        0.856        0.547       53.002       32.682        0.380      339.046       12.112      865.308
10/01/2014  09:20:00       43.953       40.577       81.413       58.600       73.107       42.006     3434.010     5344.589     1764.528        1.037        0.527       59.820       41.772        0.488      339.077       12.163      865.290
10/01/2014  09:21:00       20.822       63.405      100.437       44.577       74.917       49.075     1987.111     5612.604     2408.394        1.227        0.500       66.736       49.238        0.544      338.969       11.980      865.296
10/01/2014  09:22:00      114.277       52.743       51.152       71.984       94.026       46.709     5181.739     8840.819     2181.713        1.733        0.810      125.862       39.581        0.099      339.025       12.074      865.281
10/01/2014  09:23:00      151.815       92.052       22.801       97.625       73.287       50.901     9530.571     5370.945     2590.900        2.476        0.875      177.542       19.543        0.012      338.892       11.851      865.276
10/01/2014  09:24:00      120.062       81.115       89.652       85.244       94.795       77.532     7266.505     8986.119     6011.281        2.564        1.113      144.895       65.165        0.202      339.106       12.210      865.269
10/01/2014  09:25:00      140.086      116.085       64.255       90.121       73.206       74.061     8121.822     5359.084     5485.095        2.809        0.948      181.933       58.038        0.102      338.838       11.758      865.278
10/01/2014  09:26:00      212.311      105.325       42.235       79.127       61.470       52.748     6261.103     3778.603     2782.386        3.539        0.641      237.001       26.691        0.013      339.002       12.033      865.281
10/01/2014  09:27:00      133.526       46.074       64.477      112.901       99.638       61.663    12746.553     9927.760     3802.369        2.529        1.324      141.251       63.851        0.204      338.955       11.958      865.290
10/01/2014  09:28:00       78.607       44.663       69.855       77.064       92.980       59.880     5938.817     8645.323     3585.597        1.561        0.908       90.409       44.287        0.240      339.218       12.400      865.282
10/01/2014  09:29:00      173.707      113.772       43.081      106.799       55.993       69.493    11405.966     3135.177     4829.326        3.217        0.969      207.649       72.365        0.121      339.093       12.188      865.301
10/01/2014  09:30:00       67.860       63.526       55.987       79.871       52.319       50.106     6379.327     2737.275     2510.632        1.170        0.581       92.954       49.713        0.286      339.068       12.148      865.301
10/01/2014  09:31:00      123.434       43.132       33.673       67.720       68.042       46.903     4585.949     4629.767     2199.855        1.482        0.571      130.753       27.057        0.043      338.826       11.742      865.296
10/01/2014  09:32:00      103.384       64.789       39.452       59.753       56.212       47.198     3570.431     3159.811     2227.631        1.270        0.448      122.008       31.772        0.068      339.090       12.185      865.277
10/01/2014  09:33:00       64.810       47.900       69.692       59.951       65.425       47.624     3594.111     4280.394     2268.013        1.075        0.507       80.590       32.764        0.165      339.386       12.682      865.282
10/01/2014  09:34:00       60.447       45.168       77.474      100.867       66.103       45.951    10174.112     4369.620     2111.478        1.417        0.833       75.459       40.086        0.282      339.329       12.587      865.277
10/01/2014  09:35:00       88.662       -4.674       46.986       78.941       97.660       56.032     6231.641     9537.424     3139.547        1.450        0.945       88.785       61.666        0.482      339.128       12.248      865.266
10/01/2014  09:36:00      156.342       63.424       90.131      131.644      110.088       58.618    17330.047    12119.452     3436.079        3.473        1.644      168.717       65.012        0.148      339.175       12.325      865.277
10/01/2014  09:37:00      144.321       99.816       38.081       92.056       67.448       64.173     8474.310     4549.288     4118.157        2.469        0.857      175.476       29.301        0.028      339.201       12.370      865.281
10/01/2014  09:38:00      196.906       68.387       77.250      137.085      139.855      102.248    18792.270    19559.546    10454.590        4.910        2.440      208.444       86.058        0.170      338.977       11.992      865.279
10/01/2014  09:39:00      184.694      146.309       70.564      118.166       72.289      101.094    13963.199     5225.646    10220.029        4.495        1.470      235.623       85.302        0.131      338.784       11.667      865.281
10/01/2014  09:40:00       60.199       79.008       89.781       78.482       66.061       42.211     6159.365     4364.029     1781.775        1.511        0.615       99.329       35.759        0.130      339.052       12.120      865.274
10/01/2014  09:41:00      187.780      121.221       35.398      102.454       85.423       61.697    10496.787     7297.167     3806.579        3.640        1.080      223.508       40.988        0.034      338.945       11.939      865.255
10/01/2014  09:42:00      124.277       81.927       31.761       77.747       64.249       56.081     6044.581     4127.943     3145.053        1.824        0.666      148.852       42.291        0.081      339.246       12.446      865.245
10/01/2014  09:43:00       57.879       37.865       32.837       64.632       43.377       39.622     4177.231     1881.580     1569.898        0.674        0.381       69.164       15.711        0.052      339.345       12.615      865.252
10/01/2014  09:44:00       -6.697        5.188       41.421       30.426       47.593       29.228      925.728     2265.098      854.290        0.292        0.202        8.472       25.157        8.818      339.710       13.231      865.234
10/01/2014  09:45:00      134.894      135.054      103.784      101.914       87.661       79.771    10386.374     7684.455     6363.355        3.582        1.222      190.882       59.560        0.097      339.403       12.711      865.247
10/01/2014  09:46:00      163.085       81.910      101.353      107.522      104.195       80.795    11560.941    10856.543     6527.883        3.626        1.447      182.499       74.439        0.166      339.015       12.056      865.250
10/01/2014  09:47:00      136.218      121.755      104.358      102.446       64.487       80.469    10495.151     4158.516     6475.301        3.270        1.056      182.700       61.739        0.114      339.109       12.215      865.259
10/01/2014  09:48:00       59.803       79.784       84.063       71.685       81.880       53.616     5138.713     6704.380     2874.623        1.586        0.736       99.709       52.267        0.275      339.170       12.318      865.265
10/01/2014  09:49:00      123.008       93.788       80.644      118.892       57.397       54.293    14135.227     3294.459     2947.716        2.540        1.019      154.684       57.440        0.138      339.205       12.377      865.255
10/01/2014  09:50:00      203.513      102.041       19.687       83.592       66.112       58.803     6987.599     4370.747     3457.797        3.351        0.741      227.661       18.294        0.006      339.115       12.225      865.267
10/01/2014  09:51:00      178.984       79.390       39.972       93.930       71.193       61.591     8822.840     5068.417     3793.416        2.881        0.884      195.801       47.142        0.058      339.333       12.590      865.274
10/01/2014  09:52:00      199.380       97.472        3.197      111.823       93.478       57.290    12504.356     8738.177     3282.101        3.689        1.226      221.930       52.370        0.056      339.086       12.176      865.274
10/01/2014  09:53:00      178.212      101.589       42.052      105.660       85.452       64.815    11164.039     7302.036     4200.939        3.325        1.133      205.134       46.536        0.051      339.326       12.579      865.271
10/01/2014  09:54:00      153.186      145.505       89.195      120.971       73.761       89.733    14634.019     5440.679     8051.954        4.036        1.406      211.277       58.891        0.078      339.286       12.513      865.246
10/01/2014  09:55:00      161.306       74.676       54.505       89.303       87.126       66.437     7975.028     7590.967     4413.932        2.727        0.999      177.753       47.510        0.071      339.225       12.411      865.254
10/01/2014  09:56:00      144.411      129.761      147.064      124.390      126.518       92.959    15472.865    16006.920     8641.451        4.971        2.006      194.146       91.233        0.221      339.215       12.393      865.260
10/01/2014  09:57:00      146.882      113.506      122.642      138.757       88.182       91.016    19253.435     7776.013     8283.987        4.240        1.766      185.628       90.875        0.240      339.182       12.337      865.273
10/01/2014  09:58:00      108.588       86.462       95.518      143.245       87.402       74.038    20519.201     7639.130     5481.631        3.101        1.682      138.806       76.195        0.301      339.433       12.760      865.285
10/01/2014  09:59:00      103.099       71.984       88.254       89.626       71.816       58.810     8032.750     5157.574     3458.664        2.012        0.832      125.742       56.191        0.200      339.349       12.619      865.276
10/01/2014  10:00:00      156.881      166.308      167.210      146.603      113.778       91.304    21492.349    12945.497     8336.509        6.149        2.139      228.626       74.383        0.106      339.371       12.655      865.258
10/01/2014  10:01:00      123.730      178.479      173.498      105.431       97.846       93.767    11115.648     9573.893     8792.219        5.337        1.474      217.173       66.590        0.094      339.222       12.405      865.280
10/01/2014  10:02:00      167.603       77.039       88.035      115.604      102.093       91.697    13364.383    10422.943     8408.377        3.698        1.610      184.461       63.778        0.120      339.293       12.524      865.280
10/01/2014  10:03:00      178.882      153.445       81.908      119.645       68.470       67.970    14315.039     4688.198     4619.982        4.293        1.181      235.678       67.493        0.082      339.381       12.673      865.295
10/01/2014  10:04:00      173.482       88.525       78.148      132.602       90.203       67.234    17583.340     8136.508     4520.360        3.713        1.512      194.763       69.157        0.126      339.474       12.830      865.308
10/01/2014  10:05:00      134.195       83.953       63.550       99.369       73.110       63.708     9874.160     5345.074     4058.747        2.418        0.964      158.293       46.506        0.086      339.717       13.239      865.303
10/01/2014  10:06:00       90.231      -45.920       29.959       78.661       97.596       54.117     6187.604     9524.902     2928.679        1.489        0.932      101.243       32.713        0.104      339.642       13.115      865.307
10/01/2014  10:07:00      151.823      128.784       41.943      114.247       89.278       59.272    13052.266     7970.648     3513.183        3.296        1.227      199.087       45.899        0.053      339.597       13.038      865.298
10/01/2014  10:08:00      182.461      138.515       41.336      123.277       91.768       65.522    15197.282     8421.415     4293.081        4.104        1.396      229.082       47.189        0.042      339.562       12.978      865.305
10/01/2014  10:09:00       81.751      112.730      115.816      105.826      100.606       78.017    11199.105    10121.524     6086.702        3.010        1.370      139.253       63.846        0.210      339.741       13.281      865.303
10/01/2014  10:10:00      133.564      118.203      106.828      114.154       90.220       88.743    13031.215     8139.683     7875.378        3.613        1.452      178.357       91.199        0.261      339.240       12.432      865.296
10/01/2014  10:11:00      175.466      118.137       85.222      114.947       85.324       96.165    13212.793     7280.203     9247.668        4.087        1.487      211.529       62.174        0.086      339.518       12.903      865.261
10/01/2014  10:12:00      123.496      110.273       63.238       92.604       67.009       70.195     8575.501     4490.233     4927.384        2.470        0.900      165.564       60.409        0.133      339.797       13.375      865.260
10/01/2014  10:13:00      129.630      127.138       87.356       81.479       60.013       62.497     6638.823     3601.594     3905.897        2.737        0.707      181.571       32.490        0.032      340.039       13.782      865.288
10/01/2014  10:14:00      151.839      106.842       87.977       97.069       71.288       79.111     9422.366     5081.959     6258.474        3.148        1.038      185.662       63.776        0.118      339.858       13.476      865.309
10/01/2014  10:15:00      136.035       15.084       57.432       90.450       86.040       61.094     8181.186     7402.826     3732.481        2.067        0.966      136.869       50.345        0.135      339.826       13.425      865.322
10/01/2014  10:16:00      163.434       86.808       35.990       68.751       65.137       63.075     4726.701     4242.789     3978.473        2.424        0.647      185.057       34.698        0.035      339.634       13.099      865.347
10/01/2014  10:17:00      221.805      140.215       49.419       75.097       72.992       76.507     5639.620     5327.892     5853.313        4.406        0.841      262.408       26.991        0.011      339.385       12.676      865.344
10/01/2014  10:18:00       67.059       60.563       68.978       72.366       55.111       48.125     5236.868     3037.267     2316.057        1.175        0.530       90.359       35.306        0.153      339.960       13.651      865.347
10/01/2014  10:19:00      119.909       92.464       72.362      101.223       61.425       49.751    10246.158     3773.027     2475.121        2.233        0.825      151.419       40.393        0.071      339.792       13.367      865.368
10/01/2014  10:20:00      186.256      152.790       59.754      140.397       79.252       77.744    19711.264     6280.946     6044.156        4.682        1.602      240.907       66.089        0.075      339.892       13.533      865.357
10/01/2014  10:21:00      208.475      165.891       44.489       92.830       73.505       57.511     8617.341     5402.971     3307.545        4.514        0.866      266.423       19.340        0.005      339.871       13.499      865.361
10/01/2014  10:22:00      113.074       68.658       -4.588       78.083       79.893       41.096     6096.901     6382.945     1688.864        1.584        0.708      132.287       24.459        0.034      340.030       13.768      865.356
10/01/2014  10:23:00       93.052       35.441       45.013       86.847       67.432       51.378     7542.437     4547.075     2639.656        1.333        0.736       99.573       32.239        0.105      340.334       14.282      865.333
10/01/2014  10:24:00      241.569      115.301       31.117      125.070       86.960       68.327    15642.501     7562.120     4668.613        5.024        1.394      267.675       23.698        0.008      340.131       13.936      865.324
10/01/2014  10:25:00      266.477      157.794       25.731      130.880       76.448       77.835    17129.509     5844.362     6058.304        6.280        1.452      309.692       10.781        0.001      339.566       12.981      865.333
10/01/2014  10:26:00      116.398       83.808       82.891       97.185       74.044       63.388     9444.982     5482.451     4017.984        2.319        0.947      143.430       54.633        0.145      339.922       13.585      865.318
10/01/2014  10:27:00      105.388       53.387       82.663      111.490       72.081       66.777    12429.950     5195.714     4459.182        2.143        1.104      118.138       48.571        0.169      339.965       13.658      865.315
10/01/2014  10:28:00      186.719      193.764      146.685      149.780      112.510       93.508    22434.064    12658.487     8743.776        6.887        2.192      269.088       70.698        0.069      339.792       13.364      865.280
10/01/2014  10:29:00      241.537      145.743       94.376      142.121       84.556       80.934    20198.287     7149.634     6550.315        6.119        1.695      282.102       85.311        0.091      339.742       13.280      865.272
10/01/2014  10:30:00      168.499      101.878       10.803       73.008       55.682       43.466     5330.100     3100.479     1889.329        2.460        0.516      196.904       18.916        0.009      339.690       13.195      865.261
10/01/2014  10:31:00       33.070       32.443       24.558       41.705       40.235       52.096     1739.276     1618.866     2713.972        0.441        0.304       46.326       30.248        0.426      340.111       13.906      865.231
10/01/2014  10:32:00       60.232       66.495       53.423       43.649       32.974       45.628     1905.278     1087.293     2081.900        0.799        0.254       89.719       24.004        0.072      340.008       13.734      865.242
10/01/2014  10:33:00       39.099       75.730       76.076       58.577       44.859       38.466     3431.211     2012.286     1479.616        0.999        0.346       85.227       21.315        0.063      340.269       14.173      865.244
10/01/2014  10:34:00      203.393      150.767      118.099      144.676      106.053      102.699    20931.192    11247.170    10546.995        6.038        2.136      253.178       79.196        0.098      339.921       13.582      865.239
10/01/2014  10:35:00      224.073      194.714      140.958      126.303      101.075      104.173    15952.373    10216.143    10851.962        7.250        1.851      296.854       94.254        0.101      339.959       13.647      865.266
10/01/2014  10:36:00      177.627      120.986      150.734      125.445      116.772       88.180    15736.392    13635.753     7775.664        5.302        1.857      214.916       83.819        0.152      339.703       13.215      865.277
10/01/2014  10:37:00      120.907       64.414       91.117       89.837       88.080       67.857     8070.763     7758.030     4604.632        2.375        1.022      136.995       66.811        0.238      339.832       13.433      865.283
10/01/2014  10:38:00      101.738       55.749       97.649       88.138       68.471       52.478     7768.361     4688.272     2753.972        1.910        0.761      116.011       53.590        0.213      340.046       13.795      865.269
10/01/2014  10:39:00      146.911       45.587       58.876      115.555       86.928       54.169    13352.995     7556.532     2934.308        2.548        1.192      153.821       41.345        0.072      339.971       13.669      865.248
10/01/2014  10:40:00      118.072      105.705       74.568       76.703       67.490       53.840     5883.392     4554.905     2898.792        2.200        0.667      158.475       35.961        0.051      339.875       13.506      865.229
10/01/2014  10:41:00       76.554       82.318       73.628       73.897       55.614       44.022     5460.778     3092.919     1937.958        1.427        0.525      112.413       19.934        0.031      340.146       13.964      865.230
10/01/2014  10:42:00       87.851      114.033      110.722      114.363       84.748       77.860    13078.898     7182.152     6062.253        2.965        1.316      143.949       82.853        0.331      340.269       14.170      865.218
10/01/2014  10:43:00      136.920       57.784       94.405      106.570       97.201       68.574    11357.161     9448.108     4702.365        2.825        1.275      148.614       57.283        0.149      340.300       14.223      865.199
10/01/2014  10:44:00       47.208        8.295       62.431       62.564       78.107       46.444     3914.214     6100.754     2157.075        0.918        0.609       47.931       46.969        0.960      340.436       14.456      865.187
10/01/2014  10:45:00       59.016       81.671       91.395       68.492       61.193       43.184     4691.119     3744.576     1864.824        1.440        0.515      100.762       34.315        0.116      340.227       14.102      865.159
10/01/2014  10:46:00       77.741       84.303       77.357      106.434      107.309       70.605    11328.283    11515.304     4985.115        2.348        1.391      114.676       51.743        0.204      340.422       14.430      865.152
10/01/2014  10:47:00      224.365       94.851       40.688      124.195       77.071       75.214    15424.400     5939.918     5657.168        4.400        1.351      243.591       51.067        0.044      339.924       13.589      865.144
10/01/2014  10:48:00      185.877      120.464       18.718      121.574       93.500       69.458    14780.314     8742.269     4824.448        3.887        1.417      221.499       45.157        0.042      340.024       13.757      865.120
10/01/2014  10:49:00      226.629      138.757       41.944       89.339       82.531       68.829     7981.453     6811.309     4737.413        4.595        0.977      265.734       40.819        0.024      340.046       13.794      865.113
10/01/2014  10:50:00      139.626      196.347      160.693      117.658       99.386       95.457    13843.426     9877.510     9112.015        5.835        1.642      240.931       74.513        0.096      340.165       13.993      865.118
10/01/2014  10:51:00      228.729      131.437       88.709      165.491      113.585       79.438    27387.433    12901.585     6310.421        6.202        2.330      263.804       73.735        0.078      340.202       14.056      865.127
10/01/2014  10:52:00      131.598      100.632      129.829       85.565       97.039       72.794     7321.339     9416.514     5299.032        3.316        1.102      165.665       62.979        0.145      340.071       13.836      865.151
10/01/2014  10:53:00       94.724       87.299       92.145      100.467      125.163       62.114    10093.585    15665.707     3858.190        2.735        1.481      128.817       54.071        0.176      340.172       14.007      865.132
10/01/2014  10:54:00      125.388       78.014       57.264      102.955       90.269       69.362    10599.642     8148.495     4811.121        2.432        1.178      147.677       34.775        0.055      340.101       13.889      865.130
10/01/2014  10:55:00       93.771       47.182      119.102      110.721       79.877       64.256    12259.103     6380.368     4128.874        2.398        1.138      104.972       65.450        0.389      340.293       14.211      865.121
10/01/2014  10:56:00       84.613       78.605       66.321       70.634       47.867       52.639     4989.111     2291.232     2770.887        1.389        0.503      115.490       37.411        0.105      340.217       14.085      865.122
10/01/2014  10:57:00      192.095        1.610       88.627      157.786      145.297      108.418    24896.503    21111.198    11754.540        5.125        2.888      192.102      110.069        0.328      340.292       14.209      865.102
10/01/2014  10:58:00      118.967       99.021      115.724      122.861       89.769       94.825    15094.819     8058.448     8991.818        3.474        1.607      154.785       91.115        0.347      340.222       14.092      865.131
10/01/2014  10:59:00       87.291       32.997       42.061       86.886       74.492       59.169     7549.170     5549.004     3500.959        1.354        0.830       93.319       50.510        0.293      339.840       13.450      865.128
10/01/2014  11:00:00       71.398       51.185       25.163       51.097       37.173       34.421     2610.932     1381.847     1184.806        0.676        0.259       87.850       20.416        0.054      340.263       14.164      865.088
10/01/2014  11:01:00       33.016       37.436       42.735       39.327       48.057       31.311     1546.648     2309.492      980.357        0.458        0.242       49.915       15.678        0.099      340.505       14.572      865.087
10/01/2014  11:02:00       83.705        4.794       79.463       90.317      133.604       88.562     8157.249    17849.965     7843.289        2.359        1.693       83.842       91.335        1.187      340.415       14.419      865.093
10/01/2014  11:03:00       78.495       38.636       95.498       66.932      131.638       93.691     4479.943    17328.639     8777.930        2.368        1.529       87.488      104.216        1.419      340.315       14.250      865.090
10/01/2014  11:04:00       46.959      -63.899       46.714       62.966       94.678       48.936     3964.696     8963.925     2394.776        1.189        0.766       79.299       55.552        0.491      340.475       14.520      865.045
10/01/2014  11:05:00       40.784       60.239      100.032      105.776      118.400       79.351    11188.631    14018.474     6296.590        2.340        1.575       72.747       91.877        1.595      340.500       14.561      865.047
10/01/2014  11:06:00      109.358       80.985       68.282      118.663      107.186       68.873    14080.922    11488.856     4743.485        2.674        1.516      136.080       62.767        0.213      339.998       13.715      865.038
10/01/2014  11:07:00      154.472      121.015       50.986      115.523      101.581       77.505    13345.528    10318.620     6006.962        3.538        1.484      196.230       72.284        0.136      340.449       14.476      865.012
10/01/2014  11:08:00      143.482      192.536      132.595      153.431       91.246       98.755    23540.922     8325.842     9752.636        5.842        2.081      240.119       85.564        0.127      340.502       14.563      865.003
10/01/2014  11:09:00      131.857       86.949       67.487      147.794       89.556       74.364    21843.057     8020.360     5529.949        3.244        1.770      157.944       68.383        0.187      340.289       14.204      865.013
10/01/2014  11:10:00       47.006       96.980      107.746       75.034       94.823       66.939     5630.140     8991.321     4480.845        2.116        0.955      107.771       67.436        0.392      340.586       14.706      865.013
10/01/2014  11:11:00      196.529      159.587      127.549      155.260      136.207      108.251    24105.746    18552.376    11718.287        6.736        2.719      253.163      106.585        0.177      340.104       13.890      865.005
10/01/2014  11:12:00      192.955      117.271       52.363      167.060       86.966      102.408    27909.081     7563.128    10487.461        4.984        2.298      225.797      104.673        0.215      340.060       13.819      865.034
10/01/2014  11:13:00      129.596       93.971       34.147       98.537       77.516       61.865     9709.495     6008.789     3827.275        2.317        0.977      160.080       38.049        0.056      340.634       14.787      865.019
10/01/2014  11:14:00      148.771      100.550       19.101       96.587       61.313       65.556     9329.034     3759.314     4297.585        2.499        0.869      179.563       45.639        0.065      340.824       15.109      865.008
10/01/2014  11:15:00      109.464      103.585       67.320      106.838      109.705       62.256    11414.431    12035.142     3875.841        2.728        1.366      150.706       37.441        0.062      340.598       14.728      864.988
10/01/2014  11:16:00      332.466      216.516      103.216      118.289       93.592       87.176    13992.278     8759.497     7599.609        9.920        1.518      396.753       57.156        0.021      340.174       14.010      864.965
10/01/2014  11:17:00      274.219      177.490       48.372      148.579      124.809       91.281    22075.828    15577.401     8332.155        7.750        2.299      326.648       45.517        0.019      340.318       14.253      864.958
10/01/2014  11:18:00      137.114       46.931       70.504      114.890       94.862       69.249    13199.792     8998.850     4795.369        2.648        1.350      144.924       29.604        0.042      340.606       14.742      864.968
10/01/2014  11:19:00      146.845       64.488       80.568      108.676       72.860       66.607    11810.525     5308.530     4436.476        2.688        1.078      160.381       37.944        0.056      340.476       14.521      864.947
10/01/2014  11:20:00      230.815      147.866       91.089      100.780       91.172       68.468    10156.638     8312.400     4687.858        5.329        1.158      274.116       49.418        0.033      340.123       13.923      864.948
10/01/2014  11:21:00      276.099      195.551      163.880      196.979      160.842      136.868    38800.592    25870.184    18732.759       11.235        4.170      338.335      103.583        0.094      340.254       14.145      864.929
10/01/2014  11:22:00      282.304      159.484      128.982      198.519      154.295      160.313    39409.933    23806.856    25700.386       10.533        4.446      324.238      113.238        0.122      340.201       14.055      864.888
10/01/2014  11:23:00      208.790      179.909      207.525      173.654      150.703      127.044    30155.737    22711.353    16140.184        9.401        3.450      275.609      111.174        0.163      339.978       13.680      864.908
10/01/2014  11:24:00      157.930      171.438      104.756      156.645      115.481      114.994    24537.577    13335.947    13223.520        5.819        2.555      233.094       99.851        0.184      340.196       14.048      864.870
10/01/2014  11:25:00      344.429      241.896       48.984      140.590      122.207       84.353    19765.438    14934.589     7115.379       11.067        2.091      420.886       41.712        0.010      340.199       14.053      864.869
10/01/2014  11:26:00      258.525      141.864       89.939      155.517      120.789      104.189    24185.604    14590.022    10855.336        7.233        2.482      294.891      103.022        0.122      340.114       13.908      864.856
10/01/2014  11:27:00      305.523      204.478       45.689      157.132      111.902       97.808    24690.382    12521.982     9566.332        9.200        2.339      367.635       60.181        0.027      340.105       13.893      864.826
10/01/2014  11:28:00      361.228      203.715       58.149      136.991      121.396      105.043    18766.430    14737.051    11034.012       10.994        2.227      414.711       71.945        0.030      340.434       14.448      864.837
10/01/2014  11:29:00      137.281      121.853      159.989      157.244      122.619       88.258    24725.673    15035.374     7789.531        5.341        2.378      183.560       78.956        0.185      340.445       14.468      864.867
10/01/2014  11:30:00      122.260       -9.558       78.950       94.998      116.680       87.011     9024.609    13614.292     7570.905        2.574        1.510      122.633       80.263        0.428      340.588       14.711      864.874
10/01/2014  11:31:00       79.789       12.487       97.312      104.981      136.261       98.009    11020.911    18567.074     9605.793        2.759        1.960       80.761       91.332        1.279      340.585       14.705      864.869
10/01/2014  11:32:00      136.271       43.372      107.067      147.582      140.972      103.350    21780.398    19873.088    10681.320        4.212        2.617      143.007       97.515        0.465      340.691       14.885      864.864
10/01/2014  11:33:00      190.997      200.222      192.651      170.071      182.292      132.311    28924.107    33230.551    17506.297        9.666        3.983      276.711      121.185        0.192      340.242       14.123      864.869
10/01/2014  11:34:00      168.851      151.041      162.012      171.664      111.013       96.061    29468.674    12323.836     9227.652        6.429        2.551      226.548       80.776        0.127      340.466       14.503      864.834
10/01/2014  11:35:00      119.979      157.521      181.380      131.044      115.693       99.008    17172.444    13384.838     9802.540        5.623        2.018      198.009       74.043        0.140      340.345       14.299      864.824
10/01/2014  11:36:00      211.652      -79.815       62.159      131.686      149.804       96.637    17341.109    22441.201     9338.804        5.207        2.456      226.202      112.307        0.247      340.145       13.961      864.813
10/01/2014  11:37:00      147.786        9.590       99.866      103.859      113.025       85.024    10786.717    12774.651     7229.147        3.134        1.540      148.097       73.789        0.248      340.516       14.588      864.772
10/01/2014  11:38:00      308.583      156.969      131.200      235.872      160.201      116.605    55635.421    25664.271    13596.654       11.597        4.745      346.212       95.400        0.076      340.388       14.372      864.754
10/01/2014  11:39:00      221.145       95.819      111.024      134.630      104.337       92.116    18125.188    10886.134     8485.365        5.395        1.875      241.011       77.613        0.104      340.158       13.983      864.762
10/01/2014  11:40:00      158.536      152.332      127.955      147.999      114.657       91.439    21903.849    13146.244     8361.104        5.405        2.171      219.861       81.385        0.137      340.261       14.157      864.744
10/01/2014  11:41:00      186.617      194.989      202.857      141.332      148.176       88.410    19974.815    21956.019     7816.351        8.186        2.487      269.901       85.146        0.100      340.342       14.292      864.769
10/01/2014  11:42:00      108.276      137.489      136.879      141.586      130.141      115.519    20046.604    16936.696    13344.742        4.984        2.516      175.006       94.349        0.291      340.511       14.582      864.800
10/01/2014  11:43:00      119.203       35.662       82.511      127.814       91.957       73.385    16336.529     8456.112     5385.333        2.623        1.509      124.424       66.550        0.286      340.149       13.968      864.821
10/01/2014  11:44:00      230.806      170.171       13.675      144.856      100.294       63.392    20983.274    10058.802     4018.584        5.873        1.753      286.757       47.063        0.027      340.149       13.967      864.796
10/01/2014  11:45:00      146.211      118.290       17.694       61.231       54.553       37.266     3749.218     2976.011     1388.755        2.190        0.406      188.070       20.672        0.012      340.072       13.839      864.814
10/01/2014  11:46:00      151.972       74.557       30.057       58.873       69.263       33.585     3465.988     4797.326     1127.981        1.947        0.470      169.276       32.499        0.037      340.061       13.820      864.820
10/01/2014  11:47:00       87.819       22.017       66.018      126.846       83.964       74.341    16089.836     7049.892     5526.565        2.061        1.433       90.536       82.971        0.840      340.599       14.729      864.828
10/01/2014  11:48:00      124.931       98.414       74.470      111.526       81.821       68.862    12438.052     6694.638     4741.994        2.735        1.194      159.038       40.442        0.065      340.589       14.712      864.821
10/01/2014  11:49:00      234.763      100.103       42.084      129.960      163.065       82.706    16889.528    26590.051     6840.220        5.860        2.516      255.215       51.228        0.040      340.526       14.604      864.810
10/01/2014  11:50:00      108.177       25.486      100.881      116.982      115.768       64.907    13684.716    13402.306     4212.889        2.691        1.565      111.138       58.520        0.277      340.781       15.036      864.794
10/01/2014  11:51:00      144.788     -101.744       66.336      127.064      172.938      104.199    16145.322    29907.502    10857.420        4.630        2.846      176.962      103.543        0.342      340.788       15.048      864.779
10/01/2014  11:52:00      157.112      -50.011      100.566      147.115      174.382      112.594    21642.678    30409.011    12677.373        5.100        3.236      164.880      116.106        0.496      340.859       15.167      864.768
10/01/2014  11:53:00       94.750       43.656      105.118      113.746      128.566       88.899    12938.187    16529.233     7903.094        2.965        1.869      104.324       98.404        0.890      340.754       14.992      864.810
10/01/2014  11:54:00       76.573       69.402       59.760       93.550      107.357       56.317     8751.509    11525.605     3171.621        1.885        1.172      103.344       31.998        0.096      341.075       15.536      864.824
10/01/2014  11:55:00      147.243       92.055       24.241      108.105       81.317       62.478    11686.792     6612.386     3903.478        2.647        1.110      173.651       38.067        0.048      340.773       15.021      864.827
10/01/2014  11:56:00       98.893       74.097       37.774       78.859       76.210       51.989     6218.760     5807.926     2702.838        1.571        0.736      123.573       28.186        0.052      340.831       15.123      864.815
10/01/2014  11:57:00      109.854     -107.456       47.223      110.084      169.057      108.603    12118.573    28580.226    11794.627        3.916        2.625      153.670      119.080        0.600      340.999       15.406      864.794
10/01/2014  11:58:00      212.966      -11.234       41.428      106.174      168.163       67.554    11272.976    28278.687     4563.584        4.565        2.206      213.262       89.396        0.176      340.238       14.117      864.832
10/01/2014  11:59:00        3.785       19.269       54.781       30.990       31.822       20.480      960.374     1012.632      419.414        0.289        0.120       19.637       21.816        1.234      340.601       14.734      864.818
10/01/2014  12:00:00       25.620        9.641       61.040       40.402       81.892       42.906     1632.299     6706.302     1840.938        0.733        0.509       27.374       42.416        2.401      340.805       15.078      864.788
10/01/2014  12:01:00       87.361      -62.638       26.857       65.027      130.145       53.099     4228.560    16937.652     2819.485        1.813        1.199      107.497       65.027        0.366      340.667       14.845      864.771
10/01/2014  12:02:00      140.890       87.195       25.372       83.431       58.409       56.227     6960.770     3411.558     3161.510        2.081        0.677      165.689       17.386        0.011      340.890       15.222      864.774
10/01/2014  12:03:00       69.069       26.524       29.482       83.094       78.756       59.760     6904.569     6202.431     3571.232        1.151        0.834       73.987       24.130        0.106      341.095       15.569      864.757
10/01/2014  12:04:00      134.311       57.756       77.214      137.073      145.824       81.662    18788.976    21264.737     6668.643        3.702        2.336      146.203       82.493        0.318      341.123       15.615      864.715
10/01/2014  12:05:00      152.205      173.324      148.902      137.235       91.818       77.133    18833.523     8430.508     5949.479        5.429        1.661      230.668       73.937        0.103      340.896       15.229      864.679
10/01/2014  12:06:00      143.222      -71.621       48.127      131.804      190.337      103.152    17372.191    36228.106    10640.329        4.609        3.212      160.131      110.223        0.474      340.866       15.181      864.660
10/01/2014  12:07:00      201.550       30.962      111.953      139.728      280.481      144.872    19523.908    78669.852    20987.901        8.663        5.959      203.914      179.971        0.779      340.838       15.130      864.619
10/01/2014  12:08:00      170.515      124.002      109.220      135.003       95.689       88.104    18225.726     9156.469     7762.240        4.576        1.757      210.836       62.064        0.087      340.619       14.762      864.678
10/01/2014  12:09:00      216.955       87.072       99.830      138.870       83.737       77.479    19284.803     7011.949     6002.999        4.845        1.615      233.776       69.939        0.090      340.659       14.830      864.685
10/01/2014  12:10:00      231.477      187.432      182.429      151.487      165.085      134.677    22948.236    27252.961    18137.790        9.515        3.417      297.846      130.719        0.193      340.351       14.309      864.674
10/01/2014  12:11:00      183.972      165.402      155.356      126.218      129.005      101.100    15930.872    16642.350    10221.243        6.406        2.140      247.393       84.933        0.118      340.326       14.266      864.698
10/01/2014  12:12:00      131.580      103.286      105.762      127.374      111.038       79.682    16224.214    12329.388     6349.237        3.703        1.745      167.276       73.911        0.195      340.703       14.905      864.691
10/01/2014  12:13:00      133.615     -116.260       21.399       77.600      101.225       60.115     6021.789    10246.591     3613.864        2.585        0.994      177.114       54.957        0.096      340.600       14.731      864.678
10/01/2014  12:14:00       40.232        7.174       33.060       72.136       65.726       43.821     5203.658     4319.903     1920.309        0.710        0.572       40.867       25.814        0.399      341.087       15.557      864.659
10/01/2014  12:15:00       78.695       73.725       72.752       71.190       56.114       56.145     5068.019     3148.779     3152.229        1.414        0.568      107.834       38.593        0.128      341.143       15.651      864.649
10/01/2014  12:16:00       55.944       79.721       72.597       53.259       61.856       58.847     2836.475     3826.192     3462.943        1.244        0.506       97.392       47.688        0.240      341.078       15.541      864.637
10/01/2014  12:17:00       77.898       31.664       86.029      117.527      116.276      112.306    13812.573    13520.075    12612.556        2.720        1.997       84.088       99.074        1.388      340.960       15.340      864.599
10/01/2014  12:18:00       86.317        4.915       58.220      107.196      103.684       74.275    11490.995    10750.394     5516.795        1.931        1.388       86.457       72.174        0.697      340.904       15.245      864.572
10/01/2014  12:19:00       30.521      -29.056       55.718       63.084      111.750       63.631     3979.529    12488.106     4048.950        1.270        1.026       42.140       74.855        3.155      341.281       15.885      864.544
10/01/2014  12:20:00       72.247       11.565       90.186       99.618      122.515       76.436     9923.833    15010.039     5842.452        2.213        1.539       73.167       84.991        1.349      341.189       15.726      864.546
10/01/2014  12:21:00      155.744      137.666       92.622      125.055       97.750       87.955    15638.654     9555.040     7736.142        4.235        1.646      207.865       60.027        0.083      341.181       15.712      864.539
10/01/2014  12:22:00      129.166       73.066      132.087      135.189      146.807       98.076    18276.038    21552.354     9618.906        4.445        2.472      148.399       94.529        0.406      341.213       15.769      864.509
10/01/2014  12:23:00      102.312     -147.349       18.954       93.074      152.408       90.460     8662.681    23228.098     8183.057        3.630        2.004      179.387       92.296        0.265      341.072       15.529      864.524
10/01/2014  12:24:00      273.758     -350.394      -35.245       93.385       82.183       52.797     8720.808     6754.102     2787.498       10.861        0.913      444.657       41.847        0.009      340.550       14.644      864.505
10/01/2014  12:25:00      168.216     -172.676      -17.156       89.540       93.577       53.361     8017.468     8756.674     2847.394        3.901        0.981      241.068       58.335        0.059      340.699       14.897      864.484
10/01/2014  12:26:00      126.672     -113.463       30.787      118.941      195.583       78.755    14146.947    38252.761     6202.385        4.423        2.930      170.058      109.347        0.413      341.178       15.708      864.439
10/01/2014  12:27:00       38.196       -0.537       75.522       57.891       79.057       50.649     3351.326     6250.030     2565.352        0.966        0.608       38.199       52.435        1.884      341.433       16.142      864.429
10/01/2014  12:28:00        5.057      -10.530       21.518       56.089       59.162       36.455     3145.965     3500.131     1328.983        0.429        0.399       11.682       35.672        9.325      341.284       15.891      864.404
10/01/2014  12:29:00       81.681      -39.552       45.257      103.751      112.280       70.971    10764.217    12606.767     5036.921        1.934        1.420       90.753       81.794        0.812      341.221       15.781      864.371
10/01/2014  12:30:00      115.726       70.184       88.125      111.574      107.972       71.328    12448.859    11657.917     5087.716        2.763        1.460      135.345       66.702        0.243      341.079       15.541      864.363
10/01/2014  12:31:00      213.453      142.237       93.195      126.309       87.179       87.502    15953.866     7600.169     7656.534        5.284        1.561      256.502       68.986        0.072      341.004       15.414      864.379
10/01/2014  12:32:00      112.253       48.771       90.435      114.326      107.205       84.318    13070.478    11492.839     7109.593        2.741        1.584      122.390       74.088        0.366      341.300       15.915      864.396
10/01/2014  12:33:00      121.905       83.567      128.791      106.220      103.485       81.409    11282.747    10709.189     6627.444        3.352        1.431      147.798       71.300        0.233      341.235       15.805      864.411
10/01/2014  12:34:00      106.525      129.079      117.406       99.790       95.160       64.114     9958.124     9055.489     4110.644        3.245        1.156      167.359       28.342        0.029      341.245       15.822      864.428
10/01/2014  12:35:00      152.184      -38.002       41.880      129.463      180.455       67.011    16760.561    32564.047     4490.497        4.008        2.691      156.857       71.320        0.207      341.282       15.884      864.377
10/01/2014  12:36:00      106.216      113.393      106.795      120.917      104.191       86.905    14620.972    10855.864     7552.565        3.428        1.651      155.370       70.235        0.204      341.427       16.129      864.397
10/01/2014  12:37:00       94.762      119.990      145.546      120.566       98.672       85.423    14536.063     9736.257     7297.157        3.806        1.578      152.897       64.186        0.176      341.303       15.920      864.394
10/01/2014  12:38:00      295.643      164.533       47.650      177.308      125.160       89.146    31437.997    15664.992     7946.936        8.589        2.752      338.343       98.218        0.084      340.835       15.127      864.421
10/01/2014  12:39:00      235.522      172.537      122.669      163.449      138.025      121.490    26715.464    19050.931    14759.830        8.040        3.026      291.958      108.435        0.138      340.937       15.300      864.425
10/01/2014  12:40:00      262.704      155.388       43.702      146.028      113.873       81.024    21324.211    12967.042     6564.891        6.796        2.043      305.219       54.436        0.032      340.933       15.293      864.438
10/01/2014  12:41:00      178.126       97.392       59.788      116.848      110.500       67.786    13653.468    12210.275     4594.936        3.762        1.523      203.013       42.495        0.044      341.218       15.776      864.442
10/01/2014  12:42:00      148.810       91.334       69.788      129.078      114.372       56.176    16661.164    13080.963     3155.754        3.412        1.645      174.604       47.559        0.074      341.169       15.694      864.459
10/01/2014  12:43:00       69.811      107.995      116.893       98.912       79.137       84.686     9783.486     6262.629     7171.660        2.671        1.161      128.594       68.598        0.285      341.063       15.515      864.475
10/01/2014  12:44:00       74.576      -58.789       55.533       68.754      126.464       72.953     4727.104    15993.102     5322.179        1.907        1.302       94.962       79.618        0.703      341.315       15.939      864.503
10/01/2014  12:45:00      193.633      127.015       45.820      134.683       81.570       58.160    18139.525     6653.689     3382.541        4.195        1.409      231.574       59.185        0.065      340.865       15.178      864.510
10/01/2014  12:46:00      140.439       97.243       27.928       76.139       51.035       41.418     5797.100     2604.553     1715.423        2.004        0.506      170.819       32.939        0.037      340.507       14.574      864.501
10/01/2014  12:47:00       74.626       83.773       73.781       89.602       48.438       46.482     8028.456     2346.259     2160.612        1.528        0.627      112.191       44.741        0.159      340.822       15.107      864.495
10/01/2014  12:48:00       62.084      -15.654       54.823       78.901      146.844       73.873     6225.326    21563.127     5457.178        2.017        1.662       64.027       78.514        1.504      340.938       15.303      864.496
10/01/2014  12:49:00       93.235      104.228      138.823      106.944      117.898       78.596    11437.016    13899.929     6177.299        3.517        1.576      139.843       81.104        0.336      340.932       15.291      864.501
10/01/2014  12:50:00      135.148      169.990      191.208      150.757      133.792      106.841    22727.613    17900.266    11415.019        6.787        2.602      217.167       98.849        0.207      340.787       15.046      864.534
10/01/2014  12:51:00       93.557       76.599       85.950       89.007       90.771       79.471     7922.306     8239.315     6315.585        2.224        1.124      120.914       71.900        0.354      341.113       15.599      864.558
10/01/2014  12:52:00      207.199       89.048       63.462      132.802       91.746       80.907    17636.481     8417.268     6545.936        4.374        1.630      225.524       58.282        0.067      341.038       15.471      864.565
10/01/2014  12:53:00      103.360      153.922      172.833      105.859      151.883      106.814    11206.186    23068.357    11409.263        5.496        2.284      185.405      103.263        0.310      341.322       15.953      864.574
10/01/2014  12:54:00      145.854        1.295       87.306      114.443      135.679       89.577    13097.155    18408.851     8024.108        3.421        1.977      145.859       68.330        0.219      341.258       15.844      864.594
10/01/2014  12:55:00      244.075      178.025      128.947      145.345      113.148      118.167    21125.142    12802.380    13963.492        7.788        2.395      302.101       91.343        0.091      340.720       14.932      864.599
10/01/2014  12:56:00      231.689      139.157       60.311       92.048       72.755       72.201     8472.926     5293.237     5213.019        4.783        0.949      270.268       56.593        0.044      340.690       14.884      864.607
10/01/2014  12:57:00      115.291       86.234       52.893      111.372       86.540       50.213    12403.709     7489.186     2521.295        2.297        1.121      143.973       40.410        0.079      340.726       14.945      864.571
10/01/2014  12:58:00      239.835      146.355       68.961      184.179      111.848      102.890    33921.987    12509.878    10586.398        7.035        2.851      280.964       96.111        0.117      340.886       15.213      864.521
10/01/2014  12:59:00      141.084      111.309      100.459      121.489       84.017       79.785    14759.600     7058.920     6365.656        3.528        1.409      179.707       63.102        0.123      340.833       15.124      864.545
10/01/2014  13:00:00       89.248       40.914       47.633       88.056       57.962       54.067     7753.885     3359.585     2923.199        1.297        0.702       98.180       37.384        0.145      340.977       15.370      864.543
10/01/2014  13:01:00       38.718        8.651        1.290       41.990       38.058       26.474     1763.137     1448.427      700.864        0.274        0.196       39.673       15.383        0.150      341.284       15.890      864.533
10/01/2014  13:02:00       18.351       50.891       66.198       40.894       43.681       31.927     1672.279     1908.054     1019.361        0.595        0.230       54.099       24.334        0.202      341.490       16.239      864.525
10/01/2014  13:03:00       22.688       61.033       84.126       40.037       81.879       62.339     1602.940     6704.122     3886.125        1.175        0.610       65.113       65.383        1.008      341.273       15.870      864.500
10/01/2014  13:04:00      139.785      113.176       62.510      103.874       83.054       80.716    10789.721     6897.900     6514.994        3.023        1.210      179.858       57.542        0.102      341.133       15.633      864.490
10/01/2014  13:05:00      168.163      102.566       50.312       90.869       56.290       46.261     8257.192     3168.597     2140.083        2.745        0.678      196.973       27.125        0.019      341.107       15.589      864.482
10/01/2014  13:06:00      133.765       56.782       80.120      124.683      119.297       74.223    15545.854    14231.664     5509.066        3.141        1.764      145.318       69.726        0.230      341.288       15.894      864.460
10/01/2014  13:07:00      162.040       63.287       15.067       96.420      110.607       68.989     9296.819    12233.978     4759.433        2.839        1.315      173.961       44.375        0.065      341.666       16.534      864.451
10/01/2014  13:08:00       63.475      -53.670       26.183      113.190      145.233       62.191    12811.975    21092.570     3867.683        2.268        1.889       83.123       65.740        0.625      341.825       16.805      864.448
10/01/2014  13:09:00      189.916       92.076       54.772      105.316       95.602       66.866    11091.539     9139.750     4471.087        3.612        1.235      211.059       45.145        0.046      341.275       15.872      864.438
10/01/2014  13:10:00      117.478       76.821       84.919       98.372       90.881       76.844     9676.969     8259.371     5904.927        2.537        1.192      140.366       66.190        0.222      341.363       16.022      864.421
10/01/2014  13:11:00       50.435       -3.333       64.302       95.087      129.529       44.218     9041.555    16777.713     1955.262        1.723        1.389       50.545       41.084        0.661      341.630       16.474      864.404
10/01/2014  13:12:00      187.366     -190.577       36.339      158.247      208.072      104.310    25042.205    43294.157    10880.491        7.597        3.961      267.256      134.201        0.252      341.440       16.151      864.375
10/01/2014  13:13:00      124.946       24.089      143.001      142.950      141.581       81.248    20434.700    20045.239     6601.201        4.185        2.354      127.247       83.031        0.426      341.561       16.356      864.397
10/01/2014  13:14:00      160.643     -164.598        2.102      135.216      184.377       97.195    18283.398    33994.706     9446.809        5.730        3.086      229.997      111.113        0.233      341.292       15.900      864.415
10/01/2014  13:15:00       71.598     -105.793       30.691      119.776      145.798       76.518    14346.324    21256.971     5855.038        2.935        2.073      127.744       82.358        0.416      341.369       16.034      864.426
10/01/2014  13:16:00       -3.148      -48.485       20.228       49.141       78.758       49.519     2414.853     6202.832     2452.118        0.692        0.553       48.587       16.766        0.119      341.528       16.303      864.427
10/01/2014  13:17:00      123.236      123.106       96.628      125.525       82.497       75.324    15756.589     6805.688     5673.663        3.395        1.412      174.190       50.628        0.084      341.365       16.026      864.423
10/01/2014  13:18:00      121.763       26.316       71.185      107.583      143.980       73.464    11574.090    20730.132     5397.015        2.914        1.885      124.575       78.703        0.399      341.550       16.338      864.373
10/01/2014  13:19:00      244.665      128.915       72.703      134.898      119.042       93.064    18197.487    14171.085     8660.991        6.139        2.051      276.550       53.072        0.037      341.413       16.105      864.346
10/01/2014  13:20:00      158.852      106.544       75.439      151.072      101.347      121.656    22822.828    10271.301    14800.164        4.508        2.395      191.273      105.358        0.303      341.274       15.870      864.336
10/01/2014  13:21:00      184.715      141.400       48.824      141.374       90.298       90.764    19986.697     8153.722     8238.082        4.643        1.819      232.624       56.095        0.058      341.141       15.643      864.332
10/01/2014  13:22:00      204.787      151.929       48.706      171.434      105.889      102.304    29389.493    11212.502    10466.078        5.922        2.553      254.990       63.428        0.062      341.136       15.636      864.298
10/01/2014  13:23:00      111.608      128.334      -17.749       84.781       95.590       63.206     7187.900     9137.506     3995.039        2.478        1.016      170.076       56.043        0.109      341.221       15.781      864.295
10/01/2014  13:24:00      106.009       66.584       22.221       63.844       62.072       42.433     4076.091     3852.942     1800.531        1.295        0.486      125.185       17.392        0.019      341.116       15.605      864.304
10/01/2014  13:25:00       82.942       68.778       15.664       69.329       53.533       45.133     4806.476     2865.755     2037.029        1.078        0.485      107.749       32.809        0.093      341.183       15.718      864.304
10/01/2014  13:26:00      140.770      115.820       23.730       84.534       53.682       56.615     7145.965     2881.797     3205.243        2.351        0.662      182.292       32.677        0.032      341.282       15.884      864.294
10/01/2014  13:27:00      161.350       83.775       60.558      113.458       91.417       83.893    12872.633     8357.073     7037.989        3.249        1.413      181.802       70.650        0.151      341.505       16.261      864.283
10/01/2014  13:28:00       92.602      -31.285       22.344       91.993      121.575       48.583     8462.704    14780.447     2360.299        1.782        1.280       97.744       31.478        0.104      341.642       16.496      864.301
10/01/2014  13:29:00      212.055      117.028       80.752      121.267      128.431       86.465    14705.615    16494.438     7476.240        5.192        1.934      242.204       75.013        0.096      341.502       16.255      864.312
10/01/2014  13:30:00      145.197       86.467       72.071      148.029      100.387       84.184    21912.465    10077.594     7086.912        3.641        1.954      168.993       72.507        0.184      341.180       15.711      864.311
10/01/2014  13:31:00      194.961      118.566       78.456      107.818       96.730       85.742    11624.699     9356.652     7351.700        4.327        1.417      228.183       64.780        0.081      341.127       15.622      864.292
10/01/2014  13:32:00      268.455      172.585       25.527      100.312       90.204       71.681    10062.468     8136.802     5138.207        6.292        1.167      319.145       51.625        0.026      341.099       15.573      864.302
10/01/2014  13:33:00      260.869      156.938       82.975      121.779       84.435       87.640    14830.061     7129.215     7680.823        6.460        1.482      304.438       63.359        0.043      341.319       15.946      864.273
10/01/2014  13:34:00      231.924      165.104       90.185      112.971       92.884       87.913    12762.423     8627.394     7728.706        5.915        1.456      284.689       69.532        0.060      341.240       15.811      864.270
10/01/2014  13:35:00      244.057      155.321       84.448      100.245       85.042       82.731    10049.031     7232.062     6844.445        5.747        1.206      289.289       36.022        0.016      341.076       15.532      864.255
10/01/2014  13:36:00      188.438      169.401      165.293      108.237      107.818       93.829    11715.146    11624.778     8803.814        6.183        1.607      253.388       76.582        0.091      340.982       15.375      864.252
10/01/2014  13:37:00      150.870        6.906       53.226      128.200      167.083       74.971    16435.266    27916.578     5620.617        3.780        2.499      151.028       72.613        0.231      341.238       15.810      864.223
10/01/2014  13:38:00      117.214      -30.482       71.386       90.730      131.875       89.020     8231.923    17391.003     7924.573        2.665        1.677      121.113       75.203        0.386      341.376       16.043      864.213
10/01/2014  13:39:00       49.851       63.941       76.948       59.629       65.751       51.645     3555.565     4323.187     2667.234        1.152        0.527       81.077       45.226        0.311      341.210       15.766      864.217
10/01/2014  13:40:00      156.155      -67.920       80.800      135.862      161.438       85.514    18458.398    26062.177     7312.586        4.367        2.592      170.287       89.310        0.275      341.438       16.147      864.179
10/01/2014  13:41:00       91.762       51.315      100.984      106.717      152.002       87.217    11388.573    23104.661     7606.718        3.167        2.105      105.135       98.990        0.887      341.530       16.305      864.152
10/01/2014  13:42:00      111.652      -34.135       45.871      112.327      118.421       82.220    12617.258    14023.422     6760.129        2.456        1.670      116.753       86.136        0.544      341.316       15.942      864.154
10/01/2014  13:43:00      126.249     -146.641        0.414       74.537      157.918       70.242     5555.755    24938.192     4933.926        3.643        1.771      193.500       82.536        0.182      341.583       16.393      864.110
10/01/2014  13:44:00       26.120      -17.360       51.730       46.257       96.575       43.012     2139.732     9326.727     1850.002        0.849        0.666       31.363       50.349        2.577      341.704       16.602      864.088
10/01/2014  13:45:00      133.528      -65.103       54.457      177.865      157.523      100.289    31635.810    24813.629    10057.942        4.576        3.325      148.553      114.519        0.594      341.648       16.506      864.049
10/01/2014  13:46:00      115.336       27.630      127.731      104.158      166.317      112.419    10848.825    27661.452    12637.987        4.076        2.557      118.599      107.170        0.817      341.416       16.112      864.052
10/01/2014  13:47:00       40.575       73.621      110.328      115.079       97.966       65.857    13243.228     9597.405     4337.164        2.320        1.359       84.062       52.524        0.390      341.613       16.446      864.030
10/01/2014  13:48:00       -6.862      -13.211       17.345       51.839       52.361       32.624     2687.286     2741.709     1064.344        0.351        0.325       14.887       33.782        5.150      341.726       16.639      864.043
10/01/2014  13:49:00      102.579     -112.326        4.591       72.672      120.815       52.868     5281.265    14596.361     2795.077        2.291        1.134      152.117       67.752        0.198      341.692       16.581      864.024
10/01/2014  13:50:00      121.723      -78.971       12.489       87.624      144.879       62.873     7677.898    20989.885     3953.066        2.691        1.631      145.096       72.645        0.251      341.487       16.232      863.998
10/01/2014  13:51:00      221.552       98.213       18.722      143.636      106.734       78.899    20631.229    11392.134     6225.130        4.866        1.912      242.345       58.554        0.058      341.485       16.228      864.016
10/01/2014  13:52:00      119.555       99.877       16.884       80.560       71.191       63.483     6489.906     5068.176     4030.138        2.007        0.779      155.784       47.317        0.092      341.452       16.174      864.023
10/01/2014  13:53:00      236.052      119.455       70.806      144.035      117.314       74.007    20746.109    13762.644     5476.964        5.749        1.999      264.557       60.423        0.052      341.612       16.444      864.018
10/01/2014  13:54:00      245.721      168.107      136.511      176.155      146.855      112.541    31030.600    21566.458    12665.567        8.626        3.263      297.723       94.824        0.101      341.410       16.100      864.010
10/01/2014  13:55:00      250.001      185.295      165.594      186.772      128.976      128.137    34883.830    16634.847    16418.981        9.609        3.397      311.183      115.007        0.137      341.290       15.898      863.995
10/01/2014  13:56:00      162.535       89.675      104.052      102.791      133.273       99.941    10566.067    17761.745     9988.277        4.179        1.916      185.632       88.068        0.225      341.033       15.462      864.026
10/01/2014  13:57:00       47.976       23.774       79.065       67.223       77.859       59.418     4518.947     6062.060     3530.518        1.161        0.706       53.543       61.481        1.318      341.380       16.053      864.015
10/01/2014  13:58:00       67.085       69.117       94.456       70.909       60.267       46.405     5028.060     3632.132     2153.421        1.450        0.541       96.321       36.528        0.144      341.518       16.286      863.995
10/01/2014  13:59:00       34.084       40.815       29.886       69.227       63.956       48.033     4792.380     4090.378     2307.146        0.745        0.559       53.175       31.877        0.359      341.845       16.840      863.990
10/01/2014  14:00:00      176.910       81.776       34.113      133.367       90.458       71.375    17786.727     8182.697     5094.382        3.510        1.553      194.896       48.506        0.062      341.735       16.651      863.964
10/01/2014  14:01:00      197.974       50.483       63.015      155.271      126.053       80.650    24109.234    15889.288     6504.475        4.610        2.325      204.309       58.394        0.082      341.491       16.237      863.943
10/01/2014  14:02:00      151.241      137.710      132.535      112.390       89.140       84.745    12631.606     7945.968     7181.698        4.358        1.388      204.544       63.907        0.098      341.574       16.379      863.957
10/01/2014  14:03:00      156.634      203.921      165.034      109.599       95.766       99.122    12011.859     9171.117     9825.139        6.218        1.550      257.135       81.349        0.100      341.063       15.511      863.986
10/01/2014  14:04:00      101.149       35.927       51.468       81.818       94.263       55.897     6694.127     8885.515     3124.426        1.643        0.935      107.340       38.339        0.128      341.199       15.745      863.981
10/01/2014  14:05:00      256.304      163.548       67.395      132.422      103.552       80.393    17535.686    10722.974     6462.982        6.585        1.736      304.039       46.728        0.024      341.433       16.140      863.956
10/01/2014  14:06:00      248.002      124.649       41.843      151.035       84.947       78.434    22811.576     7216.013     6151.866        5.748        1.809      277.565       50.994        0.034      341.535       16.312      863.928
10/01/2014  14:07:00      173.232      102.456       59.319      114.471       91.039       77.454    13103.682     8288.132     5999.083        3.570        1.370      201.263       56.886        0.080      341.787       16.740      863.922
10/01/2014  14:08:00      308.675      200.421       59.542      111.524       88.631       82.629    12437.604     7855.505     6827.571        8.305        1.356      368.034       44.160        0.014      341.429       16.132      863.927
10/01/2014  14:09:00      215.094      123.407       58.050      134.514       93.573       93.459    18093.938     8755.931     8734.520        5.022        1.779      247.981       68.973        0.077      341.263       15.852      863.923
10/01/2014  14:10:00      163.176       93.076       35.625      135.018       86.049       61.048    18229.776     7404.439     3726.891        3.295        1.468      187.855       41.427        0.049      341.601       16.425      863.946
10/01/2014  14:11:00       73.124       24.942       63.787       81.601       90.476       66.105     6658.669     8185.890     4369.843        1.462        0.961       77.261       62.102        0.646      341.521       16.289      863.939
10/01/2014  14:12:00      206.396      122.922       20.315       94.809       89.726       69.105     8988.799     8050.681     4775.480        3.996        1.091      240.228       38.675        0.026      341.320       15.948      863.916
10/01/2014  14:13:00      110.072      153.635        8.620      116.414       90.502       64.460    13552.233     8190.700     4155.119        3.084        1.295      188.996       54.101        0.082      341.512       16.274      863.920
10/01/2014  14:14:00      113.347      216.133      -26.540       92.437      106.200       65.048     8544.596    11278.365     4231.191        4.216        1.203      244.051       58.870        0.058      341.352       16.001      863.902
10/01/2014  14:15:00      233.820      148.913       17.930       62.102       57.067       47.005     3856.663     3256.661     2209.517        4.324        0.466      277.213       27.572        0.010      341.301       15.914      863.904
10/01/2014  14:16:00      166.642       95.816       21.973       81.996       48.002       54.150     6723.354     2304.166     2932.216        2.469        0.598      192.224       16.806        0.008      341.419       16.116      863.899
10/01/2014  14:17:00      148.581       87.521       42.478       53.255       48.340       40.303     2836.103     2336.753     1624.371        1.917        0.340      172.442       22.979        0.018      341.241       15.816      863.901
10/01/2014  14:18:00      132.371       47.985       43.876       67.446       54.549       51.234     4548.991     2975.581     2624.937        1.595        0.507      140.800       39.595        0.079      341.336       15.978      863.895
10/01/2014  14:19:00      166.030      169.467       39.493      130.507       88.732       70.727    17032.037     7873.380     5002.267        4.387        1.495      237.245       54.067        0.052      341.505       16.262      863.880
10/01/2014  14:20:00      134.210      100.300       45.893      117.050       83.861       72.078    13700.636     7032.714     5195.182        2.805        1.296      167.548       28.499        0.029      341.655       16.517      863.900
10/01/2014  14:21:00      147.264       32.643       23.469       91.344       77.448       51.344     8343.772     5998.218     2636.245        2.014        0.849      150.838       30.599        0.041      341.803       16.768      863.868
10/01/2014  14:22:00      184.015      127.621       37.317      104.621       88.141       88.341    10945.628     7768.857     7804.137        3.903        1.326      223.939       66.505        0.088      341.947       17.011      863.859
10/01/2014  14:23:00      174.830       97.402       96.105      138.882       95.961       80.604    19288.075     9208.590     6497.018        4.214        1.750      200.132       76.982        0.148      341.840       16.828      863.843
10/01/2014  14:24:00      123.369      200.610      176.363      117.535      128.706       93.175    13814.550    16565.155     8681.599        6.281        1.953      235.509       75.629        0.103      341.796       16.755      863.855
10/01/2014  14:25:00      172.889      139.036      117.373      144.507      122.074       75.689    20882.259    14901.977     5728.783        5.225        2.076      221.860       70.961        0.102      341.648       16.504      863.882
10/01/2014  14:26:00      159.678      152.213       95.926      135.721       77.105       60.276    18420.070     5945.177     3633.195        4.293        1.400      220.604       68.977        0.098      341.550       16.337      863.888
10/01/2014  14:27:00      206.071      183.323      131.104      110.239       92.307       89.769    12152.545     8520.564     8058.499        6.099        1.437      275.813       75.648        0.075      341.425       16.124      863.881
10/01/2014  14:28:00       91.176      103.759       70.863       73.613       62.684       58.508     5418.909     3929.261     3423.206        1.843        0.639      138.127       45.867        0.110      341.343       15.989      863.886
10/01/2014  14:29:00       45.447       66.074       71.435       56.369       62.386       71.694     3177.511     3891.994     5140.041        1.187        0.610       80.195       45.552        0.323      341.693       16.582      863.867
10/01/2014  14:30:00      138.466       61.192       53.036       79.216       84.702       68.118     6275.243     7174.471     4640.111        2.191        0.904      151.385       24.826        0.027      341.861       16.865      863.853
10/01/2014  14:31:00      158.829      105.492       82.682       98.042       77.307       76.249     9612.171     5976.338     5813.986        3.229        1.070      190.670       61.454        0.104      341.803       16.767      863.852
10/01/2014  14:32:00       88.030       99.957       88.901      111.129       87.623       86.837    12349.563     7677.844     7540.686        2.660        1.378      133.194       69.881        0.275      341.770       16.710      863.846
10/01/2014  14:33:00       99.386       58.016       84.856      115.372      113.676       76.245    13310.596    12922.216     5813.246        2.624        1.602      115.080       73.426        0.407      341.901       16.933      863.844
10/01/2014  14:34:00      107.039       15.986       95.071      133.223      153.571      103.225    17748.256    23584.012    10655.429        3.636        2.599      108.226      119.087        1.211      341.894       16.922      863.827
10/01/2014  14:35:00      147.286       78.740       92.412      119.551       91.672       77.281    14292.353     8403.721     5972.293        3.255        1.433      167.013       62.195        0.139      341.624       16.464      863.807
10/01/2014  14:36:00       75.975     -114.248       11.241       56.978       69.866       52.032     3246.522     4881.228     2707.329        1.489        0.542      137.204       37.015        0.073      341.684       16.567      863.786
10/01/2014  14:37:00       54.048        1.358       32.189       70.052       78.200       38.704     4907.232     6115.249     1497.981        0.824        0.626       54.065       33.950        0.394      342.004       17.110      863.766
10/01/2014  14:38:00       92.592       53.606       35.947       94.065       76.226       57.424     8848.252     5810.422     3297.470        1.534        0.898      106.990       54.623        0.261      341.923       16.971      863.758
10/01/2014  14:39:00      189.604       92.770       24.942      108.834       79.685       64.716    11844.844     6349.688     4188.131        3.378        1.119      211.083       44.950        0.045      341.620       16.456      863.733
10/01/2014  14:40:00       75.255       51.449       20.714       98.759       47.364       45.478     9753.331     2243.303     2068.276        1.140        0.703       91.161       23.465        0.066      341.959       17.033      863.719
10/01/2014  14:41:00      176.490      158.164        7.537      121.670       71.170       66.148    14803.513     5065.112     4375.582        4.023        1.212      236.990       50.859        0.046      341.817       16.790      863.708
10/01/2014  14:42:00      150.148       73.327       34.263      133.689       93.065       50.546    17872.867     8661.060     2554.850        2.909        1.454      167.097       15.064        0.008      341.906       16.941      863.693
10/01/2014  14:43:00       35.763      240.634      -19.497      118.316      138.058       68.551    13998.780    19059.963     4699.244        4.865        1.888      243.277       75.247        0.096      341.607       16.435      863.656
10/01/2014  14:44:00      235.958      204.209       86.451      240.447      119.234      102.256    57814.876    14216.856    10456.325        9.366        4.124      312.054       91.706        0.086      341.675       16.551      863.598
10/01/2014  14:45:00      184.373      206.121      202.547      164.122      123.767      123.835    26936.181    15318.335    15335.062        8.754        2.879      276.549      105.349        0.145      341.552       16.341      863.620
10/01/2014  14:46:00      184.503       85.437       84.666      137.483      145.719       98.526    18901.498    21234.058     9707.332        4.917        2.492      203.325       88.619        0.190      341.318       15.945      863.643
10/01/2014  14:47:00       55.697       19.531       76.480       90.249       84.986       68.561     8144.909     7222.703     4700.656        1.470        1.003       59.022       69.872        1.401      341.574       16.381      863.627
10/01/2014  14:48:00       60.506       48.685       45.051       86.589       59.217       56.773     7497.601     3506.665     3223.181        1.114        0.711       77.661       43.893        0.319      341.913       16.956      863.638
10/01/2014  14:49:00      121.636       42.759       25.146       95.839       54.951       53.327     9185.086     3019.636     2843.736        1.615        0.752      128.933       36.247        0.079      341.878       16.897      863.642
10/01/2014  14:50:00      131.065       89.551       29.171      113.085       83.972       67.423    12788.137     7051.360     4545.830        2.521        1.219      158.737       45.089        0.081      342.015       17.127      863.637
10/01/2014  14:51:00      178.866       43.416       26.607      123.939       97.257       66.739    15360.807     9458.856     4454.030        3.193        1.464      184.060       52.069        0.080      342.002       17.105      863.635
10/01/2014  14:52:00       65.884       33.162       54.492       68.967       91.134       69.365     4756.467     8305.452     4811.551        1.314        0.894       73.759       44.226        0.360      342.346       17.691      863.667
10/01/2014  14:53:00       36.105      -62.597       15.649       52.403       94.787       53.928     2746.126     8984.663     2908.184        1.005        0.732       72.263       59.595        0.680      341.949       17.017      863.684
10/01/2014  14:54:00      153.575       83.066       63.133       98.280       78.212       68.951     9658.983     6117.144     4754.257        2.750        1.027      174.600       39.096        0.050      341.637       16.485      863.695
10/01/2014  14:55:00      110.261       71.081       50.276       99.269       90.719       49.329     9854.375     8229.849     2433.307        2.012        1.026      131.187       34.822        0.070      341.925       16.975      863.702
10/01/2014  14:56:00       41.706       11.137       37.780       84.729       59.752       40.949     7178.990     3570.354     1676.857        0.786        0.621       43.167       27.851        0.416      341.948       17.015      863.699
10/01/2014  14:57:00       79.663       39.973       82.914      121.394       71.320       61.102    14736.562     5086.483     3733.503        1.918        1.178       89.129       47.014        0.278      342.034       17.161      863.705
10/01/2014  14:58:00       20.270       26.766       77.803       61.089       90.754       52.452     3731.910     8236.250     2751.214        1.095        0.736       33.575       61.526        3.358      342.183       17.415      863.707
10/01/2014  14:59:00       56.606        8.004       43.673       54.322       73.655       42.045     2950.872     5425.062     1767.769        0.766        0.507       57.169       29.292        0.263      341.952       17.021      863.723
10/01/2014  15:00:00      100.428      114.291      137.793      115.038      100.629       90.268    13233.817    10126.230     8148.248        3.682        1.575      152.145       85.098        0.313      341.692       16.576      863.721
10/01/2014  15:01:00      183.269      171.315      156.101      145.079       96.710       82.098    21047.851     9352.798     6740.099        6.222        1.857      250.871       70.445        0.079      341.659       16.522      863.722
10/01/2014  15:02:00      132.452      150.460      126.557       83.980       76.617       67.865     7052.608     5870.098     4605.618        3.686        0.876      200.454       53.499        0.071      341.559       16.353      863.746
10/01/2014  15:03:00       73.988        0.266       52.518       69.995       75.241       52.032     4899.319     5661.258     2707.298        1.075        0.663       73.988       40.828        0.304      341.666       16.537      863.745
10/01/2014  15:04:00       19.057      -75.340        1.087       34.996       45.915       28.397     1224.727     2108.231      806.396        0.509        0.207       77.713       26.978        0.121      341.722       16.631      863.724
10/01/2014  15:05:00       27.114        2.244       44.601       28.897       47.050       36.765      835.014     2213.707     1351.687        0.356        0.220       27.206       34.621        1.619      341.824       16.806      863.718
10/01/2014  15:06:00        2.317        9.343       23.917       53.705       47.566       40.568     2884.205     2262.541     1645.767        0.373        0.340        9.626       38.380       15.897      341.850       16.850      863.715
10/01/2014  15:07:00       33.078      -45.710      -11.545       46.744       90.714       25.881     2184.960     8228.993      669.825        0.720        0.554       56.423       25.040        0.197      341.944       17.009      863.706
10/01/2014  15:08:00      200.927       91.567       44.125      106.184       48.155       53.575    11275.071     2318.903     2870.242        3.358        0.823      220.808       50.446        0.052      341.949       17.012      863.674
10/01/2014  15:09:00      108.954       69.609       49.022       94.771       63.761       66.225     8981.585     4065.488     4385.795        1.827        0.872      129.292       57.500        0.198      342.114       17.297      863.654
10/01/2014  15:10:00       25.480       31.073       23.827       51.647       55.874       33.211     2667.436     3121.872     1102.979        0.454        0.345       40.184       30.993        0.595      342.303       17.619      863.640
10/01/2014  15:11:00       70.007       68.163       94.489      123.794       64.461       65.113    15324.934     4155.179     4239.759        2.109        1.186       97.709       67.011        0.470      342.121       17.309      863.615
10/01/2014  15:12:00       77.117       37.694       58.548      127.341       96.516       68.510    16215.816     9315.337     4693.684        2.051        1.511       85.836       61.314        0.510      342.005       17.112      863.589
10/01/2014  15:13:00      147.895     -245.374      -22.535      111.908      132.928       75.209    12523.383    17669.876     5656.407        5.921        1.792      286.499       73.462        0.066      341.897       16.928      863.575
10/01/2014  15:14:00      128.256      -58.694       38.167       98.456      138.344       94.967     9693.527    19139.063     9018.709        2.959        1.893      141.048      103.844        0.542      341.927       16.978      863.580
10/01/2014  15:15:00       66.504      -52.447       10.045       67.074      144.702       64.191     4498.881    20938.711     4120.500        1.841        1.478       84.697       47.296        0.312      341.956       17.027      863.561
10/01/2014  15:16:00      109.408       82.832       42.015       88.902       63.619       60.917     7903.548     4047.388     3710.923        1.813        0.783      137.227       40.403        0.087      342.084       17.245      863.571
10/01/2014  15:17:00      172.805      109.032       53.337      110.375      100.360       77.715    12182.707    10072.157     6039.597        3.644        1.415      204.327       49.282        0.058      342.100       17.271      863.581
10/01/2014  15:18:00       81.421       34.597       25.874       82.324       88.409       49.511     6777.316     7816.130     2451.370        1.277        0.852       88.467       32.792        0.137      342.270       17.563      863.592
10/01/2014  15:19:00      182.652       39.625       36.572      158.555      156.106       69.294    25139.778    24368.974     4801.602        4.528        2.716      186.901       46.995        0.063      341.831       16.814      863.587
10/01/2014  15:20:00      121.089       82.634       16.170      103.963      105.024       63.589    10808.281    11030.087     4043.505        2.381        1.294      146.598       54.881        0.140      341.954       17.024      863.592
10/01/2014  15:21:00      142.713       54.765       38.928      131.267       77.856       59.850    17231.139     6061.523     3582.073        2.587        1.344      152.860       51.022        0.111      342.011       17.121      863.612
10/01/2014  15:22:00      186.594      133.727       65.359      100.156       72.450       66.034    10031.285     5249.069     4360.495        3.830        0.982      229.565       63.699        0.077      341.787       16.739      863.613
10/01/2014  15:23:00       56.682       65.899       54.891       70.981       74.350       69.610     5038.232     5527.949     4845.541        1.299        0.771       86.922       56.131        0.417      341.745       16.670      863.613
10/01/2014  15:24:00       56.823      -49.269       18.225       57.584       53.151       41.365     3315.887     2824.993     1711.045        0.692        0.393       75.208       30.053        0.160      341.963       17.041      863.579
10/01/2014  15:25:00       56.911       46.036       93.844       82.032       99.059       61.648     6729.307     9812.634     3800.516        1.725        1.017       73.199       48.932        0.447      342.147       17.352      863.563
10/01/2014  15:26:00      141.322      -88.168       44.233      133.446      111.256       78.770    17807.738    12377.805     6204.775        3.304        1.820      166.570       77.743        0.218      342.183       17.413      863.562
10/01/2014  15:27:00      178.405     -130.880       44.039      127.016      137.486       97.826    16133.054    18902.333     9569.904        4.774        2.230      221.265      105.011        0.225      342.154       17.363      863.539
10/01/2014  15:28:00      108.739       25.588       91.999       94.830       88.177       87.116     8992.726     7775.262     7589.223        2.265        1.218      111.709       74.498        0.445      341.930       16.983      863.550
10/01/2014  15:29:00      123.330       49.143       35.902      102.596       68.464       50.177    10526.031     4687.333     2517.701        1.832        0.887      132.761       39.272        0.088      342.120       17.306      863.556
10/01/2014  15:30:00      132.040       85.049       22.773       53.216       54.442       50.980     2831.940     2963.939     2598.922        1.679        0.420      157.060       23.407        0.022      342.091       17.257      863.571
10/01/2014  15:31:00       65.953       61.027        9.333       39.253       33.578       25.060     1540.807     1127.457      627.979        0.573        0.165       89.856       18.971        0.045      341.967       17.047      863.569
10/01/2014  15:32:00       59.616        4.826        1.814       48.645       40.204       20.750     2366.323     1616.394      430.559        0.400        0.221       59.811       12.072        0.041      342.240       17.512      863.558
10/01/2014  15:33:00       52.676       51.801       46.092       62.253       51.885       42.208     3875.398     2692.086     1781.476        0.796        0.417       73.879       38.898        0.277      341.948       17.016      863.548
10/01/2014  15:34:00      105.609       80.539       64.133      100.117       80.945       72.493    10023.503     6552.170     5255.282        2.179        1.092      132.815       56.400        0.180      342.069       17.219      863.540
10/01/2014  15:35:00      185.223      177.670      123.688      138.341       97.936       89.069    19138.350     9591.520     7933.338        5.891        1.833      256.660       82.112        0.102      341.929       16.980      863.534
10/01/2014  15:36:00      175.464      127.091       19.260       87.987       79.481       46.557     7741.682     6317.209     2167.524        3.177        0.811      216.656       16.669        0.006      341.818       16.793      863.541
10/01/2014  15:37:00       60.356       29.308       31.560       53.887       40.139       42.222     2903.770     1611.154     1782.682        0.590        0.315       67.095       15.498        0.053      342.106       17.285      863.541
10/01/2014  15:38:00      134.148       99.755       68.079       88.708       73.035       55.353     7869.173     5334.039     3063.948        2.442        0.813      167.173       44.375        0.070      342.008       17.115      863.532
10/01/2014  15:39:00      127.200      103.472       37.550       57.406       36.711       39.918     3295.489     1347.687     1593.408        1.727        0.312      163.970       12.514        0.006      341.730       16.643      863.523
10/01/2014  15:40:00      181.776      121.540       55.073       64.296       48.990       47.450     4133.960     2400.001     2251.494        2.982        0.439      218.666       19.535        0.008      341.782       16.729      863.509
10/01/2014  15:41:00      127.746       83.372       65.633       69.607       61.718       46.727     4845.099     3809.171     2183.408        1.921        0.542      152.545       24.553        0.026      342.141       17.340      863.494
10/01/2014  15:42:00       63.787      -56.239       21.207       56.448       96.778       51.526     3186.339     9365.965     2654.979        1.144        0.760       85.039       33.506        0.155      342.187       17.420      863.486
10/01/2014  15:43:00       27.951      -67.371       19.421       48.705       79.294       44.626     2372.223     6287.524     1991.509        0.817        0.533       72.939       31.429        0.186      342.304       17.620      863.471
10/01/2014  15:44:00       42.652      -40.456       40.868       70.295       86.083       54.280     4941.381     7410.367     2946.308        1.021        0.765       58.786       55.993        0.907      342.198       17.440      863.476
10/01/2014  15:45:00      131.024      122.214      132.904      128.164      131.862       86.050    16425.982    17387.696     7404.598        4.549        2.061      179.175       60.195        0.113      341.958       17.030      863.455
10/01/2014  15:46:00      222.745      123.132      127.772      143.347      109.359      112.912    20548.234    11959.438    12749.045        6.317        2.263      254.513      100.256        0.155      341.822       16.798      863.424
10/01/2014  15:47:00      198.381      141.265      147.556      162.860      128.634       95.594    26523.293    16546.585     9138.183        6.664        2.610      243.538       81.087        0.111      341.981       17.068      863.421
10/01/2014  15:48:00      145.465      150.197      128.485      112.686      120.806      109.286    12698.147    14594.142    11943.534        4.973        1.962      209.091      104.906        0.252      341.764       16.700      863.420
10/01/2014  15:49:00        9.245       13.480       73.570       89.615       92.229       52.689     8030.818     8506.157     2776.162        1.249        0.966       16.346       46.756        8.182      342.264       17.552      863.429
10/01/2014  15:50:00       40.424      -17.952       60.345       63.393       65.901       41.592     4018.651     4342.881     1729.864        0.784        0.505       44.231       25.909        0.343      342.232       17.499      863.429
10/01/2014  15:51:00      203.899      134.230       47.960       79.335       66.113       58.077     6294.043     4370.931     3372.953        3.796        0.702      244.116       37.874        0.024      342.032       17.155      863.421
10/01/2014  15:52:00      154.464      112.475       22.954       55.324       49.864       51.855     3060.701     2486.401     2688.901        2.264        0.412      191.076       27.307        0.020      342.028       17.150      863.410
10/01/2014  15:53:00      102.680       45.997       -0.541       74.291       56.439       39.083     5519.208     3185.337     1527.472        1.144        0.512      112.511       26.383        0.055      342.110       17.290      863.393
10/01/2014  15:54:00      157.135       92.132       28.124      145.007       73.256       50.433    21026.961     5366.488     2543.499        3.145        1.447      182.153       31.947        0.031      342.074       17.229      863.379
10/01/2014  15:55:00       99.046       64.913       38.980       67.744       46.301       50.395     4589.271     2143.801     2539.638        1.241        0.464      118.422        6.816        0.003      342.009       17.120      863.371
10/01/2014  15:56:00      134.616       91.342       66.159      117.137       58.483       58.551    13721.163     3420.290     3428.253        2.570        1.028      162.680       63.236        0.151      342.087       17.250      863.360
10/01/2014  15:57:00      246.885      173.032       69.383      125.430       95.971       66.063    15732.729     9210.451     4364.347        6.250        1.465      301.484       45.520        0.023      342.053       17.190      863.355
10/01/2014  15:58:00      217.600      102.150       51.388      105.888       79.745       72.432    11212.237     6359.316     5246.442        4.162        1.141      240.383       36.381        0.023      342.146       17.349      863.354
10/01/2014  15:59:00       50.808       10.307       33.370       49.805       53.261       38.346     2480.493     2836.701     1470.383        0.529        0.339       51.842       34.752        0.449      341.908       16.947      863.356
10/01/2014  16:00:00       35.427       48.147       11.948       61.428       91.959       38.466     3773.343     8456.519     1479.654        0.871        0.685       59.776       37.534        0.394      342.229       17.493      863.346
10/01/2014  16:01:00       62.929       50.769       -6.584       63.372       49.203       41.865     4015.973     2420.903     1752.678        0.738        0.409       80.855       24.808        0.094      342.202       17.447      863.349
10/01/2014  16:02:00      127.027      142.186        8.359      116.846      110.469       64.240    13652.972    12203.303     4126.752        3.320        1.499      190.664       54.881        0.083      342.116       17.299      863.344
10/01/2014  16:03:00       87.586       81.776       30.478       72.177       56.340       41.164     5209.565     3174.213     1694.439        1.268        0.504      119.828       22.892        0.036      342.253       17.532      863.347
10/01/2014  16:04:00      198.405      115.755       50.143       75.692       67.693       58.633     5729.238     4582.281     3437.787        3.451        0.687      229.704       39.162        0.029      342.205       17.450      863.335
10/01/2014  16:05:00      199.823       69.613       32.789      102.144      116.189       58.366    10433.363    13499.998     3406.554        3.659        1.367      211.601       43.092        0.041      342.061       17.204      863.332
10/01/2014  16:06:00      169.197      137.239      143.765       95.692      115.326       88.505     9156.914    13300.047     7833.212        4.921        1.515      217.858       79.571        0.133      342.054       17.192      863.319
10/01/2014  16:07:00      125.084      123.000      157.339      108.708      125.380       83.142    11817.471    15720.119     6912.632        4.498        1.723      175.428       68.341        0.152      342.115       17.295      863.338
10/01/2014  16:08:00      157.354       86.996       74.383      116.754       76.052       83.152    13631.478     5783.975     6914.277        3.209        1.316      179.802       50.875        0.080      342.070       17.219      863.362
10/01/2014  16:09:00      124.427       41.490       37.424       71.874       54.188       46.335     5165.938     2936.354     2146.933        1.442        0.512      131.163       38.563        0.086      342.065       17.212      863.400
10/01/2014  16:10:00       22.912      -33.423       21.982       62.214       87.929       43.903     3870.557     7731.459     1927.449        0.783        0.676       40.522       40.203        0.984      342.324       17.654      863.402
10/01/2014  16:11:00      148.289       24.599       41.308       76.736      129.524       57.505     5888.428    16776.347     3306.851        2.513        1.299      150.316       56.924        0.143      342.008       17.115      863.396
10/01/2014  16:12:00       68.075      -45.329       26.632       79.149      116.218       57.420     6264.539    13506.681     3297.023        1.523        1.153       81.786       69.529        0.723      342.244       17.516      863.394
10/01/2014  16:13:00      170.310       91.465       75.204      153.858      114.504       86.069    23672.418    13111.225     7407.864        4.360        2.210      193.316       70.199        0.132      342.127       17.316      863.385
10/01/2014  16:14:00      219.195      136.134       52.188      122.730      101.128       68.661    15062.553    10226.949     4714.352        4.965        1.500      258.029       51.462        0.040      342.353       17.701      863.404
10/01/2014  16:15:00      283.676      170.749       36.213      134.389      116.878       79.625    18060.456    13660.525     6340.064        7.449        1.903      331.100       39.538        0.014      342.243       17.513      863.410
10/01/2014  16:16:00      224.303      179.958       11.085      136.789       88.261       77.537    18711.291     7790.063     6011.951        5.766        1.626      287.571       49.388        0.029      342.028       17.148      863.408
10/01/2014  16:17:00      181.461      142.603       19.143      100.281       64.080       48.096    10056.357     4106.276     2313.218        3.505        0.824      230.789       31.930        0.019      341.944       17.005      863.402
10/01/2014  16:18:00      133.715      113.120       21.343       95.328       70.684       53.556     9087.423     4996.212     2868.244        2.404        0.848      175.145       44.408        0.064      342.100       17.270      863.399
10/01/2014  16:19:00      201.854      186.737       18.932      118.474       82.081       71.753    14036.084     6737.279     5148.525        5.094        1.296      274.984       55.925        0.041      342.051       17.187      863.387
10/01/2014  16:20:00      191.760      129.050       14.728       94.148       94.302       65.328     8863.797     8892.840     4267.708        3.783        1.101      231.140       46.014        0.040      342.156       17.365      863.393
10/01/2014  16:21:00      220.881      147.016       33.911      191.160      139.116       65.168    36542.147    19353.281     4246.879        6.584        3.007      265.334       55.801        0.044      342.235       17.502      863.406
10/01/2014  16:22:00      240.802      160.085       63.302      128.807      103.537       85.694    16591.236    10719.947     7343.458        6.113        1.733      289.158       57.487        0.040      342.163       17.377      863.416
10/01/2014  16:23:00      189.093      130.509       51.109      126.373       91.270       73.627    15970.113     8330.287     5420.863        4.256        1.486      229.758       47.994        0.044      342.249       17.523      863.434
10/01/2014  16:24:00      121.020       89.049       39.731       63.899       56.107       49.669     4083.052     3147.943     2466.997        1.692        0.485      150.252       27.423        0.033      342.358       17.711      863.459
10/01/2014  16:25:00       69.862       60.912       48.425       54.106       54.125       44.926     2927.417     2929.474     2018.364        0.940        0.394       92.687       31.215        0.113      342.300       17.613      863.457
10/01/2014  16:26:00       70.283        9.278       59.250       66.337       65.833       42.534     4400.579     4333.950     1809.103        0.954        0.527       70.893       32.435        0.209      342.286       17.589      863.446
10/01/2014  16:27:00       64.211      132.911      139.113       91.088       95.446       87.832     8297.049     9109.889     7714.512        3.313        1.256      147.609       70.963        0.231      342.135       17.329      863.438
10/01/2014  16:28:00       56.317       48.907       58.294       81.153       67.751       52.433     6585.816     4590.140     2749.226        1.144        0.696       74.588       40.535        0.295      342.146       17.351      863.442
10/01/2014  16:29:00       62.187      -24.186       54.969       69.717       93.739       60.133     4860.403     8787.034     3615.955        1.237        0.863       66.725       60.235        0.815      342.179       17.406      863.428
10/01/2014  16:30:00       69.384       27.419       37.335       52.126       99.177       56.607     2717.109     9836.083     3204.347        1.136        0.788       74.605       39.138        0.275      342.130       17.323      863.445
10/01/2014  16:31:00      146.520       79.222       50.016       90.454       57.565       63.045     8181.992     3313.711     3974.674        2.286        0.774      166.566       39.426        0.056      342.157       17.369      863.457
10/01/2014  16:32:00      110.568       43.920       21.148       98.043       94.960       59.159     9612.413     9017.410     3499.791        1.836        1.106      118.972       47.099        0.157      342.084       17.245      863.453
10/01/2014  16:33:00      105.080      116.287       73.788       85.678       70.623       55.458     7340.711     4987.655     3075.621        2.270        0.770      156.730       48.089        0.094      342.204       17.448      863.464
10/01/2014  16:34:00       71.971       28.873       64.005       84.654       90.121       54.942     7166.319     8121.852     3018.585        1.421        0.915       77.546       46.716        0.363      342.099       17.271      863.467
10/01/2014  16:35:00       84.563       68.268       22.441       52.657       46.826       38.398     2772.790     2192.710     1474.382        0.938        0.322      108.681       19.938        0.034      342.104       17.280      863.475
10/01/2014  16:36:00      165.261      120.274       23.613       94.466       91.044       53.829     8923.744     8288.947     2897.518        3.122        1.006      204.394       34.262        0.028      342.375       17.739      863.483
10/01/2014  16:37:00      187.353      151.183        7.105      112.577       90.211       65.698    12673.665     8137.983     4316.258        4.156        1.256      240.744       45.876        0.036      342.289       17.591      863.480
10/01/2014  16:38:00      257.513      154.121       34.298      120.220      102.798       68.181    14452.911    10567.461     4648.692        6.045        1.483      300.110       49.662        0.027      342.363       17.717      863.479
10/01/2014  16:39:00      224.805      113.168       27.132      126.522      122.860       70.667    16007.918    15094.563     4993.819        5.008        1.805      251.683       28.447        0.013      342.156       17.365      863.482
10/01/2014  16:40:00       94.611      107.408      107.789      108.006       77.154       76.583    11665.296     5952.672     5864.913        2.779        1.174      143.135       70.997        0.246      342.104       17.278      863.482
10/01/2014  16:41:00      153.519       96.791       69.360      141.297       89.976       79.363    19964.824     8095.714     6298.548        3.605        1.718      181.484       51.525        0.081      342.044       17.176      863.465
10/01/2014  16:42:00      248.931      179.161       32.760      173.626      124.882       90.196    30146.104    15595.517     8135.397        7.450        2.694      306.701       82.718        0.073      342.207       17.451      863.474
10/01/2014  16:43:00      251.049      125.671       72.692      151.906      119.192       78.060    23075.436    14206.828     6093.440        6.373        2.169      280.747       63.089        0.050      342.207       17.454      863.492
10/01/2014  16:44:00      226.354      150.241       48.391      138.058       89.303       76.007    19060.085     7975.005     5777.019        5.448        1.641      271.677       63.314        0.054      342.114       17.294      863.514
10/01/2014  16:45:00      210.979      156.551       11.776      124.060       85.145       84.442    15390.961     7249.737     7130.482        4.946        1.489      262.717       52.281        0.040      342.216       17.467      863.539
10/01/2014  16:46:00      172.875      111.636       31.009      123.102       89.915       62.380    15154.220     8084.783     3891.264        3.522        1.357      205.788       40.135        0.038      342.167       17.385      863.543
10/01/2014  16:47:00      190.497      179.165       14.631      133.752       89.405       68.645    17889.661     7993.236     4712.084        4.959        1.530      261.514       49.134        0.035      342.103       17.275      863.544
10/01/2014  16:48:00      145.181      101.401       27.328      123.503       70.809       64.290    15253.018     5013.904     4133.247        2.825        1.220      177.087       48.579        0.075      342.179       17.405      863.533
10/01/2014  16:49:00      130.086      115.519        2.346      111.363       74.722       61.968    12401.642     5583.390     3840.038        2.605        1.091      173.974       36.575        0.044      342.114       17.296      863.537
10/01/2014  16:50:00      221.742      120.866       63.610      101.349       74.005       70.502    10271.610     5476.672     4970.539        4.427        1.036      252.544       38.308        0.023      342.135       17.328      863.523
10/01/2014  16:51:00       47.878      113.285       27.404       60.215       62.385       64.439     3625.890     3891.922     4152.369        1.377        0.584      122.987       43.986        0.128      342.073       17.227      863.537
10/01/2014  16:52:00       88.425       98.491      -10.217       68.212       63.378       45.541     4652.913     4016.721     2073.947        1.418        0.537      132.361       38.294        0.084      342.291       17.595      863.533
10/01/2014  16:53:00      114.982       95.957       30.628       79.153       57.787       53.240     6265.191     3339.344     2834.478        1.790        0.622      149.762       32.428        0.047      342.211       17.460      863.541
10/01/2014  16:54:00      124.177       81.968       49.414       84.923       54.746       45.902     7211.959     2997.102     2106.963        1.845        0.616      148.791       36.025        0.059      342.132       17.325      863.557
10/01/2014  16:55:00       65.348      105.838       -3.891       70.039       70.162       43.477     4905.412     4922.716     1890.223        1.360        0.586      124.387       40.582        0.106      342.310       17.629      863.558
10/01/2014  16:56:00      141.265      112.523       19.425      109.108       77.488       57.273    11904.481     6004.319     3280.141        2.709        1.059      180.602       35.521        0.039      342.322       17.650      863.556
10/01/2014  16:57:00      258.311      209.185        8.652      141.809      102.942       99.175    20109.833    10597.025     9835.765        7.554        2.027      332.390       74.515        0.050      342.130       17.321      863.553
10/01/2014  16:58:00      199.792      138.513       34.012      103.006       71.332       65.074    10610.248     5088.237     4234.586        4.009        0.997      243.110       28.305        0.014      342.202       17.444      863.555
10/01/2014  16:59:00      171.827      131.914       25.043       85.839       65.295       51.401     7368.390     4263.429     2642.040        3.091        0.714      216.624       17.709        0.007      342.182       17.410      863.545
10/01/2014  17:00:00       85.008      102.057       18.901      101.798       76.446       64.341    10362.780     5843.989     4139.807        1.917        1.017      132.824       49.235        0.137      342.221       17.476      863.548
10/01/2014  17:01:00      157.665       86.235       12.948      103.987       83.157       53.194    10813.326     6915.007     2829.596        2.651        1.028      179.708       41.447        0.053      342.128       17.318      863.537
10/01/2014  17:02:00      146.147      113.459       17.372      100.943       87.242       49.291    10189.487     7611.116     2429.648        2.738        1.012      185.019       45.254        0.060      342.139       17.338      863.539
10/01/2014  17:03:00      154.670      131.403       17.025       99.337       68.403       61.073     9867.892     4678.936     3729.935        2.988        0.914      202.952       42.758        0.044      342.062       17.206      863.534
10/01/2014  17:04:00      197.542      184.980       -9.311       99.054       92.740       71.042     9811.603     8600.684     5047.008        4.839        1.173      270.629       62.429        0.053      342.061       17.203      863.533
10/01/2014  17:05:00      238.989      141.039       32.076      119.166       89.522       62.288    14200.624     8014.261     3879.760        5.206        1.305      277.503       34.871        0.016      342.133       17.327      863.528
10/01/2014  17:06:00      248.653      118.506       13.184      127.643      105.940       67.666    16292.683    11223.240     4578.725        5.406        1.605      275.449       31.618        0.013      342.094       17.259      863.523
10/01/2014  17:07:00      159.550       78.470       23.123      130.628       92.699       71.106    17063.706     8593.079     5056.085        3.143        1.536      177.803       29.657        0.028      342.200       17.440      863.523
10/01/2014  17:08:00      174.827      118.636       31.239      113.467       82.930       65.786    12874.811     6877.322     4327.760        3.484        1.204      211.279       45.830        0.047      342.067       17.216      863.539
10/01/2014  17:09:00      154.356      122.733       46.014       94.118       68.886       58.378     8858.172     4745.269     3407.933        2.901        0.851      197.203       37.160        0.036      342.057       17.201      863.527
10/01/2014  17:10:00      198.341      137.020       41.646       95.043       64.852       67.202     9033.083     4205.737     4516.091        3.880        0.888      241.068       49.852        0.043      342.152       17.357      863.519
10/01/2014  17:11:00      218.726      165.620       26.204      100.539       80.686       76.066    10108.078     6510.305     5785.967        4.918        1.120      274.355       39.902        0.021      342.094       17.260      863.530
10/01/2014  17:12:00      238.528      132.582       20.641      123.799       93.673       61.914    15326.304     8774.693     3833.349        5.141        1.397      272.898       40.871        0.022      342.025       17.142      863.525
10/01/2014  17:13:00      153.659       85.301       48.433       85.848       56.410       45.636     7369.845     3182.107     2082.654        2.293        0.632      175.748       28.134        0.026      342.039       17.168      863.529
10/01/2014  17:14:00       42.947      146.687       -2.064       77.648      107.797       57.177     6029.264    11620.150     3269.175        2.214        1.046      152.845       61.815        0.164      342.160       17.374      863.537
10/01/2014  17:15:00      185.955      107.898       18.681       76.659       50.723       44.483     5876.594     2572.851     1978.745        2.850        0.521      214.991       26.742        0.015      342.168       17.386      863.529
10/01/2014  17:16:00      181.652      147.538       15.371      135.266       75.707       77.317    18296.951     5731.494     5977.981        4.250        1.500      234.020       59.339        0.064      342.103       17.275      863.552
10/01/2014  17:17:00      140.060      122.690        8.774      127.773       85.604       66.842    16325.919     7327.988     4467.809        3.143        1.406      186.198       46.077        0.061      342.044       17.175      863.551
10/01/2014  17:18:00      165.035      155.544       12.329      136.812       88.808       76.463    18717.460     7886.795     5846.652        4.201        1.623      226.783       63.275        0.078      342.061       17.204      863.545
10/01/2014  17:19:00      285.115      183.643       29.691      109.923       85.738       72.324    12083.142     7351.052     5230.693        7.028        1.233      339.139       51.455        0.023      342.032       17.154      863.554
10/01/2014  17:20:00      291.396      203.727       39.294      111.893      104.118       65.623    12520.048    10840.658     4306.404        7.781        1.383      355.550       41.756        0.014      342.009       17.114      863.554
10/01/2014  17:21:00      256.065      196.356        4.460      132.148      105.299       85.854    17462.974    11087.775     7370.993        7.003        1.796      322.684       61.394        0.036      342.057       17.196      863.543
10/01/2014  17:22:00      208.565      110.064       31.571      162.456       88.164       55.419    26391.822     7772.934     3071.252        4.692        1.862      235.825       42.247        0.032      342.076       17.230      863.558
10/01/2014  17:23:00      157.375      153.739       12.663      109.846       90.217       77.031    12066.159     8139.121     5933.797        3.735        1.307      220.006       61.473        0.078      342.061       17.204      863.567
10/01/2014  17:24:00      194.159      114.630       55.570      124.066       85.848       81.930    15392.341     7369.892     6712.566        4.170        1.474      225.472       63.202        0.079      342.049       17.185      863.580
10/01/2014  17:25:00      196.208       94.323       54.872      142.060       85.680       56.361    20181.116     7341.020     3176.553        4.055        1.535      217.702       57.838        0.071      341.957       17.028      863.570
10/01/2014  17:26:00      173.067      111.096       21.836      112.742       58.521       60.328    12710.852     3424.708     3639.412        3.127        0.989      205.656       39.537        0.037      342.020       17.134      863.582
10/01/2014  17:27:00      145.241       94.808       16.071       85.388       65.990       57.381     7291.175     4354.695     3292.586        2.264        0.747      173.446       46.008        0.070      342.116       17.298      863.585
10/01/2014  17:28:00      111.726      151.864       -5.862       79.544       99.279       57.899     6327.260     9856.398     3352.325        2.755        0.977      188.535       57.843        0.094      342.128       17.320      863.582
10/01/2014  17:29:00      163.115      167.301        1.206       96.626      161.002       74.878     9336.548    25921.782     5606.664        4.772        2.043      233.658       93.354        0.160      342.140       17.339      863.562
10/01/2014  17:30:00      166.770       94.410       55.775       88.731       49.395       52.089     7873.242     2439.853     2713.229        2.643        0.651      191.639       47.357        0.061      342.078       17.234      863.581
10/01/2014  17:31:00      213.354      129.768       67.042       98.748       76.426       81.975     9751.091     5840.866     6719.820        4.458        1.116      249.719       54.866        0.048      341.976       17.058      863.600
10/01/2014  17:32:00      191.441      120.058       35.170      107.594       89.163       59.591    11576.564     7949.980     3551.080        3.769        1.154      225.972       40.500        0.032      342.019       17.133      863.599
10/01/2014  17:33:00      203.277       98.049       49.402      100.803       74.814       64.953    10161.191     5597.115     4218.878        3.667        0.999      225.688       39.426        0.031      342.067       17.214      863.611
10/01/2014  17:34:00      124.787       68.677       43.407      104.295       70.994       49.132    10877.373     5040.213     2413.943        2.025        0.917      142.437       35.136        0.061      342.074       17.228      863.624
10/01/2014  17:35:00       60.957       68.162       27.853       60.176       50.457       39.561     3621.149     2545.932     1565.048        0.843        0.387       91.443       18.271        0.040      342.067       17.218      863.636
10/01/2014  17:36:00      252.132      169.670       29.529       86.833       88.859       62.829     7539.957     7895.836     3947.492        5.630        0.969      303.905       41.152        0.018      342.053       17.190      863.653
10/01/2014  17:37:00      233.649      160.039       41.416      131.579      109.002       66.882    17313.000    11881.427     4473.167        5.779        1.683      283.204       38.763        0.019      341.976       17.059      863.647
10/01/2014  17:38:00      160.484      128.348       21.195       99.396       73.089       70.505     9879.555     5341.936     4970.901        3.143        1.010      205.495       43.388        0.045      342.041       17.170      863.646
10/01/2014  17:39:00      160.896      129.080       12.270      103.624       63.453       75.591    10737.940     4026.312     5714.029        3.159        1.024      206.274       35.785        0.030      342.030       17.153      863.659
10/01/2014  17:40:00       94.695      173.235        0.431       92.550      116.364       72.299     8565.428    13540.506     5227.083        3.315        1.367      197.427       72.847        0.136      341.996       17.094      863.655
10/01/2014  17:41:00      149.521      149.777       16.895       85.835       87.203       70.416     7367.664     7604.314     4958.391        3.250        0.997      211.636       59.697        0.080      341.993       17.088      863.646
10/01/2014  17:42:00      173.005      109.308       21.790       95.911       65.843       61.625     9198.971     4335.295     3797.640        2.984        0.867      204.644       37.023        0.033      341.997       17.096      863.653
10/01/2014  17:43:00      153.838      149.380        5.446      126.636      114.260       74.659    16036.570    13055.260     5573.935        4.033        1.733      214.431       57.429        0.072      341.953       17.023      863.653
10/01/2014  17:44:00      280.295      183.641       43.645      116.384       78.618       74.630    13545.179     6180.778     5569.594        6.974        1.265      335.097       43.261        0.017      341.902       16.933      863.649
10/01/2014  17:45:00      114.006      184.185       -7.185      119.701      149.808       88.917    14328.342    22442.582     7906.279        4.582        2.234      216.614       81.808        0.143      341.893       16.919      863.647
10/01/2014  17:46:00      181.135      160.867       44.675      127.355       90.197       85.643    16219.272     8135.451     7334.711        4.618        1.584      242.256       54.897        0.051      341.886       16.907      863.668
10/01/2014  17:47:00      132.245      101.674       31.716      102.177       72.238       53.050    10440.186     5218.391     2814.350        2.365        0.924      166.812       16.441        0.010      341.870       16.882      863.666
10/01/2014  17:48:00      245.037      173.043       33.435      113.101      103.208       67.619    12791.758    10651.935     4572.352        5.956        1.401      299.978       62.750        0.044      341.885       16.904      863.676
10/01/2014  17:49:00      207.291      124.716       36.510      113.640       77.683       64.047    12913.994     6034.614     4101.968        4.145        1.153      241.917       36.640        0.023      341.805       16.769      863.686
10/01/2014  17:50:00      137.226      101.787       27.057       88.732       69.173       63.354     7873.454     4784.835     4013.737        2.330        0.834      170.856       39.374        0.053      341.860       16.864      863.690
10/01/2014  17:51:00       71.296       66.246       17.730       91.638       83.893       44.589     8397.473     7038.083     1988.186        1.360        0.871       97.322       41.701        0.184      341.839       16.829      863.691
10/01/2014  17:52:00      156.669      130.557       20.250      111.818       89.442       56.642    12503.365     7999.912     3208.335        3.285        1.186      203.937       40.739        0.040      341.803       16.768      863.696
10/01/2014  17:53:00      152.682      128.006       13.776      115.397       75.871       64.011    13316.558     5756.464     4097.416        3.152        1.159      199.242       46.989        0.056      341.787       16.740      863.686
10/01/2014  17:54:00      179.172      135.647       20.985      127.648       96.509       82.620    16293.984     9313.964     6826.010        4.168        1.622      224.728       63.415        0.080      341.742       16.664      863.675
10/01/2014  17:55:00      116.017       55.086        6.072      121.039       74.676       45.971    14650.529     5576.463     2113.339        1.943        1.117      128.431       38.703        0.091      341.767       16.705      863.686
10/01/2014  17:56:00      101.628       91.967       33.289       78.011       57.244       53.511     6085.684     3276.868     2863.385        1.606        0.611      137.063       43.592        0.101      341.777       16.725      863.700
10/01/2014  17:57:00      154.449      103.119       21.918       90.068       70.337       44.584     8112.260     4947.245     1987.750        2.501        0.752      185.710       21.965        0.014      341.747       16.673      863.702
10/01/2014  17:58:00      270.441      226.791       27.950      117.943       83.501       75.803    13910.555     6972.396     5746.085        7.599        1.331      352.949       37.804        0.011      341.739       16.656      863.696
10/01/2014  17:59:00      140.727      104.452       49.929       76.548       52.426       64.977     5859.568     2748.536     4222.073        2.302        0.642      175.255       30.201        0.030      341.741       16.662      863.685
10/01/2014  18:00:00      140.236      123.607       13.423      101.892       72.236       56.608    10381.997     5218.072     3204.467        2.696        0.940      186.935       32.190        0.030      341.709       16.609      863.706
10/01/2014  18:01:00      201.921      147.890       10.625      124.436       83.523       64.905    15484.241     6976.163     4212.688        4.471        1.334      250.287       45.129        0.033      341.678       16.555      863.709
10/01/2014  18:02:00      125.325      101.027       22.988      110.474       72.476       55.961    12204.560     5252.778     3131.581        2.351        1.029      160.975       36.661        0.052      341.634       16.482      863.721
10/01/2014  18:03:00      194.180      133.525       19.992       89.108       69.473       52.108     7940.193     4826.548     2715.223        3.571        0.774      235.659       35.243        0.022      341.645       16.497      863.734
10/01/2014  18:04:00      206.521      143.790       40.504      116.420       98.612       66.642    13553.595     9724.259     4441.216        4.634        1.386      251.647       43.989        0.031      341.653       16.513      863.733
10/01/2014  18:05:00      284.979      214.629        7.089      120.002       88.514       66.607    14400.407     7834.791     4436.540        7.700        1.334      356.761       28.599        0.006      341.654       16.514      863.744
10/01/2014  18:06:00      209.875      155.162       22.659      104.637       67.157       60.128    10948.889     4510.029     3615.344        4.385        0.954      261.004       38.067        0.021      341.639       16.489      863.767
10/01/2014  18:07:00       82.123       89.871       19.622       65.326       70.726       53.405     4267.541     5002.182     2852.091        1.366        0.606      121.741       42.413        0.121      341.581       16.393      863.774
10/01/2014  18:08:00      186.685      162.083       -2.591      120.063       85.346       72.439    14415.050     7283.865     5247.425        4.403        1.347      247.229       42.987        0.030      341.560       16.355      863.780
10/01/2014  18:09:00      114.742      172.257       -7.037       88.546       86.419       68.883     7840.342     7468.178     4744.812        3.147        1.003      206.974       61.360        0.088      341.546       16.330      863.784
10/01/2014  18:10:00      174.656      147.724       18.705      126.826       73.307       62.350    16084.791     5373.957     3887.479        3.901        1.267      228.751       34.500        0.023      341.543       16.325      863.800
10/01/2014  18:11:00       91.332      116.293       -0.503       85.266       93.167       50.141     7270.251     8680.134     2514.168        2.016        0.923      147.870       49.250        0.111      341.512       16.273      863.824
10/01/2014  18:12:00      208.351      132.299       55.290       86.612       64.542       52.636     7501.647     4165.652     2770.592        3.920        0.722      246.806       16.945        0.005      341.452       16.172      863.824
10/01/2014  18:13:00      160.910      112.385       48.473       89.273       63.347       61.233     7969.599     4012.854     3749.523        2.830        0.787      196.271       33.359        0.029      341.489       16.232      863.850
10/01/2014  18:14:00      130.127       70.276       24.971       96.968       70.247       59.215     9402.800     4934.686     3506.418        2.017        0.892      147.891       31.840        0.046      341.488       16.232      863.874
10/01/2014  18:15:00      129.483      106.866        7.951      119.965      102.360       72.066    14391.499    10477.543     5193.519        2.915        1.503      167.888       52.156        0.097      341.463       16.190      863.898
10/01/2014  18:16:00      216.462      116.756       41.561      112.700       91.511       70.304    12701.362     8374.235     4942.599        4.411        1.301      245.942       35.402        0.021      341.454       16.174      863.911
10/01/2014  18:17:00      204.201      162.805       21.516       95.388       77.100       56.333     9098.857     5944.403     3173.426        4.344        0.911      261.158       40.378        0.024      341.496       16.246      863.940
10/01/2014  18:18:00      241.405      165.205       24.065       83.222       65.045       51.257     6925.924     4230.796     2627.313        4.996        0.689      292.522       36.897        0.016      341.501       16.253      863.966
10/01/2014  18:19:00      132.773      117.593       22.665       90.714       76.015       65.975     8229.009     5778.263     4352.742        2.516        0.918      177.360       37.765        0.045      341.473       16.207      863.981
10/01/2014  18:20:00      143.516      102.263       27.028       74.008       48.892       42.204     5477.184     2390.463     1781.205        2.072        0.482      176.223       24.425        0.019      341.451       16.171      863.984
10/01/2014  18:21:00      152.620      132.340       22.026       80.034       52.230       46.412     6405.426     2727.993     2154.102        2.629        0.564      202.007       31.993        0.025      341.461       16.186      864.002
10/01/2014  18:22:00       85.770      123.140        1.924       65.266       97.556       53.245     4259.626     9517.265     2835.052        1.956        0.831      150.066       57.119        0.145      341.416       16.111      863.998
10/01/2014  18:23:00      139.256      143.406       17.228      101.715       92.550       74.393    10346.005     8565.469     5534.343        3.235        1.222      199.894       53.509        0.072      341.413       16.104      863.997
10/01/2014  18:24:00      111.743      108.574       32.389      118.701       82.099       68.507    14089.833     6740.231     4693.270        2.542        1.276      155.804       45.597        0.086      341.374       16.040      864.003
10/01/2014  18:25:00      161.505      169.553       16.744       88.643       85.160       77.796     7857.495     7252.174     6052.236        3.813        1.058      234.162       58.719        0.063      341.378       16.045      863.994
10/01/2014  18:26:00      154.844      113.960       23.655      104.275       70.355       43.115    10873.269     4949.817     1858.875        2.760        0.884      192.259       36.799        0.037      341.318       15.945      864.003
10/01/2014  18:27:00      185.279      115.933       23.171       98.194       78.872       59.674     9642.025     6220.746     3560.965        3.386        0.971      218.561       32.590        0.022      341.325       15.957      864.016
10/01/2014  18:28:00      130.257      150.413       -2.745       91.507       81.112       68.782     8373.535     6579.167     4730.994        2.964        0.984      198.974       49.522        0.062      341.345       15.991      864.017
10/01/2014  18:29:00      178.781      134.717       25.480      112.796       69.824       53.267    12722.952     4875.415     2837.387        3.559        1.022      223.856       38.879        0.030      341.313       15.937      864.033
10/01/2014  18:30:00       78.249       88.795        5.056       80.120       47.042       41.316     6419.288     2212.971     1707.033        1.218        0.517      118.353       26.125        0.049      341.268       15.862      864.043
10/01/2014  18:31:00       99.126       77.922        7.303       73.646       61.813       48.713     5423.710     3820.905     2372.969        1.378        0.581      126.087       33.402        0.070      341.260       15.848      864.042
10/01/2014  18:32:00      201.197      166.165       15.618      112.774       89.942       72.940    12718.071     8089.512     5320.286        4.723        1.306      260.942       54.910        0.044      341.271       15.864      864.038
10/01/2014  18:33:00      126.854      110.869        9.946       91.037       82.754       53.355     8287.805     6848.223     2846.729        2.323        0.899      168.475       47.180        0.078      341.240       15.814      864.050
10/01/2014  18:34:00      169.892      172.975        9.861       85.675       66.730       53.134     7340.266     4452.921     2823.198        3.675        0.731      242.454       36.917        0.023      341.282       15.884      864.062
10/01/2014  18:35:00      105.696       95.579        5.065       87.539       82.130       61.095     7663.024     6745.388     3732.593        1.923        0.907      142.503       41.452        0.085      341.204       15.754      864.069
10/01/2014  18:36:00      102.807       77.812       17.750       68.388       42.928       38.881     4676.869     1842.820     1511.767        1.248        0.402      128.934       29.880        0.054      341.169       15.695      864.078
10/01/2014  18:37:00      105.639       77.343       41.474       75.753       44.386       39.337     5738.455     1970.106     1547.402        1.406        0.463      130.926       40.831        0.097      341.168       15.692      864.089
10/01/2014  18:38:00      134.314      113.539       14.184       48.634       49.300       46.644     2365.224     2430.492     2175.671        1.905        0.349      175.874       25.804        0.022      341.171       15.696      864.096
10/01/2014  18:39:00      105.481       92.004       19.909       71.240       47.222       49.425     5075.203     2229.916     2442.857        1.487        0.487      139.968       35.200        0.063      341.151       15.663      864.105
10/01/2014  18:40:00      133.111       91.349       18.600       63.345       46.138       38.165     4012.575     2128.741     1456.538        1.700        0.380      161.441       27.533        0.029      341.092       15.563      864.120
10/01/2014  18:41:00      167.217       95.203        8.309       85.384       55.005       44.731     7290.476     3025.571     2000.868        2.470        0.616      192.419       28.148        0.021      341.160       15.679      864.123
10/01/2014  18:42:00      123.381       98.371        7.683       63.928       54.350       37.418     4086.815     2953.917     1400.124        1.670        0.422      157.797       25.286        0.026      341.137       15.640      864.131
10/01/2014  18:43:00       90.839       71.246       16.396       65.511       41.709       37.411     4291.745     1739.655     1399.613        1.051        0.372      115.445       18.681        0.026      341.079       15.543      864.145
10/01/2014  18:44:00      153.267      107.859       31.073      101.080       57.152       52.305    10217.098     3266.362     2735.766        2.615        0.811      187.415       23.299        0.015      341.091       15.562      864.151
10/01/2014  18:45:00      111.401       91.554       19.277       87.130       53.183       40.133     7591.671     2828.418     1610.625        1.660        0.602      144.195       29.752        0.043      341.043       15.480      864.155
10/01/2014  18:46:00       71.078       59.556       12.612       77.797       47.328       36.442     6052.417     2239.972     1327.998        0.919        0.481       92.731       23.931        0.067      341.020       15.442      864.169
10/01/2014  18:47:00      119.162       73.380       16.338       65.022       39.441       38.418     4227.815     1555.596     1475.973        1.355        0.363      139.944       14.958        0.011      341.031       15.462      864.178
10/01/2014  18:48:00      103.249       75.342        6.373       63.012       59.610       35.748     3970.545     3553.309     1277.918        1.259        0.440      127.815       25.684        0.040      340.988       15.388      864.189
10/01/2014  18:49:00      119.580       84.621       14.237       62.814       57.915       37.026     3945.562     3354.132     1370.938        1.517        0.434      146.492       28.771        0.039      340.980       15.375      864.194
10/01/2014  18:50:00      116.249       94.223       28.946       70.637       52.732       41.934     4989.573     2780.618     1758.492        1.638        0.476      149.639       29.829        0.040      340.983       15.379      864.187
10/01/2014  18:51:00       98.624       56.141       30.462       55.399       35.474       26.192     3069.094     1258.396      686.009        0.941        0.251      113.483       10.440        0.008      340.802       15.074      864.180
10/01/2014  18:52:00      104.051       55.067       28.920       43.569       30.154       24.584     1898.257      909.278      604.390        0.905        0.171      117.724       15.044        0.016      340.908       15.253      864.178
10/01/2014  18:53:00       60.906       50.265       16.320       58.394       46.315       31.962     3409.838     2145.061     1021.548        0.654        0.329       78.969       18.998        0.058      340.917       15.268      864.178
10/01/2014  18:54:00      111.650       77.183       18.750       67.965       49.601       45.060     4619.188     2460.234     2030.443        1.394        0.455      135.731       33.941        0.063      341.013       15.429      864.173
10/01/2014  18:55:00      118.589       79.535       30.724       61.996       38.538       33.524     3843.500     1485.206     1123.832        1.389        0.323      142.790       16.119        0.013      340.977       15.371      864.176
10/01/2014  18:56:00      106.578       74.274        9.234       71.561       37.982       32.954     5121.002     1442.632     1085.960        1.230        0.382      129.906       17.230        0.018      340.974       15.364      864.182
10/01/2014  18:57:00       90.509       65.119       12.020       39.469       31.557       24.100     1557.776      995.826      580.834        0.786        0.157      111.500       10.855        0.009      340.869       15.189      864.203
10/01/2014  18:58:00       87.176       64.999       16.714       47.210       27.967       26.657     2228.741      782.162      710.578        0.791        0.186      108.741       10.627        0.010      340.806       15.082      864.223
10/01/2014  18:59:00       79.628       53.501       26.295       35.314       32.554       24.799     1247.047     1059.760      614.992        0.641        0.146       95.933       17.580        0.034      340.814       15.095      864.238
10/01/2014  19:00:00       70.443       60.667       16.383       37.008       27.958       26.711     1369.571      781.675      713.496        0.589        0.143       92.966       19.406        0.044      340.756       14.997      864.249
10/01/2014  19:01:00       23.908       29.851       24.301       29.132       36.384       21.603      848.665     1323.764      466.700        0.235        0.132       38.245       14.094        0.136      340.713       14.924      864.257
10/01/2014  19:02:00       42.020       31.757       17.340       23.811       20.201       16.641      566.957      408.093      276.925        0.216        0.063       52.671        6.859        0.017      340.690       14.885      864.264
10/01/2014  19:03:00       49.618       53.879        9.695       23.795       26.089       22.493      566.222      680.637      505.928        0.361        0.088       73.245       14.052        0.037      340.788       15.049      864.272
10/01/2014  19:04:00       43.679       38.885        6.060       34.389       28.169       28.147     1182.621      793.475      792.273        0.311        0.138       58.480       20.237        0.120      340.802       15.075      864.290
10/01/2014  19:05:00       50.850       31.113        9.013       39.825       21.686       23.755     1586.063      470.276      564.312        0.313        0.131       59.613       12.799        0.046      340.569       14.681      864.303
10/01/2014  19:06:00       28.177       20.805        8.157       27.708       16.236       15.415      767.758      263.611      237.613        0.128        0.063       35.026        9.320        0.071      340.692       14.890      864.318
10/01/2014  19:07:00       32.691       30.158       -1.112       26.953       26.725       18.660      726.477      714.213      348.189        0.188        0.089       44.476       13.287        0.089      340.738       14.966      864.323
10/01/2014  19:08:00       40.529       35.343       -7.976       22.082       36.024       21.325      487.598     1297.706      454.756        0.260        0.112       53.775       18.789        0.122      340.742       14.972      864.331
10/01/2014  19:09:00       37.075       34.499        1.228       24.195       34.408       23.263      585.385     1183.934      541.160        0.244        0.116       50.643       18.412        0.132      340.777       15.032      864.343
10/01/2014  19:10:00       35.828       44.093       -0.476       30.737       25.894       20.529      944.737      670.486      421.426        0.263        0.102       56.814       19.025        0.112      340.772       15.022      864.359
10/01/2014  19:11:00       25.026       32.381       -0.336       25.357       24.621       20.305      643.000      606.202      412.277        0.167        0.083       40.924       18.575        0.206      340.697       14.896      864.375
10/01/2014  19:12:00       58.184       44.779        3.396       37.832       37.660       28.376     1431.236     1418.273      805.180        0.453        0.183       73.420       20.524        0.078      340.650       14.817      864.385
10/01/2014  19:13:00       37.088       36.507       12.824       27.234       23.368       19.850      741.690      546.063      394.029        0.228        0.084       52.041       17.024        0.107      340.647       14.813      864.398
10/01/2014  19:14:00       41.487       54.919       -0.593       25.241       19.492       18.023      637.098      379.928      324.822        0.304        0.067       68.828       11.903        0.030      340.709       14.917      864.404
10/01/2014  19:15:00       39.541       45.850       -2.321       24.526       27.849       20.729      601.526      775.573      429.681        0.274        0.090       60.545       16.110        0.071      340.713       14.923      864.403
10/01/2014  19:16:00       40.335       54.143       -0.180       28.999       31.988       26.997      840.917     1023.213      728.850        0.358        0.130       67.516       20.394        0.091      340.713       14.924      864.398
10/01/2014  19:17:00       44.911       47.908       11.175       41.942       38.063       31.362     1759.135     1448.792      983.573        0.431        0.210       65.667       21.295        0.105      340.690       14.885      864.399
10/01/2014  19:18:00       55.465       47.345       13.015       28.114       18.681       19.555      790.399      348.990      382.417        0.350        0.076       72.923        8.925        0.015      340.652       14.821      864.404
10/01/2014  19:19:00       54.642       39.484       12.000       39.464       25.197       29.678     1557.424      634.909      880.769        0.388        0.154       67.415       17.002        0.064      340.679       14.867      864.415
10/01/2014  19:20:00       35.858       42.657        0.251       25.695       30.121       19.343      660.225      907.254      374.164        0.252        0.097       55.726       14.452        0.067      340.654       14.824      864.433
10/01/2014  19:21:00       33.216       39.687       -1.191       24.075       35.058       22.241      579.627     1229.039      494.652        0.249        0.115       51.752       19.886        0.148      340.692       14.888      864.445
10/01/2014  19:22:00       27.314       54.203       -1.720       30.162       35.659       28.348      909.749     1271.545      803.618        0.334        0.149       60.696       20.162        0.110      340.728       14.947      864.455
10/01/2014  19:23:00       31.596       86.495      -19.841       22.057       32.337       19.124      486.503     1045.700      365.712        0.539        0.095       92.085       17.751        0.037      340.729       14.951      864.468
10/01/2014  19:24:00       36.839      104.890      -19.636       24.330       31.455       17.551      591.972      989.389      308.052        0.732        0.094      111.171       16.146        0.021      340.737       14.964      864.477
10/01/2014  19:25:00       24.875       79.420      -11.203       31.358       41.203       27.094      983.340     1697.720      734.105        0.523        0.171       83.224       25.196        0.092      340.686       14.878      864.476
10/01/2014  19:26:00        7.360      138.747      -24.836       32.809       31.551       11.107     1076.461      995.445      123.370        1.106        0.110      138.942       12.256        0.008      340.803       15.077      864.492
10/01/2014  19:27:00      -31.493      131.255      -30.291       20.314       25.938       12.132      412.645      672.804      147.174        1.018        0.062      134.981       13.505        0.010      340.839       15.135      864.505
10/01/2014  19:28:00      -72.580       87.412      -20.712       39.944       35.585       13.308     1595.506     1266.316      177.104        0.819        0.152      113.617       10.339        0.008      340.995       15.401      864.525
10/01/2014  19:29:00     -114.800       79.748      -16.929       22.699       35.660       20.362      515.235     1271.633      414.601        1.101        0.110      139.782       13.704        0.010      340.880       15.205      864.548
10/01/2014  19:30:00     -135.982      100.004      -33.794       30.171       27.275       21.540      910.312      743.917      463.988        1.588        0.106      168.796       19.247        0.013      340.748       14.984      864.570
10/01/2014  19:31:00     -127.511      106.391      -30.047       34.429       38.620       26.295     1185.340     1491.467      691.409        1.592        0.168      166.067       24.757        0.022      340.675       14.860      864.595
10/01/2014  19:32:00     -101.953       95.066      -23.146       38.989       36.359       21.935     1520.111     1321.958      481.143        1.164        0.166      139.399       16.936        0.015      340.599       14.729      864.618
10/01/2014  19:33:00      -76.002       63.768      -18.093       29.776       26.686       17.384      886.638      712.162      302.198        0.604        0.095       99.210       16.918        0.029      340.547       14.642      864.639
10/01/2014  19:34:00     -100.038      101.245      -27.164       38.756       40.716       23.009     1502.047     1657.777      529.432        1.234        0.184      142.332       23.259        0.027      340.541       14.635      864.646
10/01/2014  19:35:00      -72.412       69.866      -15.959       36.360       30.797       19.097     1322.084      948.445      364.685        0.651        0.132      100.622       19.384        0.037      340.585       14.707      864.652
10/01/2014  19:36:00      -73.154      115.484      -22.408       25.057       32.552       17.591      627.875     1059.653      309.459        1.059        0.100      136.704        8.942        0.004      340.501       14.565      864.656
10/01/2014  19:37:00      -84.679      100.962      -17.301       37.974       29.720       22.831     1442.024      883.293      521.256        1.025        0.142      131.773       25.244        0.037      340.448       14.475      864.655
10/01/2014  19:38:00      -59.874       75.655      -14.044       24.214       19.933       14.087      586.312      397.309      198.443        0.534        0.059       96.481       11.694        0.015      340.457       14.491      864.666
10/01/2014  19:39:00      -31.306       56.956      -12.561       37.528       14.625       14.645     1408.383      213.904      214.473        0.311        0.092       64.992       13.836        0.045      340.466       14.506      864.660
10/01/2014  19:40:00      -26.688      108.927      -19.769       33.552       59.747       20.074     1125.738     3569.731      402.966        0.903        0.255      112.149       25.034        0.050      340.514       14.585      864.670
10/01/2014  19:41:00      -15.751       58.984       -5.814       36.892       42.962       19.334     1361.052     1845.697      373.793        0.367        0.179       61.051       20.978        0.118      340.506       14.573      864.667
10/01/2014  19:42:00      -11.197       49.627       -9.890       27.880       24.014       14.967      777.290      576.696      223.999        0.213        0.079       50.875       15.839        0.097      340.521       14.598      864.675
10/01/2014  19:43:00      -30.469       47.271       -2.096       27.250       23.671       18.834      742.551      560.303      354.728        0.241        0.083       56.240       18.708        0.111      340.552       14.651      864.676
10/01/2014  19:44:00       -0.529       68.134       -7.921       22.086       21.376       11.916      487.809      456.950      141.996        0.290        0.054       68.136       10.969        0.026      340.529       14.613      864.680
10/01/2014  19:45:00       -9.034       92.739      -11.092       23.617       25.593       14.991      557.781      655.017      224.744        0.512        0.072       93.178       15.840        0.029      340.546       14.643      864.685
10/01/2014  19:46:00       25.685      102.400      -19.807       23.010       17.603       13.893      529.458      309.873      193.003        0.628        0.052      105.572       10.323        0.010      340.449       14.477      864.703
10/01/2014  19:47:00       -2.458       85.644      -15.159       15.036       14.895        9.355      226.096      221.867       87.524        0.405        0.027       85.680        7.036        0.007      340.454       14.484      864.712
10/01/2014  19:48:00        0.679      104.074      -12.165       19.685       13.819       11.227      387.507      190.959      126.049        0.584        0.035      104.076        6.546        0.004      340.480       14.529      864.720
10/01/2014  19:49:00      -15.705       94.182      -10.905       26.759       19.305       12.766      716.040      372.686      162.967        0.524        0.063       95.482       11.243        0.014      340.540       14.632      864.726
10/01/2014  19:50:00      -16.833       79.073       -7.245       24.487       28.036       13.899      599.630      786.042      193.174        0.408        0.079       80.845       11.861        0.022      340.489       14.546      864.750
10/01/2014  19:51:00      -32.006       52.456       -2.291       27.616       25.584       14.411      762.658      654.526      207.670        0.270        0.081       61.449       10.078        0.027      340.460       14.496      864.757
10/01/2014  19:52:00      -33.792       27.151       -3.855       22.060       15.639       11.999      486.640      244.577      143.971        0.138        0.044       43.348       11.810        0.074      340.434       14.452      864.770
10/01/2014  19:53:00      -44.992       60.282      -13.140       23.622       21.083       12.100      557.988      444.511      146.399        0.349        0.057       75.221       14.200        0.036      340.454       14.485      864.781
10/01/2014  19:54:00      -38.279       30.580       -4.149       19.013       15.584       10.211      361.475      242.849      104.257        0.156        0.035       48.994        6.766        0.019      340.402       14.399      864.784
10/01/2014  19:55:00      -34.734       40.093      -10.001       10.447       22.301        9.916      109.150      497.325       98.330        0.181        0.035       53.046       10.423        0.039      340.426       14.439      864.797
10/01/2014  19:56:00      -16.216       70.271       -9.463       15.756       54.956       13.015      248.243     3020.191      169.397        0.436        0.172       72.117       20.080        0.078      340.466       14.504      864.802
10/01/2014  19:57:00       -2.445      120.505      -13.539       23.093       42.591       27.469      533.268     1813.998      754.563        0.891        0.155      120.529       27.119        0.051      340.406       14.404      864.805
10/01/2014  19:58:00       -7.756       87.641      -14.988       18.936       26.193       14.869      358.590      686.062      221.092        0.462        0.063       87.983       12.254        0.019      340.404       14.402      864.820
10/01/2014  19:59:00       -1.433      113.105      -13.820       17.530       32.241       13.571      307.310     1039.459      184.184        0.726        0.077      113.114       15.423        0.019      340.407       14.405      864.819
10/01/2014  20:00:00       18.735      108.139      -13.859       20.599       32.060       17.482      424.329     1027.827      305.605        0.700        0.088      109.750       17.621        0.026      340.371       14.345      864.829
10/01/2014  20:01:00       20.289       91.564      -12.260       24.544       30.209       12.658      602.395      912.613      160.220        0.531        0.084       93.785       11.207        0.014      340.300       14.224      864.839
10/01/2014  20:02:00       19.299       96.631      -13.881       20.117       26.211       15.333      404.685      687.004      235.097        0.561        0.066       98.539       12.785        0.017      340.286       14.201      864.838
10/01/2014  20:03:00       15.673      102.703       -5.523       31.554       52.454       26.301      995.639     2751.399      691.768        0.763        0.222      103.892       27.583        0.070      340.168       14.004      864.849
10/01/2014  20:04:00       31.039      104.489       -9.139       27.993       47.156       30.394      783.591     2223.648      923.784        0.795        0.197      109.002       31.374        0.083      340.201       14.056      864.853
10/01/2014  20:05:00       25.173      126.456      -11.309       34.112       42.791       26.277     1163.658     1831.051      690.475        1.022        0.184      128.937       27.538        0.046      340.236       14.118      864.851
10/01/2014  20:06:00       12.979      158.077      -22.441       26.659       33.526       16.055      710.706     1123.983      257.751        1.388        0.105      158.609       18.059        0.013      340.256       14.149      864.862
10/01/2014  20:07:00       22.570      151.001      -24.586       33.679       27.589       17.878     1134.273      761.158      319.629        1.306        0.111      152.679       13.850        0.008      340.227       14.101      864.882
10/01/2014  20:08:00       27.943      140.232      -16.688       27.654       22.460       16.579      764.722      504.471      274.871        1.113        0.077      142.989       12.938        0.008      340.196       14.049      864.886
10/01/2014  20:09:00       27.252      129.209      -18.798       26.371       38.798       20.140      695.455     1505.302      405.617        1.020        0.130      132.052       20.599        0.024      340.211       14.074      864.900
10/01/2014  20:10:00       27.427      141.518      -23.038       21.015       18.528       16.976      441.612      343.293      288.179        1.119        0.054      144.151        9.594        0.004      340.194       14.046      864.907
10/01/2014  20:11:00       22.744      134.417      -14.594       22.457       28.963       20.616      504.295      838.853      425.003        1.028        0.088      136.328       19.182        0.020      340.163       13.995      864.907
10/01/2014  20:12:00       31.710      133.412      -19.753       24.968       25.855       22.216      623.412      668.505      493.539        1.049        0.089      137.129       15.560        0.013      340.121       13.923      864.906
10/01/2014  20:13:00       25.570      119.522      -14.354       29.010       31.062       24.078      841.598      964.870      579.765        0.877        0.119      122.226       16.445        0.018      340.116       13.914      864.919
10/01/2014  20:14:00       25.399      135.354      -14.557       28.060       44.229       19.822      787.339     1956.205      392.899        1.116        0.157      137.716       19.621        0.020      340.129       13.936      864.921
10/01/2014  20:15:00       24.342      159.312      -20.882       26.372       36.019       26.751      695.487     1297.339      715.598        1.456        0.135      161.161       23.845        0.022      340.090       13.869      864.928
10/01/2014  20:16:00       30.099      157.512      -32.000       18.625       29.474       14.386      346.907      868.734      206.943        1.408        0.071      160.362       10.070        0.004      340.156       13.981      864.937
10/01/2014  20:17:00        9.854      128.317      -19.760       16.059       25.495       11.319      257.881      649.974      128.121        0.899        0.052      128.695       10.608        0.007      340.167       13.999      864.939
10/01/2014  20:18:00       18.429      138.912      -20.941       20.950       23.176       13.714      438.886      537.105      188.073        1.062        0.058      140.129       12.009        0.007      340.170       14.007      864.941
10/01/2014  20:19:00       21.543      115.291      -15.124       19.086       19.603       12.552      364.268      384.284      157.562        0.745        0.045      117.287        9.833        0.007      340.186       14.031      864.957
10/01/2014  20:20:00        3.906       92.317       -7.988       22.210       19.787       14.483      493.272      391.524      209.761        0.485        0.055       92.400       11.774        0.016      340.137       13.950      864.958
10/01/2014  20:21:00       16.517       80.215      -11.434       23.644       24.132       12.477      559.036      582.333      155.672        0.407        0.065       81.898        9.476        0.013      340.109       13.902      864.964
10/01/2014  20:22:00       -2.004      121.438      -15.352       20.236       26.016       13.446      409.480      676.811      180.801        0.813        0.063      121.454       11.722        0.009      340.090       13.871      864.981
10/01/2014  20:23:00       -4.612      133.091      -20.818       26.110       22.775       11.424      681.724      518.717      130.513        0.975        0.067      133.171       12.401        0.009      340.097       13.883      864.983
10/01/2014  20:24:00       23.926      128.393      -16.954       27.177       23.997       14.742      738.583      575.842      217.336        0.944        0.077      130.603       15.224        0.014      340.118       13.918      864.984
10/01/2014  20:25:00       34.574       90.434       -4.962       28.661       29.751       23.967      821.455      885.115      574.413        0.584        0.114       96.817       22.290        0.053      340.066       13.829      864.996
10/01/2014  20:26:00       22.154      103.991      -13.725       21.682       20.867       14.934      470.095      435.411      223.023        0.631        0.056      106.325       13.482        0.016      340.078       13.851      865.013
10/01/2014  20:27:00        8.616      103.756      -11.973       20.883       20.379       11.986      436.100      415.301      143.675        0.599        0.050      104.113       11.220        0.012      340.111       13.906      865.019
10/01/2014  20:28:00       15.461      100.729      -12.017       19.787       19.204       11.671      391.518      368.812      136.211        0.571        0.045      101.909        9.004        0.008      340.175       14.014      865.033
10/01/2014  20:29:00       13.960      100.659      -11.080       21.981       29.632       12.720      483.171      878.052      161.806        0.599        0.076      101.623       13.059        0.017      340.152       13.975      865.045
10/01/2014  20:30:00       16.795       83.648       -7.499       20.500       25.281       12.808      420.260      639.146      164.057        0.428        0.061       85.318       13.947        0.027      340.072       13.840      865.054
10/01/2014  20:31:00       10.033       71.636      -12.880       24.619       18.764       11.300      606.092      352.096      127.680        0.324        0.054       72.335        9.300        0.017      340.058       13.815      865.061
10/01/2014  20:32:00      -17.131       69.093       -6.295       25.552       22.973       15.590      652.900      527.767      243.056        0.327        0.071       71.185       16.876        0.056      340.031       13.771      865.070
10/01/2014  20:33:00      -10.998       71.669       -8.867       19.946       23.032       13.923      397.859      530.467      193.839        0.323        0.056       72.508       13.011        0.032      340.129       13.936      865.071
10/01/2014  20:34:00        1.325       33.098        9.133       14.291       23.157       11.939      204.237      536.232      142.543        0.103        0.044       33.125        9.935        0.090      339.967       13.664      865.068
10/01/2014  20:35:00        6.245       97.333       -9.071       23.025       23.596       13.462      530.173      556.756      181.223        0.543        0.063       97.534       12.453        0.016      340.114       13.912      865.078
10/01/2014  20:36:00       -5.725      110.602      -18.883       22.250       20.205       10.294      495.064      408.258      105.977        0.682        0.050      110.750       12.137        0.012      340.091       13.873      865.093
10/01/2014  20:37:00      -27.387      103.148      -13.896       27.384       23.789       13.095      749.874      565.914      171.474        0.653        0.074      106.721       10.837        0.010      340.147       13.967      865.093
10/01/2014  20:38:00      -18.941       77.409       -9.469       22.457       21.286       14.505      504.297      453.088      210.393        0.380        0.058       79.692       10.835        0.018      340.063       13.825      865.094
10/01/2014  20:39:00      -10.623       93.582      -10.563       19.812       19.365       12.059      392.508      375.008      145.409        0.495        0.046       94.183        7.238        0.006      340.094       13.876      865.111
10/01/2014  20:40:00      -10.112      128.890      -15.026       22.404       19.783       11.574      501.924      391.376      133.961        0.898        0.051      129.286        8.243        0.004      340.142       13.957      865.118
10/01/2014  20:41:00        1.162      137.046      -19.513       22.835       25.948       14.174      521.424      673.311      200.912        1.028        0.070      137.051       14.509        0.011      340.097       13.883      865.117
10/01/2014  20:42:00       -2.501      115.616      -13.706       27.537       26.973       14.603      758.288      727.550      213.254        0.763        0.085      115.643       14.014        0.015      340.101       13.889      865.133
10/01/2014  20:43:00       -5.243      125.086      -16.743       18.005       21.328        9.856      324.175      454.879       97.148        0.842        0.044      125.196        5.883        0.002      340.074       13.844      865.146
10/01/2014  20:44:00      -15.378      113.730      -18.013       21.892       22.631       12.788      479.264      512.181      163.538        0.733        0.058      114.765       11.927        0.011      340.084       13.860      865.142
10/01/2014  20:45:00      -30.868       85.142      -14.709       22.369       32.152       13.427      500.391     1033.754      180.296        0.507        0.086       90.565       12.396        0.019      340.009       13.734      865.150
10/01/2014  20:46:00      -32.975       36.694       -5.451       22.618       22.972       10.702      511.581      527.715      114.528        0.181        0.058       49.333        7.535        0.023      339.884       13.523      865.172
10/01/2014  20:47:00      -30.781       23.536       -4.102       35.781       26.286       15.585     1280.289      690.969      242.905        0.187        0.111       38.749        8.841        0.052      339.792       13.368      865.189
10/01/2014  20:48:00      -43.925       -1.359       -4.497       23.127       12.523       11.852      534.841      156.822      140.475        0.139        0.042       43.946       13.482        0.094      339.393       12.694      865.201
10/01/2014  20:49:00      -42.063      -31.869       -3.756       17.663       16.203       11.273      311.985      262.549      127.082        0.175        0.035       52.772        5.980        0.013      339.352       12.626      865.213
10/01/2014  20:50:00      -37.423      -15.884       -1.343       13.114       13.504        9.710      171.976      182.362       94.285        0.105        0.022       40.655        6.525        0.026      339.378       12.670      865.233
10/01/2014  20:51:00      -45.062      -17.933       -7.235       15.992       21.406        9.851      255.746      458.218       97.047        0.161        0.041       48.499        5.820        0.014      339.378       12.671      865.249
10/01/2014  20:52:00      -56.596       -5.906      -13.691       15.075       12.614       13.433      227.248      159.109      180.448        0.200        0.028       56.903        5.796        0.010      339.296       12.533      865.257
10/01/2014  20:53:00      -56.438      -16.815      -15.692       18.479       14.945       10.128      341.456      223.357      102.573        0.219        0.033       58.889        4.729        0.006      339.264       12.478      865.268
10/01/2014  20:54:00      -48.139      -13.485       -7.097       15.858       14.293       14.111      251.469      204.295      199.132        0.160        0.033       49.992        5.348        0.011      339.350       12.624      865.279
10/01/2014  20:55:00      -39.057      -11.017      -23.730       18.709       13.342       15.382      350.016      178.000      236.608        0.149        0.038       40.582        9.447        0.054      339.369       12.654      865.297
10/01/2014  20:56:00      -49.458       -9.146      -13.829       13.972       11.050       10.689      195.215      122.101      114.261        0.158        0.022       50.296        5.553        0.012      339.251       12.455      865.312
10/01/2014  20:57:00      -49.151      -14.288       -5.577       14.837       14.902        9.453      220.149      222.056       89.358        0.159        0.027       51.186        7.877        0.024      339.222       12.408      865.317
10/01/2014  20:58:00      -63.175      -12.346      -13.810       15.282       16.318       10.886      233.537      266.293      118.499        0.248        0.031       64.370       11.312        0.031      339.242       12.441      865.322
10/01/2014  20:59:00      -56.112      -17.863      -10.891       11.604       10.698       10.631      134.655      114.443      113.025        0.197        0.018       58.887        4.795        0.007      339.211       12.389      865.333
10/01/2014  21:00:00      -50.389       -2.146       -9.011       15.419       15.658       13.931      237.752      245.176      194.074        0.165        0.034       50.435        9.545        0.036      339.258       12.468      865.343
10/01/2014  21:01:00      -63.470       13.630       -9.043       18.259       30.398       12.248      333.407      924.053      150.011        0.285        0.070       64.917       11.379        0.031      339.437       12.769      865.343
10/01/2014  21:02:00      -44.796       35.777       -6.459       27.405       33.148       14.173      751.059     1098.760      200.867        0.269        0.103       57.330       10.968        0.037      339.535       12.935      865.343
10/01/2014  21:03:00      -13.315       82.968       -9.978       23.977       36.603       18.035      574.880     1339.766      325.278        0.470        0.112       84.030       19.258        0.053      339.790       13.365      865.356
10/01/2014  21:04:00      -35.384       89.527      -10.578       22.562       27.526       13.619      509.029      757.688      185.474        0.542        0.073       96.266       10.311        0.011      339.725       13.255      865.372
10/01/2014  21:05:00      -63.992       98.296      -18.347       18.453       18.520       13.019      340.518      342.984      169.493        0.747        0.043      117.291        5.949        0.003      339.724       13.253      865.376
10/01/2014  21:06:00      -27.360      105.631      -11.307       22.029       23.184       15.818      485.275      537.477      250.210        0.665        0.064      109.117       10.981        0.010      339.835       13.440      865.382
10/01/2014  21:07:00      -35.272       82.666      -13.626       26.140       33.499       12.129      683.294     1122.209      147.102        0.511        0.098       89.876       11.687        0.017      339.767       13.326      865.381
10/01/2014  21:08:00      -58.390       82.250      -17.356       26.779       27.327       12.646      717.119      746.789      159.934        0.605        0.081      100.868       12.220        0.015      339.678       13.176      865.400
10/01/2014  21:09:00      -46.229       95.453      -22.906       21.552       37.041       16.953      464.499     1372.002      287.402        0.695        0.106      106.059       19.322        0.033      339.716       13.241      865.402
10/01/2014  21:10:00      -41.673       95.262      -12.802       32.323       26.012       18.363     1044.757      676.636      337.191        0.652        0.103      103.978       12.168        0.014      339.705       13.222      865.405
10/01/2014  21:11:00      -59.970       96.416      -20.341       32.324       21.856       13.805     1044.823      477.683      190.588        0.751        0.086      113.545       10.930        0.009      339.660       13.146      865.411
10/01/2014  21:12:00      -38.834       80.297       -6.329       35.665       31.905       19.125     1271.969     1017.898      365.747        0.533        0.133       89.195       16.582        0.035      339.618       13.074      865.410
10/01/2014  21:13:00      -44.688       65.613      -12.889       25.861       30.093       15.814      668.779      905.594      250.084        0.415        0.091       79.386       19.046        0.058      339.671       13.164      865.408
10/01/2014  21:14:00      -41.935       21.428       -7.803       17.283       19.573       11.214      298.719      383.096      125.759        0.154        0.040       47.092        7.483        0.025      339.552       12.965      865.421
10/01/2014  21:15:00      -52.927       38.345      -13.887       22.495       28.460       15.241      506.028      809.965      232.292        0.301        0.077       65.358       15.829        0.059      339.475       12.834      865.425
10/01/2014  21:16:00      -45.850       19.238       -8.507       13.228       12.480       10.556      174.988      155.762      111.433        0.149        0.022       49.723        4.825        0.009      339.338       12.602      865.430
10/01/2014  21:17:00      -56.360       96.652      -21.176       34.119       36.732       19.314     1164.092     1349.229      373.017        0.793        0.144      111.884       22.322        0.040      339.577       13.006      865.451
10/01/2014  21:18:00      -72.968       93.291      -24.053       23.190       25.602       17.314      537.786      655.486      299.762        0.805        0.075      118.437        3.900        0.001      339.531       12.928      865.466
10/01/2014  21:19:00      -66.121       69.127      -14.254       28.560       31.077       21.300      815.677      965.757      453.678        0.579        0.112       95.659       18.936        0.039      339.438       12.770      865.477
10/01/2014  21:20:00      -61.230       37.285      -13.172       22.944       22.081       10.230      526.410      487.551      104.656        0.322        0.056       71.689        7.817        0.012      339.380       12.673      865.498
10/01/2014  21:21:00      -73.266       26.814      -16.529       17.237       22.092       13.326      297.108      488.037      177.576        0.366        0.048       78.019        7.737        0.010      339.341       12.608      865.505
10/01/2014  21:22:00      -60.737        5.735      -11.136       20.423       12.441       12.535      417.097      154.783      157.137        0.229        0.036       61.008       13.849        0.052      339.102       12.205      865.522
10/01/2014  21:23:00      -54.831        7.477      -13.574       19.371       16.293       12.129      375.239      265.463      147.124        0.202        0.039       55.339        5.810        0.011      339.175       12.328      865.536
10/01/2014  21:24:00      -49.686       23.809       -6.288       10.976       26.656       10.170      120.471      710.563      103.423        0.200        0.047       55.096        6.175        0.013      339.251       12.456      865.549
10/01/2014  21:25:00      -57.026       11.139       -9.609       12.978       20.699        9.189      168.420      428.460       84.446        0.207        0.034       58.104        6.167        0.011      339.030       12.084      865.568
10/01/2014  21:26:00      -90.031       93.453      -22.876       24.372       23.607       15.555      593.973      557.295      241.959        0.938        0.070      129.765        8.930        0.005      339.496       12.868      865.570
10/01/2014  21:27:00      -76.195       70.493      -18.967       25.845       33.365       18.723      667.988     1113.247      350.545        0.663        0.107      103.802        7.680        0.005      339.362       12.645      865.574
10/01/2014  21:28:00      -67.064       54.926      -14.446       17.497       32.337       14.501      306.144     1045.660      210.279        0.464        0.078       86.686       14.057        0.026      339.334       12.596      865.585
10/01/2014  21:29:00      -55.092       18.448      -13.471       18.668       26.952       12.076      348.493      726.416      145.832        0.239        0.061       58.099        8.044        0.019      339.299       12.538      865.585
10/01/2014  21:30:00      -59.402       40.837      -18.046       17.841       34.602       12.290      318.297     1197.308      151.052        0.359        0.083       72.085       14.185        0.039      339.342       12.610      865.592
10/01/2014  21:31:00      -52.483       38.839      -12.320       20.901       25.293       12.812      436.833      639.712      164.156        0.283        0.062       65.291       10.961        0.028      339.354       12.630      865.598
10/01/2014  21:32:00      -38.755       -3.241       -7.918        9.519       12.120        7.377       90.611      146.901       54.425        0.093        0.015       38.891        5.862        0.023      339.195       12.361      865.594
10/01/2014  21:33:00      -30.507      -14.170       -5.436       11.465       11.957        8.141      131.447      142.959       66.283        0.075        0.017       33.638        5.130        0.023      339.152       12.289      865.600
10/01/2014  21:34:00      -55.604      -19.038      -10.854       11.715       17.056       10.219      137.240      290.919      104.432        0.205        0.027       58.773        6.568        0.012      339.172       12.321      865.601
10/01/2014  21:35:00      -39.632      -26.423      -11.209       18.624       16.403       11.590      346.861      269.059      134.338        0.157        0.038       47.632        8.513        0.032      339.019       12.066      865.598
10/01/2014  21:36:00      -64.956      -18.540      -10.669       15.402       13.174       14.686      237.215      173.554      215.667        0.265        0.031       67.550        6.431        0.009      338.992       12.021      865.601
10/01/2014  21:37:00      -64.836      -15.608      -13.007       16.630       21.661       11.744      276.561      469.186      137.921        0.275        0.044       66.688        9.063        0.018      338.894       11.854      865.600
10/01/2014  21:38:00      -62.417       -6.194      -14.961       19.086       16.623       11.680      364.281      276.330      136.431        0.247        0.039       62.724        8.236        0.017      338.846       11.774      865.598
10/01/2014  21:39:00      -71.299        5.018      -19.044       18.801       19.829       13.054      353.465      393.181      170.409        0.319        0.046       71.475        9.106        0.016      338.726       11.575      865.607
10/01/2014  21:40:00      -75.658        6.864      -14.230       20.529       15.899       13.195      421.448      252.778      174.101        0.341        0.042       75.969        9.150        0.015      338.843       11.771      865.617
10/01/2014  21:41:00      -66.383        3.898      -16.559       17.677       12.739       10.199      312.488      162.289      104.024        0.264        0.029       66.497        6.380        0.009      338.867       11.809      865.621
10/01/2014  21:42:00      -48.231       -6.587       -3.402       18.424       10.923       11.000      339.452      119.321      121.008        0.148        0.029       48.678       11.184        0.053      338.851       11.782      865.643
10/01/2014  21:43:00      -45.703       18.148       -7.250       24.486       29.221       13.440      599.546      853.855      180.642        0.205        0.082       49.175       15.389        0.098      339.060       12.135      865.660
10/01/2014  21:44:00      -61.244       50.785      -14.301       20.603       34.652       13.638      424.490     1200.788      186.004        0.417        0.091       79.561       18.324        0.053      339.358       12.638      865.660
10/01/2014  21:45:00      -46.698        0.390       -7.460       15.736       21.249        9.935      247.616      451.526       98.704        0.152        0.040       46.699        6.838        0.021      339.103       12.208      865.670
10/01/2014  21:46:00      -16.991       -4.772       -7.112       15.925       16.857       10.484      253.599      284.162      109.921        0.050        0.032       17.648        5.627        0.102      339.221       12.405      865.680
10/01/2014  21:47:00      -43.907        2.017       -2.975       21.838       12.437       11.399      476.880      154.677      129.948        0.135        0.038       43.954        8.386        0.036      339.260       12.472      865.679
10/01/2014  21:48:00      -45.425       -7.155      -11.016       21.606       11.380       10.672      466.813      129.509      113.886        0.147        0.036       45.985       10.323        0.050      338.989       12.016      865.676
10/01/2014  21:49:00        2.008      -16.220        7.854       16.839       15.357       15.028      283.541      235.840      225.856        0.054        0.037       16.344        9.997        0.374      339.099       12.200      865.671
10/01/2014  21:50:00      -56.355      -14.647      -11.222       25.100       19.611        8.940      630.024      384.597       79.929        0.231        0.055       58.227        8.774        0.023      338.870       11.815      865.671
10/01/2014  21:51:00      -46.962      -12.823      -10.828       16.444       21.181       13.084      270.419      448.638      171.192        0.169        0.045       48.682       11.019        0.051      338.842       11.767      865.673
10/01/2014  21:52:00      -42.633      -20.653       -3.359       22.397       20.468       17.185      501.636      418.926      295.336        0.174        0.061       47.372       10.014        0.045      338.982       12.004      865.675
10/01/2014  21:53:00      -27.841       -9.134       -8.087       17.756       11.800        9.923      315.286      139.235       98.462        0.074        0.028       29.301        4.845        0.027      338.951       11.950      865.678
10/01/2014  21:54:00      -31.861      -12.363       -6.412       17.432       19.415       10.041      303.858      376.949      100.826        0.100        0.039       34.176        9.856        0.083      338.854       11.788      865.684
10/01/2014  21:55:00      -51.209      -21.740      -18.501       19.703       14.059       11.397      388.225      197.662      129.900        0.208        0.036       55.632        6.533        0.014      338.777       11.659      865.678
10/01/2014  21:56:00      -59.454      -41.549      -14.307       15.654       19.255       14.404      245.060      370.756      207.489        0.314        0.041       72.533        5.723        0.006      338.662       11.465      865.676
10/01/2014  21:57:00      -72.995      -21.744      -13.349       23.804       19.657       14.652      566.621      386.401      214.693        0.357        0.058       76.165        7.676        0.010      338.614       11.387      865.689
10/01/2014  21:58:00      -74.726      -17.928      -14.684       29.336       17.152       12.411      860.577      294.186      154.038        0.371        0.065       76.846        5.111        0.004      338.640       11.429      865.684
10/01/2014  21:59:00      -45.952       -4.867       -8.036       21.672       17.614       14.036      469.686      310.258      197.003        0.159        0.049       46.209        5.996        0.017      338.573       11.317      865.693
10/01/2014  22:00:00      -60.253       -5.431      -11.798       20.895       21.828       11.262      436.601      476.470      126.842        0.242        0.052       60.498        8.047        0.018      338.610       11.379      865.706
10/01/2014  22:01:00      -58.240       -6.404      -10.751       16.320       14.549       12.332      266.347      211.677      152.077        0.209        0.032       58.591        6.771        0.013      338.648       11.442      865.708
10/01/2014  22:02:00      -73.626       -0.536      -20.663       15.794       18.684       13.632      249.440      349.084      185.824        0.332        0.039       73.628       10.821        0.022      338.593       11.350      865.707
10/01/2014  22:03:00      -54.019      -11.226      -11.377       12.222       15.388        9.873      149.378      236.797       97.476        0.183        0.024       55.174        7.143        0.017      338.644       11.436      865.713
10/01/2014  22:04:00      -46.998      -17.863      -13.295       16.943       13.055        8.622      287.064      170.426       74.332        0.162        0.027       50.278        6.622        0.017      338.592       11.348      865.718
10/01/2014  22:05:00      -57.978      -25.914      -14.584       15.292       15.174       12.498      233.846      230.254      156.203        0.243        0.031       63.505        4.861        0.006      338.580       11.329      865.722
10/01/2014  22:06:00      -62.047      -43.480      -13.449       18.665       16.351       10.389      348.386      267.358      107.939        0.332        0.036       75.765        9.931        0.017      338.596       11.356      865.713
10/01/2014  22:07:00      -71.207      -35.497      -18.862       13.153       14.439        9.350      173.011      208.480       87.421        0.358        0.023       79.564        7.752        0.009      338.526       11.238      865.720
10/01/2014  22:08:00      -80.349      -25.805      -15.184       33.289       17.906       13.374     1108.164      320.617      178.866        0.448        0.080       84.391       10.605        0.016      338.414       11.049      865.739
10/01/2014  22:09:00      -62.649      -25.420      -16.980       16.393       12.507        9.119      268.725      156.414       83.153        0.268        0.025       67.609        7.494        0.012      338.358       10.955      865.745
10/01/2014  22:10:00      -84.349      -36.286      -10.491       17.172       14.953       11.375      294.866      223.587      129.395        0.459        0.032       91.823       10.131        0.012      338.329       10.905      865.758
10/01/2014  22:11:00      -91.029      -19.365      -13.497       19.660       14.284       14.214      386.522      204.042      202.046        0.482        0.040       93.066       14.911        0.026      338.394       11.014      865.783
10/01/2014  22:12:00      -91.901      -37.677      -15.830       12.820       12.383       10.918      164.364      153.330      119.208        0.528        0.022       99.324        6.136        0.004      338.488       11.174      865.786
10/01/2014  22:13:00      -94.768      -43.246      -16.058        9.875       11.980        9.205       97.520      143.511       84.724        0.572        0.016      104.170        1.397        0.000      338.419       11.058      865.786
10/01/2014  22:14:00     -102.287      -28.017      -14.244       11.890        9.744       10.104      141.367       94.936      102.100        0.589        0.017      106.055        2.887        0.001      338.380       10.990      865.794
10/01/2014  22:15:00      -95.075      -26.268      -18.808       10.462       10.420        7.145      109.450      108.582       51.051        0.518        0.013       98.637        2.849        0.001      338.423       11.066      865.804
10/01/2014  22:16:00     -102.035      -26.121      -15.593       13.061        9.189        8.499      170.589       84.446       72.236        0.583        0.016      105.325        6.186        0.003      338.443       11.097      865.807
10/01/2014  22:17:00     -101.154      -22.281      -14.863       15.566       11.953       11.331      242.300      142.878      128.399        0.573        0.026      103.579        4.793        0.002      338.443       11.100      865.819
10/01/2014  22:18:00     -103.313      -29.789       -8.917       14.988       13.798       11.944      224.639      190.393      142.662        0.610        0.028      107.522        7.066        0.004      338.437       11.087      865.831
10/01/2014  22:19:00      -94.883      -30.775       -6.270       15.778       12.997       11.280      248.958      168.923      127.234        0.527        0.027       99.749        9.159        0.008      338.482       11.163      865.821
10/01/2014  22:20:00      -92.890      -19.963      -11.645        8.003       11.117        7.024       64.048      123.589       49.344        0.470        0.012       95.011        2.816        0.001      338.422       11.063      865.810
10/01/2014  22:21:00      -65.781      -15.978      -11.181       15.834       18.955       14.519      250.725      359.295      210.790        0.276        0.041       67.693       10.123        0.022      338.417       11.054      865.809
10/01/2014  22:22:00      -75.990      -17.888      -13.745       10.647        8.307        8.270      113.367       69.004       68.395        0.327        0.013       78.067        4.487        0.003      338.400       11.026      865.802
10/01/2014  22:23:00      -85.523      -21.526      -14.780        9.559       11.124        8.758       91.376      123.750       76.696        0.414        0.015       88.190        3.710        0.002      338.385       11.000      865.794
10/01/2014  22:24:00      -83.310      -26.668      -13.506        6.076        5.442        5.795       36.914       29.612       33.582        0.397        0.005       87.474        4.689        0.003      338.284       10.830      865.809
10/01/2014  22:25:00      -87.250      -14.923      -11.845        9.485        8.648        6.565       89.966       74.782       43.093        0.409        0.010       88.517        2.526        0.001      338.310       10.873      865.808
10/01/2014  22:26:00      -88.401      -24.413       -8.019        8.186       12.886        8.980       67.013      166.051       80.633        0.439        0.016       91.710        6.742        0.005      338.307       10.870      865.797
10/01/2014  22:27:00      -71.062      -19.198      -12.222        7.631        7.767        7.699       58.227       60.319       59.270        0.287        0.009       73.610        3.953        0.003      338.263       10.793      865.796
10/01/2014  22:28:00      -85.363      -17.059      -14.459        9.108        8.969        7.093       82.950       80.446       50.316        0.400        0.011       87.051        2.572        0.001      338.258       10.786      865.797
10/01/2014  22:29:00      -93.120      -18.381      -15.827       11.858       11.476       12.163      140.622      131.695      147.949        0.484        0.021       94.917        8.180        0.007      338.242       10.761      865.797
10/01/2014  22:30:00      -88.230      -15.471      -16.058       16.632       11.875        9.479      276.634      141.015       89.859        0.439        0.025       89.576        5.805        0.004      338.240       10.757      865.803
10/01/2014  22:31:00      -98.184      -26.439      -13.795       10.357       10.182       10.272      107.265      103.669      105.517        0.542        0.016      101.682        3.602        0.001      338.221       10.724      865.818
10/01/2014  22:32:00      -98.967      -34.155      -13.727       12.575       12.944       11.032      158.140      167.557      121.701        0.580        0.022      104.695        4.821        0.002      338.140       10.589      865.828
10/01/2014  22:33:00      -88.787      -17.006      -14.349       14.696       15.029       11.999      215.981      225.878      143.972        0.448        0.029       90.401        9.281        0.011      338.099       10.521      865.840
10/01/2014  22:34:00     -107.513      -13.094      -13.734       13.459       13.621        8.144      181.135      185.524       66.330        0.618        0.022      108.307        5.668        0.003      338.055       10.446      865.855
10/01/2014  22:35:00      -90.319      -19.752      -11.507        8.475       10.284        8.642       71.818      105.758       74.685        0.447        0.013       92.454        1.642        0.000      338.066       10.465      865.867
10/01/2014  22:36:00      -92.128      -17.609      -15.353       11.106       10.202       10.974      123.338      104.081      120.422        0.469        0.017       93.796        5.245        0.003      338.003       10.359      865.865
10/01/2014  22:37:00      -88.163      -15.917      -18.415       13.538       11.582        9.140      183.277      134.139       83.545        0.438        0.020       89.589        8.989        0.010      338.008       10.368      865.860
10/01/2014  22:38:00      -69.223      -15.867      -18.194       18.540       14.551        9.035      343.744      211.730       81.626        0.301        0.032       71.018        5.645        0.006      338.139       10.588      865.880
10/01/2014  22:39:00      -85.494      -25.602      -11.678       14.799       14.652       10.890      219.024      214.674      118.595        0.433        0.028       89.245        6.058        0.005      337.933       10.241      865.882
10/01/2014  22:40:00      -78.743      -30.934      -11.345       19.402       22.320       13.266      376.442      498.166      175.999        0.417        0.053       84.602       12.047        0.020      337.988       10.336      865.884
10/01/2014  22:41:00      -74.119      -32.059      -17.678       20.808       23.088       11.173      432.972      533.052      124.838        0.396        0.055       80.755       10.995        0.019      337.968       10.301      865.895
10/01/2014  22:42:00      -68.715      -47.625      -10.265       18.916       25.237       12.141      357.816      636.906      147.415        0.412        0.057       83.605       10.041        0.014      337.874       10.142      865.899
10/01/2014  22:43:00      -50.536      -50.587       -3.824       25.087       28.477       16.610      629.345      810.939      275.898        0.342        0.086       71.505        9.560        0.018      337.892       10.173      865.903
10/01/2014  22:44:00      -73.984      -39.127       -9.993       21.940       20.002       11.794      481.369      400.081      139.087        0.406        0.051       83.693        8.162        0.010      337.936       10.247      865.918
10/01/2014  22:45:00      -88.624       -0.842      -16.221       22.676       16.907       11.659      514.188      285.832      135.939        0.453        0.047       88.628        9.284        0.011      337.935       10.246      865.928
10/01/2014  22:46:00      -78.156       -0.907      -15.359       16.420       16.049       13.665      269.606      257.554      186.724        0.353        0.036       78.161       11.210        0.021      337.903       10.193      865.935
10/01/2014  22:47:00      -72.511       -0.101      -14.326       24.826       18.564       13.334      616.346      344.633      177.796        0.330        0.057       72.511        9.286        0.016      337.812       10.038      865.946
10/01/2014  22:48:00      -62.846      -12.214      -13.527       13.938       15.765       12.197      194.276      248.526      148.775        0.244        0.030       64.022        7.684        0.014      337.814       10.043      865.960
10/01/2014  22:49:00      -71.294      -22.309       -9.817       20.655       16.211       12.779      426.640      262.781      163.291        0.326        0.043       74.703        8.140        0.012      337.938       10.251      865.959
10/01/2014  22:50:00      -68.188       -9.658      -13.981       23.560       23.279       13.951      555.070      541.903      194.624        0.311        0.065       68.869        9.884        0.021      337.932       10.240      865.969
10/01/2014  22:51:00      -62.583      -13.872      -14.422       25.359       19.352       12.270      643.067      374.511      150.544        0.274        0.058       64.102        9.317        0.021      337.868       10.131      865.965
10/01/2014  22:52:00      -78.753        2.464      -23.157       16.971       13.084       11.422      288.006      171.202      130.469        0.367        0.029       78.792        7.463        0.009      337.932       10.240      865.957
10/01/2014  22:53:00      -55.051       -3.023      -20.540       18.927       21.966       12.469      358.221      482.492      155.488        0.223        0.050       55.134       10.699        0.038      337.835       10.078      865.952
10/01/2014  22:54:00      -60.838      -21.157      -13.684       22.232       16.846       13.675      494.244      283.783      187.013        0.265        0.048       64.412       10.111        0.025      337.879       10.151      865.949
10/01/2014  22:55:00      -52.775      -30.394       -2.811       21.997       21.612       16.471      483.875      467.082      271.307        0.247        0.061       60.901        7.527        0.015      337.838       10.082      865.963
10/01/2014  22:56:00     -106.057       -2.901      -15.627       29.355       23.673       16.074      861.698      560.407      258.373        0.659        0.084      106.097       11.236        0.011      337.913       10.209      865.958
10/01/2014  22:57:00      -99.915      -13.343      -14.475       25.469       21.232       17.441      648.658      450.787      304.193        0.589        0.070      100.802       12.199        0.015      337.940       10.252      865.957
10/01/2014  22:58:00      -67.682       -0.029       -5.856       35.562       26.310       19.727     1264.649      692.236      389.139        0.348        0.117       67.682       20.663        0.093      337.818       10.049      865.965
10/01/2014  22:59:00     -100.818        9.081       -8.371       31.094       17.510       15.352      966.867      306.605      235.692        0.591        0.075      101.226       14.634        0.021      337.831       10.071      865.973
10/01/2014  23:00:00      -95.356      -23.903      -11.033       24.750       21.991       14.119      612.582      483.619      199.333        0.554        0.065       98.307       13.909        0.020      337.849       10.102      865.983
10/01/2014  23:01:00      -66.697      -36.792       -9.823       36.202       13.186       14.751     1310.593      173.874      217.582        0.380        0.085       76.172        9.768        0.016      337.784        9.992      865.985
10/01/2014  23:02:00     -111.401      -47.337      -16.717        9.875       14.903        8.727       97.512      222.109       76.161        0.766        0.020      121.041        3.801        0.001      337.785        9.992      865.983
10/01/2014  23:03:00      -81.472      -52.971       -3.435       45.656       25.156       21.609     2084.471      632.828      466.937        0.632        0.159       97.178       18.360        0.036      337.847       10.098      865.987
10/01/2014  23:04:00      -94.515      -74.487       -1.971       23.288       20.042       16.053      542.332      401.674      257.690        0.784        0.060      120.339       11.084        0.008      337.816       10.046      865.991
10/01/2014  23:05:00     -117.358      -44.769       -6.205       24.643       21.115       10.900      607.259      445.847      118.804        0.849        0.059      125.607        9.630        0.006      337.884       10.160      865.979
10/01/2014  23:06:00      -80.310      -35.379       -7.969       30.877       17.414       13.291      953.374      303.238      176.640        0.460        0.072       87.757       10.767        0.015      337.865       10.129      865.968
10/01/2014  23:07:00      -79.963      -43.298       -9.449       18.717       18.793       12.082      350.317      353.164      145.986        0.460        0.042       90.933        8.833        0.009      337.772        9.973      865.963
10/01/2014  23:08:00      -62.203      -44.732        3.816       40.858       33.783       22.135     1669.403     1141.279      489.964        0.459        0.165       76.617       23.608        0.095      337.748        9.933      865.958
10/01/2014  23:09:00      -98.497      -65.945       -4.881       52.031       37.008       27.771     2707.247     1369.604      771.233        0.946        0.242      118.534       27.536        0.054      337.701        9.854      865.966
10/01/2014  23:10:00     -118.347      -81.746        2.656       39.800       21.104       20.145     1584.046      445.365      405.834        1.156        0.122      143.835       20.237        0.020      337.665        9.792      865.953
10/01/2014  23:11:00     -120.689      -67.326       -7.324       34.781       32.278       21.932     1209.711     1041.884      481.014        1.094        0.137      138.198       16.552        0.014      337.693        9.839      865.948
10/01/2014  23:12:00      -76.398      -62.393        2.945       42.625       31.832       25.739     1816.894     1013.264      662.498        0.661        0.175       98.638       23.607        0.057      337.694        9.841      865.953
10/01/2014  23:13:00      -80.292      -70.306       -0.653       47.435       38.127       20.075     2250.086     1453.662      403.014        0.775        0.205      106.723       22.532        0.045      337.744        9.924      865.961
10/01/2014  23:14:00      -84.515      -73.919        4.792       22.849       38.312       16.720      522.069     1467.823      279.565        0.745        0.113      112.280       12.997        0.013      337.707        9.862      865.954
10/01/2014  23:15:00     -118.660      -56.809       -4.139       28.789       38.715       22.859      828.804     1498.847      522.539        1.009        0.143      131.558       15.198        0.013      337.663        9.789      865.953
10/01/2014  23:16:00     -114.871      -56.678       -4.527       21.792       17.652       18.253      474.879      311.588      333.184        0.877        0.056      128.093        6.478        0.003      337.624        9.725      865.952
10/01/2014  23:17:00     -112.316      -59.994       -3.692       29.823       27.307       18.033      889.424      745.695      325.186        0.909        0.098      127.335       10.674        0.007      337.565        9.625      865.930
10/01/2014  23:18:00      -78.735      -56.340       -3.486       41.983       21.727       20.852     1762.593      472.049      434.827        0.603        0.133       96.817       13.657        0.020      337.526        9.560      865.928
10/01/2014  23:19:00      -96.229      -58.473        4.091       28.355       21.194       20.252      803.992      449.202      410.124        0.718        0.083      112.602       18.213        0.026      337.479        9.480      865.935
10/01/2014  23:20:00      -92.299      -43.193       -2.822       25.109       23.145       19.614      630.441      535.710      384.701        0.597        0.078      101.905       16.383        0.026      337.472        9.468      865.927
10/01/2014  23:21:00     -105.227      -46.083      -10.876       17.508       17.357       11.403      306.541      301.268      130.039        0.703        0.037      114.875        9.412        0.007      337.563        9.622      865.921
10/01/2014  23:22:00     -102.130      -54.437      -12.619       20.621       19.399       17.526      425.216      376.304      307.173        0.733        0.055      115.732        5.450        0.002      337.516        9.542      865.930
10/01/2014  23:23:00      -86.506      -46.294      -11.126       19.101       15.875       11.280      364.864      252.007      127.247        0.525        0.037       98.115        9.007        0.008      337.500        9.517      865.937
10/01/2014  23:24:00      -91.230      -43.475      -10.933       11.598       11.755        9.940      134.510      138.173       98.808        0.535        0.019      101.060        5.720        0.003      337.496        9.508      865.934
10/01/2014  23:25:00      -78.737      -49.421       -4.273       23.334       19.929       15.443      544.485      397.161      238.493        0.492        0.059       92.962        9.905        0.011      337.444        9.423      865.932
10/01/2014  23:26:00      -96.327      -53.522       -8.966       23.248       16.369       13.772      540.449      267.952      189.663        0.661        0.050      110.198       11.112        0.010      337.495        9.507      865.941
10/01/2014  23:27:00      -92.212      -64.215       -7.679       30.299       18.141       16.376      918.036      329.082      268.174        0.710        0.076      112.368       13.789        0.015      337.475        9.473      865.935
10/01/2014  23:28:00      -96.828      -59.964       -7.972       21.325       16.182       16.840      454.744      261.844      283.579        0.702        0.050      113.892       10.761        0.009      337.391        9.334      865.932
10/01/2014  23:29:00      -85.126      -48.044       -3.646       24.881       18.093       15.728      619.084      327.365      247.385        0.538        0.060       97.748       14.635        0.022      337.350        9.264      865.941
10/01/2014  23:30:00      -72.535      -45.379      -15.156       20.576       15.618       10.896      423.391      243.936      118.720        0.417        0.039       85.560        8.662        0.010      337.438        9.412      865.955
10/01/2014  23:31:00     -107.601      -30.620      -15.450       12.973       13.767        8.784      168.310      189.543       77.162        0.659        0.022      111.873        4.163        0.001      337.414        9.372      865.948
10/01/2014  23:32:00      -94.644      -54.869       -6.296       19.964       15.477       14.366      398.558      239.545      206.376        0.643        0.042      109.399       12.975        0.014      337.419        9.380      865.954
10/01/2014  23:33:00      -91.895      -36.213      -10.462       20.394       16.862       12.576      415.927      284.326      158.148        0.536        0.043       98.773        9.771        0.010      337.422        9.387      865.963
10/01/2014  23:34:00      -95.712      -36.135       -3.540       17.074       17.581       12.858      291.530      309.086      165.339        0.562        0.038      102.306        8.901        0.008      337.360        9.280      865.973
10/01/2014  23:35:00      -82.996      -39.544       -6.092       17.642       15.183       11.071      311.247      230.528      122.571        0.458        0.033       91.935        5.402        0.003      337.323        9.220      865.990
10/01/2014  23:36:00      -72.883      -37.289       -6.774       17.172       20.640       12.092      294.882      426.023      146.217        0.381        0.043       81.868        7.398        0.008      337.370        9.297      866.013
10/01/2014  23:37:00      -74.055      -18.973      -12.103       18.175       13.961       12.446      330.320      194.903      154.907        0.334        0.034       76.447       10.829        0.020      337.276        9.140      866.020
10/01/2014  23:38:00      -89.838      -25.472      -14.019       17.365       11.460       10.179      301.532      131.324      103.621        0.473        0.027       93.379        6.712        0.005      337.194        9.003      866.021
10/01/2014  23:39:00      -79.632      -36.403      -14.565       22.333       15.654       14.555      498.758      245.043      211.835        0.442        0.048       87.558        9.555        0.012      337.201        9.014      866.029
10/01/2014  23:40:00      -68.072      -34.914      -14.457       14.520       13.115       11.045      210.837      172.016      121.995        0.328        0.025       76.504        7.037        0.008      337.135        8.904      866.031
10/01/2014  23:41:00      -61.476      -34.061      -16.909       21.108       16.630       12.921      445.566      276.559      166.945        0.306        0.044       70.281       10.605        0.023      337.128        8.891      866.019
10/01/2014  23:42:00      -57.819      -41.078      -11.211       16.363       16.441       10.921      267.761      270.305      119.265        0.291        0.033       70.926        7.704        0.012      337.126        8.890      866.018
10/01/2014  23:43:00      -72.897      -28.234       -8.487       22.228       21.388       14.247      494.088      457.433      202.969        0.367        0.058       78.173       14.574        0.035      337.147        8.924      866.026
10/01/2014  23:44:00      -90.241      -19.049      -16.662       15.088       17.443       10.974      227.642      304.268      120.426        0.472        0.033       92.230        8.859        0.009      337.111        8.864      866.028
10/01/2014  23:45:00      -72.295      -18.921      -14.429       19.884       16.943       12.217      395.391      287.064      149.263        0.331        0.042       74.730        9.965        0.018      337.033        8.732      866.028
10/01/2014  23:46:00      -87.769       -8.510      -11.219       20.635       21.412       14.403      425.791      458.483      207.443        0.450        0.055       88.180       10.236        0.013      337.074        8.801      866.034
10/01/2014  23:47:00      -71.134      -18.737      -17.960       21.712       13.791       11.099      471.405      190.205      123.181        0.326        0.039       73.561       10.636        0.021      337.044        8.753      866.046
10/01/2014  23:48:00      -56.517      -30.639      -13.306       18.262       18.700       13.164      333.510      349.672      173.280        0.258        0.043       64.288       10.438        0.026      337.091        8.831      866.041
10/01/2014  23:49:00      -68.163      -32.894      -14.155       19.898       15.776       12.811      395.939      248.885      164.109        0.337        0.040       75.685        6.740        0.008      337.130        8.895      866.022
10/01/2014  23:50:00      -83.826      -15.081      -12.597       33.997       12.669       17.154     1155.823      160.492      294.263        0.451        0.081       85.172       20.693        0.059      337.064        8.784      866.012
10/01/2014  23:51:00      -85.575      -22.656      -18.158        8.308        9.505        9.275       69.017       90.337       86.031        0.421        0.012       88.523        3.946        0.002      337.087        8.823      866.010
10/01/2014  23:52:00      -86.293      -25.063      -15.512       10.147       10.546       10.014      102.956      111.228      100.275        0.431        0.016       89.859        6.673        0.006      337.138        8.910      865.998
10/01/2014  23:53:00      -81.978      -32.491      -12.132        7.243        7.770        8.645       52.459       60.379       74.741        0.406        0.009       88.181        3.243        0.001      337.139        8.911      865.995
10/01/2014  23:54:00      -93.796      -38.684      -13.861       10.438        9.253        8.585      108.950       85.624       73.707        0.538        0.013      101.461        4.188        0.002      337.223        9.053      866.007
10/01/2014  23:55:00      -86.384      -29.264       -7.413       11.323       14.474       10.111      128.208      209.492      102.224        0.441        0.022       91.206        2.909        0.001      337.204        9.020      865.997
10/01/2014  23:56:00      -79.766      -34.075       -9.627       12.225       10.665        9.999      149.449      113.750       99.985        0.399        0.018       86.739        8.072        0.009      337.237        9.076      865.993
10/01/2014  23:57:00      -75.713      -31.585      -19.347       11.794       14.398       10.558      139.092      207.300      111.464        0.378        0.023       82.037        1.356        0.000      337.274        9.138      865.997
10/01/2014  23:58:00      -78.671      -43.047      -13.015       12.233       19.039       12.043      149.652      362.497      145.041        0.443        0.033       89.678        4.686        0.003      337.292        9.167      865.999
10/01/2014  23:59:00      -74.767      -35.048       -9.276       16.123       14.647       11.443      259.953      214.549      130.953        0.375        0.030       82.574        4.405        0.003      337.249        9.095      866.001
